[[{"header":{"parameterUnit":"m.s-1","parameterCategory":1,"la1":30.6,"la2":28.766,"lo1":-90.7593,"lo2":-88.6598,"dy":0.0162,"dx":0.0183,"nx":116,"ny":114,"refTime":"2024-03-20T00:00:00:Z","depth":0,"parameterNumber":2,"parameterNumberName":"U-component_of_WINDS"},"data":[0.0,0.0,0.0,0.0,0.0,0.0,0.0,0.0,0.0,0.0,0.0,0.0,0.0,0.0,0.0,0.0,0.0,0.0,0.0,0.0,0.0,0.0,0.0,0.0,0.0,0.0,0.0,0.0,0.0,0.0,0.0,0.0,0.0,0.0,0.0,0.0,0.0,0.0,0.0,0.0,0.0,0.0,0.0,0.0,0.0,0.0,0.0,0.0,0.0,0.0,0.0,0.0,0.0,0.0,0.0,0.0,0.0,0.0,0.0,0.0,0.0,0.0,0.0,0.0,0.0,0.0,0.0,0.0,0.0,0.0,0.0,0.0,0.0,0.0,0.0,0.0,0.0,0.0,0.0,0.0,0.0,0.0,0.0,0.0,0.0,0.0,0.0,0.0,0.0,0.0,0.0,0.0,0.0,0.0,0.0,0.0,0.0,0.0,0.0,0.0,0.0,0.0,0.0,0.0,0.0,0.0,0.0,0.0,0.0,0.0,0.0,0.0,0.0,0.0,0.0,0.0,0.0,0.0,0.0,0.0,0.0,0.0,0.0,0.0,0.0,0.0,0.0,0.0,0.0,0.0,0.0,0.0,0.0,0.0,0.0,0.0,0.0,0.0,0.0,0.0,0.0,0.0,0.0,0.0,0.0,0.0,0.0,0.0,0.0,0.0,0.0,0.0,0.0,0.0,0.0,0.0,0.0,0.0,0.0,0.0,0.0,0.0,0.0,0.0,0.0,0.0,0.0,0.0,0.0,0.0,0.0,0.0,0.0,0.0,0.0,0.0,0.0,0.0,0.0,0.0,0.0,0.0,0.0,0.0,0.0,0.0,0.0,0.0,0.0,0.0,0.0,0.0,0.0,0.0,0.0,0.0,0.0,0.0,0.0,0.0,0.0,0.0,0.0,0.0,0.0,0.0,0.0,0.0,0.0,0.0,0.0,0.0,0.0,0.0,0.0,0.0,0.0,0.0,0.0,0.0,0.0,0.0,0.0,0.0,0.0,0.0,0.0,0.0,0.0,0.0,0.0,0.0,0.0,0.0,0.0,0.0,0.0,0.0,0.0,0.0,0.0,0.0,0.0,0.0,0.0,0.0,0.0,0.0,0.0,0.0,0.0,0.0,0.0,0.0,0.0,0.0,0.0,0.0,0.0,0.0,0.0,0.0,0.0,0.0,0.0,0.0,0.0,0.0,0.0,0.0,0.0,0.0,0.0,0.0,0.0,0.0,0.0,0.0,0.0,0.0,0.0,0.0,0.0,0.0,0.0,0.0,0.0,0.0,0.0,0.0,0.0,0.0,0.0,0.0,0.0,0.0,0.0,0.0,0.0,0.0,0.0,0.0,0.0,0.0,0.0,0.0,0.0,0.0,0.0,0.0,0.0,0.0,0.0,0.0,0.0,0.0,0.0,0.0,0.0,0.0,0.0,0.0,0.0,0.0,0.0,0.0,0.0,0.0,0.0,0.0,0.0,0.0,0.0,0.0,0.0,0.0,0.0,0.0,0.0,0.0,0.0,0.0,0.0,0.0,0.0,0.0,0.0,0.0,0.0,0.0,0.0,0.0,0.0,0.0,0.0,0.0,0.0,0.0,0.0,0.0,0.0,0.0,0.0,0.0,0.0,0.0,0.0,0.0,0.0,0.0,0.0,0.0,0.0,0.0,0.0,0.0,0.0,0.0,0.0,0.0,0.0,0.0,0.0,0.0,0.0,0.0,0.0,0.0,0.0,0.0,0.0,0.0,0.0,0.0,0.0,0.0,0.0,0.0,0.0,0.0,0.0,0.0,0.0,0.0,0.0,0.0,0.0,0.0,0.0,0.0,0.0,0.0,0.0,0.0,0.0,0.0,0.0,0.0,0.0,0.0,0.0,0.0,0.0,0.0,0.0,0.0,0.0,0.0,0.0,0.0,0.0,0.0,0.0,0.0,0.0,0.0,0.0,0.0,0.0,0.0,0.0,0.0,0.0,0.0,0.0,0.0,0.0,0.0,0.0,0.0,0.0,0.0,0.0,0.0,0.0,0.0,0.0,0.0,0.0,0.0,0.0,0.0,0.0,0.0,0.0,0.0,0.0,0.0,0.0,0.0,0.0,0.0,0.0,0.0,0.0,0.0,0.0,0.0,0.0,0.0,0.0,0.0,0.0,0.0,0.0,0.0,0.0,0.0,0.0,0.0,0.0,0.0,0.0,0.0,0.0,0.0,0.0,0.0,0.0,0.0,0.0,0.0,0.0,0.0,0.0,0.0,0.0,0.0,0.0,0.0,0.0,0.0,0.0,0.0,0.0,0.0,0.0,0.0,0.0,0.0,0.0,0.0,0.0,0.0,0.0,0.0,0.0,0.0,0.0,0.0,0.0,0.0,0.0,0.0,0.0,0.0,0.0,0.0,0.0,0.0,0.0,0.0,0.0,0.0,0.0,0.0,0.0,0.0,0.0,0.0,0.0,0.0,0.0,0.0,0.0,0.0,0.0,0.0,0.0,0.0,0.0,0.0,0.0,0.0,0.0,0.0,0.0,0.0,0.0,0.0,0.0,0.0,0.0,0.0,0.0,0.0,0.0,0.0,0.0,0.0,0.0,0.0,0.0,0.0,0.0,0.0,0.0,0.0,0.0,0.0,0.0,0.0,0.0,0.0,0.0,0.0,0.0,0.0,0.0,0.0,0.0,0.0,0.0,0.0,0.0,0.0,0.0,0.0,0.0,0.0,0.0,0.0,0.0,0.0,0.0,0.0,0.0,0.0,0.0,0.0,0.0,0.0,0.0,0.0,0.0,0.0,0.0,0.0,0.0,0.0,0.0,0.0,0.0,0.0,0.0,0.0,0.0,0.0,0.0,0.0,0.0,0.0,0.0,0.0,0.0,0.0,0.0,0.0,0.0,0.0,0.0,0.0,0.0,0.0,0.0,0.0,0.0,0.0,0.0,0.0,0.0,0.0,0.0,0.0,0.0,0.0,0.0,0.0,0.0,0.0,0.0,0.0,0.0,0.0,0.0,0.0,0.0,0.0,0.0,0.0,0.0,0.0,0.0,0.0,0.0,0.0,0.0,0.0,0.0,0.0,0.0,0.0,0.0,0.0,0.0,0.0,0.0,0.0,0.0,0.0,0.0,0.0,0.0,0.0,0.0,0.0,0.0,0.0,0.0,0.0,0.0,0.0,0.0,0.0,0.0,0.0,0.0,0.0,0.0,0.0,0.0,0.0,0.0,0.0,0.0,0.0,0.0,0.0,0.0,0.0,0.0,0.0,0.0,0.0,0.0,0.0,0.0,0.0,0.0,0.0,0.0,0.0,0.0,0.0,0.0,0.0,0.0,0.0,0.0,0.0,0.0,0.0,0.0,0.0,0.0,0.0,0.0,0.0,0.0,0.0,0.0,0.0,0.0,0.0,0.0,0.0,0.0,0.0,0.0,0.0,0.0,0.0,0.0,0.0,0.0,0.0,0.0,0.0,0.0,0.0,0.0,0.0,0.0,0.0,0.0,0.0,0.0,0.0,0.0,0.0,0.0,0.0,0.0,0.0,0.0,0.0,0.0,0.0,0.0,0.0,0.0,0.0,0.0,0.0,0.0,0.0,0.0,0.0,0.0,0.0,0.0,0.0,0.0,0.0,0.0,0.0,0.0,0.0,0.0,0.0,0.0,0.0,0.0,0.0,0.0,0.0,0.0,0.0,0.0,0.0,0.0,0.0,0.0,0.0,0.0,0.0,0.0,0.0,0.0,0.0,0.0,0.0,0.0,0.0,0.0,0.0,0.0,0.0,0.0,0.0,0.0,0.0,0.0,0.0,0.0,0.0,0.0,0.0,0.0,0.0,0.0,0.0,0.0,0.0,0.0,0.0,0.0,0.0,0.0,0.0,0.0,0.0,0.0,0.0,0.0,0.0,0.0,0.0,0.0,0.0,0.0,0.0,0.0,0.0,0.0,0.0,0.0,0.0,0.0,0.0,0.0,0.0,0.0,0.0,0.0,0.0,0.0,0.0,0.0,0.0,0.0,0.0,0.0,0.0,0.0,0.0,0.0,0.0,0.0,0.0,0.0,0.0,0.0,0.0,0.0,0.0,0.0,0.0,0.0,0.0,0.0,0.0,0.0,0.0,0.0,0.0,0.0,0.0,0.0,0.0,0.0,0.0,0.0,0.0,0.0,0.0,0.0,0.0,0.0,0.0,0.0,0.0,0.0,0.0,0.0,0.0,0.0,0.0,0.0,0.0,0.0,0.0,0.0,0.0,0.0,0.0,0.0,0.0,0.0,0.0,0.0,0.0,0.0,0.0,0.0,0.0,0.0,0.0,0.0,0.0,0.0,0.0,0.0,0.0,0.0,0.0,0.0,0.0,0.0,0.0,0.0,0.0,0.0,0.0,0.0,0.0,0.0,0.0,0.0,0.0,0.0,0.0,0.0,0.0,0.0,0.0,0.0,0.0,0.0,0.0,0.0,0.0,0.0,0.0,0.0,0.0,0.0,0.0,0.0,0.0,0.0,0.0,0.0,0.0,0.0,0.0,0.0,0.0,0.0,0.0,0.0,0.0,0.0,0.0,0.0,0.0,0.0,0.0,0.0,0.0,0.0,0.0,0.0,0.0,0.0,0.0,0.0,0.0,0.0,0.0,0.0,0.0,0.0,0.0,0.0,0.0,0.0,0.0,0.0,0.0,0.0,0.0,0.0,0.0,0.0,0.0,0.0,0.0,0.0,0.0,0.0,0.0,0.0,0.0,0.0,0.0,0.0,0.0,0.0,0.0,0.0,0.0,0.0,0.0,0.0,0.0,0.0,0.0,0.0,0.0,0.0,0.0,0.0,0.0,0.0,0.0,0.0,0.0,0.0,0.0,0.0,0.0,0.0,0.0,0.0,0.0,0.0,0.0,0.0,0.0,0.0,0.0,0.0,0.0,0.0,0.0,0.0,0.0,0.0,0.0,0.0,0.0,0.0,0.0,0.0,0.0,0.0,0.0,0.0,0.0,0.0,0.0,0.0,0.0,0.0,0.0,0.0,0.0,0.0,0.0,0.0,0.0,0.0,0.0,0.0,0.0,0.0,0.0,0.0,0.0,0.0,0.0,0.0,0.0,0.0,0.0,0.0,0.0,0.0,0.0,0.0,0.0,0.0,0.0,0.0,0.0,0.0,0.0,0.0,0.0,0.0,0.0,0.0,0.0,0.0,0.0,0.0,0.0,0.0,0.0,0.0,0.0,0.0,0.0,0.0,0.0,0.0,0.0,0.0,0.0,0.0,0.0,0.0,0.0,0.0,0.0,0.0,0.0,0.0,0.0,0.0,0.0,0.0,0.0,0.0,0.0,0.0,0.0,0.0,0.0,0.0,0.0,0.0,0.0,0.0,0.0,0.0,0.0,0.0,0.0,0.0,0.0,0.0,0.0,0.0,0.0,0.0,0.0,0.0,0.0,0.0,0.0,0.0,0.0,0.0,0.0,0.0,0.0,0.0,0.0,0.0,0.0,0.0,0.0,0.0,0.0,0.0,0.0,0.0,0.0,0.0,0.0,0.0,0.0,0.0,0.0,0.0,0.0,0.0,0.0,0.0,0.0,0.0,0.0,0.0,0.0,0.0,0.0,0.0,0.0,0.0,0.0,0.0,0.0,0.0,0.0,0.0,0.0,0.0,0.0,0.0,0.0,0.0,0.0,0.0,0.0,0.0,0.0,0.0,0.0,0.0,0.0,0.0,0.0,0.0,0.0,0.0,0.0,0.0,0.0,0.0,0.0,0.0,0.0,0.0,0.0,0.0,0.0,0.0,0.0,0.0,0.0,0.0,0.0,0.0,0.0,0.0,0.0,0.0,0.0,0.0,0.0,0.0,0.0,0.0,0.0,0.0,0.0,0.0,0.0,0.0,0.0,0.0,0.0,0.0,0.0,0.0,0.0,0.0,0.0,0.0,0.0,0.0,0.0,0.0,0.0,0.0,0.0,0.0,0.0,0.0,0.0,0.0,0.0,0.0,0.0,0.0,0.0,0.0,0.0,0.0,0.0,0.0,0.0,0.0,0.0,0.0,0.0,0.0,0.0,0.0,0.0,0.0,0.0,0.0,0.0,0.0,0.0,0.0,0.0,0.0,0.0,0.0,0.0,0.0,0.0,0.0,0.0,0.0,0.0,-3.4901,-3.342,0.0,0.0,0.0,0.0,0.0,0.0,0.0,0.0,0.0,0.0,0.0,0.0,0.0,0.0,0.0,0.0,0.0,0.0,0.0,0.0,0.0,0.0,0.0,0.0,0.0,0.0,-3.7485,-3.7485,-3.7485,-3.7485,0.0,0.0,0.0,0.0,0.0,0.0,-3.7193,-3.7243,-3.6496,-3.6045,-3.5872,-3.5365,-3.465,-3.3897,0.0,0.0,0.0,0.0,0.0,0.0,0.0,0.0,0.0,0.0,0.0,0.0,0.0,0.0,0.0,0.0,0.0,0.0,0.0,0.0,0.0,0.0,0.0,0.0,0.0,0.0,0.0,0.0,0.0,0.0,0.0,0.0,0.0,0.0,0.0,0.0,0.0,0.0,0.0,0.0,0.0,0.0,0.0,0.0,0.0,0.0,0.0,0.0,0.0,0.0,0.0,0.0,0.0,0.0,0.0,0.0,0.0,0.0,0.0,0.0,0.0,0.0,0.0,0.0,0.0,0.0,0.0,0.0,0.0,0.0,-3.6006,-3.5328,0.0,0.0,0.0,0.0,0.0,0.0,0.0,0.0,0.0,0.0,0.0,0.0,0.0,0.0,0.0,0.0,0.0,0.0,0.0,0.0,0.0,0.0,0.0,-3.669,-3.6663,-3.7196,-3.7157,-3.7088,-3.7111,-3.7157,-3.7118,-3.7103,-3.7145,-3.7187,-3.7118,-3.7103,-3.7214,-3.7493,-3.7101,-3.6713,-3.6405,-3.6405,-3.5676,-3.4324,-3.3947,0.0,0.0,0.0,0.0,0.0,0.0,0.0,0.0,0.0,0.0,0.0,0.0,0.0,0.0,0.0,0.0,0.0,0.0,0.0,0.0,0.0,0.0,0.0,0.0,0.0,0.0,0.0,0.0,0.0,0.0,0.0,0.0,0.0,0.0,0.0,0.0,0.0,0.0,0.0,0.0,0.0,0.0,0.0,0.0,0.0,0.0,0.0,0.0,0.0,0.0,0.0,0.0,0.0,0.0,0.0,0.0,0.0,0.0,0.0,0.0,0.0,0.0,0.0,-3.7335,-3.741,-3.741,-3.7387,-3.7161,-3.6686,-3.7462,-3.7538,-3.7161,-3.6832,0.0,0.0,0.0,0.0,0.0,0.0,0.0,0.0,0.0,0.0,0.0,0.0,0.0,0.0,0.0,0.0,0.0,0.0,0.0,-3.5383,-3.6071,-3.5299,-3.5094,-3.6018,-3.5702,-3.5429,-3.5509,-3.5773,-3.5791,-3.5449,-3.575,-3.5873,-3.5669,-3.5505,-3.5816,-3.656,-3.6858,-3.6773,-3.6405,-3.6405,-3.6279,-3.6103,-3.6458,-3.643,-3.5952,0.0,0.0,0.0,0.0,0.0,0.0,0.0,0.0,0.0,0.0,0.0,0.0,0.0,0.0,0.0,0.0,0.0,0.0,0.0,0.0,0.0,0.0,0.0,0.0,0.0,0.0,0.0,0.0,0.0,0.0,0.0,0.0,0.0,0.0,0.0,0.0,0.0,0.0,0.0,0.0,0.0,-3.5604,-3.6081,0.0,0.0,0.0,0.0,0.0,0.0,0.0,0.0,0.0,0.0,0.0,0.0,0.0,-3.804,-3.9019,-3.9647,-3.9973,-3.9973,-4.0981,-4.1458,-4.1458,-4.1458,-4.1408,-4.1282,-4.0425,0.0,-3.7211,-3.7613,0.0,0.0,0.0,0.0,0.0,0.0,0.0,0.0,0.0,0.0,0.0,0.0,0.0,0.0,0.0,0.0,0.0,0.0,0.0,0.0,0.0,-3.521,-3.5366,-3.6376,-3.6499,-3.6437,-3.6165,-3.6426,-3.6348,-3.586,-3.6129,-3.6255,-3.6171,-3.5668,-3.5841,-3.6729,-3.7636,-3.8111,-3.8241,-3.8241,-3.8241,-3.8241,-3.8492,-3.7764,-3.6405,-3.6433,0.0,0.0,0.0,0.0,0.0,0.0,0.0,0.0,0.0,0.0,0.0,0.0,0.0,0.0,0.0,0.0,0.0,0.0,0.0,0.0,0.0,0.0,0.0,0.0,0.0,0.0,0.0,0.0,0.0,0.0,0.0,0.0,0.0,0.0,0.0,0.0,0.0,0.0,0.0,-3.5956,-3.6558,-3.6832,-3.7036,-3.6885,0.0,0.0,0.0,0.0,0.0,0.0,0.0,0.0,0.0,-3.9848,-3.9821,-4.0124,-4.0601,-4.0799,-4.0924,-4.0924,-4.148,-4.1681,-4.1681,-4.1681,-4.1681,-4.1681,-4.1178,-4.0425,-3.9521,-3.9446,-3.9421,-3.9346,0.0,0.0,0.0,0.0,-3.7462,-3.7789,0.0,0.0,0.0,0.0,0.0,0.0,0.0,0.0,0.0,0.0,0.0,0.0,-3.5193,-3.5461,-3.6038,-3.7085,-3.739,-3.7318,-3.6793,-3.7108,-3.6946,-3.6262,-3.6601,-3.6774,-3.6731,-3.6367,-3.6541,-3.726,-3.8465,-3.9295,-3.9697,-3.9697,-3.9697,-3.9697,-3.9697,-3.8693,-3.7059,-3.7287,-3.6835,-3.5909,0.0,0.0,0.0,0.0,0.0,0.0,0.0,0.0,0.0,0.0,0.0,0.0,0.0,0.0,0.0,0.0,0.0,0.0,0.0,0.0,0.0,0.0,0.0,0.0,0.0,0.0,0.0,0.0,0.0,0.0,0.0,0.0,0.0,0.0,0.0,0.0,0.0,-3.7008,-3.7487,-3.7789,-3.8065,-3.804,0.0,0.0,0.0,0.0,0.0,0.0,-4.0501,-4.0902,-4.1254,-4.153,-4.1555,-4.1605,-4.1756,-4.1702,-4.1702,-4.1756,-4.1852,-4.1902,-4.1902,-4.1902,-4.1902,-4.1902,-4.1752,-4.1702,-4.1706,-4.1003,-4.0674,-4.0701,-4.0576,-4.0275,-3.9873,-3.9597,-3.9672,-3.9823,0.0,0.0,0.0,0.0,0.0,0.0,0.0,0.0,0.0,0.0,0.0,-3.4855,-3.5347,-3.5953,-3.6745,-3.7778,-3.7318,-3.6871,-3.6449,-3.6955,-3.6883,-3.5893,-3.6454,-3.6688,-3.6515,-3.735,-3.7843,-3.7964,-3.9094,-3.9672,-3.9697,-3.9697,-3.9697,-3.9697,-3.9697,-3.9346,-3.8768,-3.8191,-3.7638,-3.696,-3.5429,0.0,0.0,0.0,0.0,0.0,0.0,0.0,0.0,0.0,0.0,0.0,0.0,0.0,0.0,0.0,0.0,0.0,0.0,0.0,0.0,0.0,0.0,0.0,0.0,0.0,0.0,0.0,0.0,0.0,0.0,0.0,0.0,0.0,0.0,0.0,0.0,0.0,0.0,-3.9446,-4.0501,0.0,0.0,0.0,0.0,-3.9697,-3.9697,-3.9973,-4.0501,-4.0551,-4.1028,-4.2137,-4.2162,-4.2414,-4.2886,-4.2886,-4.2886,-4.2911,-4.3438,-4.3664,-4.3664,-4.3664,-4.3664,-4.3639,-4.3112,-4.2886,-4.2811,-4.1731,-4.125,-4.12,-4.0727,-4.0501,-4.035,-3.9295,-3.9572,-4.04,0.0,0.0,0.0,0.0,0.0,0.0,0.0,0.0,-3.4525,-3.3972,-3.4374,-3.4896,-3.5385,-3.6653,-3.7736,-3.8463,-3.864,-3.854,-3.8039,-3.8188,-3.7955,-3.7176,-3.7365,-3.7292,-3.6929,-3.8111,-3.8462,-3.8015,-3.9496,-4.0224,-4.0224,-4.0601,-4.0752,-4.0727,-4.0375,-4.0124,-3.9898,-3.932,-3.8567,-3.7663,-3.7061,-3.6107,0.0,0.0,0.0,0.0,0.0,0.0,0.0,0.0,0.0,0.0,0.0,0.0,0.0,0.0,0.0,0.0,0.0,0.0,0.0,0.0,0.0,0.0,0.0,0.0,0.0,0.0,0.0,0.0,0.0,0.0,0.0,0.0,0.0,0.0,0.0,0.0,0.0,-4.0149,-4.0576,0.0,-4.0526,-4.0974,-4.1125,-4.0777,-4.1731,-4.2434,-4.261,-4.2961,-4.3338,-4.374,-4.374,-4.384,-4.4041,-4.4041,-4.4041,-4.4041,-4.4242,-4.4317,-4.4317,-4.4317,-4.4317,-4.4317,-4.4116,-4.4041,-4.4016,-4.3614,-4.3037,-4.2384,-4.2183,-4.2108,-4.2057,-4.1656,-4.1756,-4.2082,0.0,0.0,0.0,0.0,0.0,0.0,0.0,0.0,-3.4831,-3.45,-3.5102,-3.5755,-3.626,-3.7688,-3.8718,-3.912,-3.9471,-3.9371,-3.8617,-3.8736,-3.8444,-3.7556,-3.7934,-3.8187,-3.8117,-3.9194,-3.9575,-3.912,-4.0249,-4.0802,-4.0802,-4.1125,-4.1275,-4.1275,-4.0899,-4.0802,-4.0777,-4.04,-3.9597,-3.8542,-3.8165,-3.691,-3.5228,0.0,0.0,0.0,0.0,0.0,0.0,0.0,0.0,0.0,0.0,0.0,0.0,0.0,0.0,0.0,0.0,0.0,0.0,0.0,0.0,0.0,0.0,0.0,0.0,0.0,0.0,0.0,0.0,0.0,0.0,0.0,0.0,0.0,0.0,-3.927,-4.0174,-4.0727,-4.0953,-4.1128,-4.1329,-4.1681,-4.1882,-4.1882,-4.3087,-4.379,-4.379,-4.4317,-4.4618,-4.4618,-4.4618,-4.4618,-4.4618,-4.4618,-4.4719,-4.492,-4.492,-4.502,-4.5196,-4.5196,-4.4895,-4.4367,-4.4744,-4.4593,-4.4091,-4.4468,-4.4192,-4.3514,-4.3338,-4.3263,-4.3237,-4.3037,-4.2986,-4.2986,0.0,0.0,0.0,0.0,0.0,0.0,-3.5583,-3.5508,-3.5483,-3.5483,-3.6483,-3.7387,-3.7914,-3.8994,-3.9697,-3.9697,-3.9697,-3.922,-3.8115,-3.8483,-3.8168,-3.681,-3.8092,-3.9241,-4.0134,-4.064,-4.1014,-4.1275,-4.1326,-4.1326,-4.1326,-4.1376,-4.1376,-4.1376,-4.1376,-4.1351,-4.1351,-4.1326,-4.0752,-3.9672,-3.8542,-3.7437,-3.638,0.0,0.0,0.0,0.0,0.0,0.0,0.0,0.0,0.0,0.0,0.0,0.0,0.0,0.0,0.0,0.0,0.0,0.0,0.0,0.0,0.0,0.0,0.0,0.0,0.0,0.0,0.0,0.0,0.0,0.0,0.0,0.0,0.0,-3.9019,-3.9898,-4.0777,-4.1275,-4.1856,-4.2464,-4.2961,-4.3011,-4.3011,-4.3037,-4.3514,-4.3815,-4.3815,-4.4317,-4.4593,-4.4593,-4.4644,-4.4644,-4.4644,-4.4694,-4.502,-4.5573,-4.5573,-4.5849,-4.6351,-4.6351,-4.5472,-4.3991,-4.5095,-4.4644,-4.3212,-4.4292,-4.4719,-4.4669,-4.4066,-4.3815,-4.3765,-4.3212,-4.3037,-4.3037,0.0,0.0,0.0,0.0,0.0,0.0,-3.5583,-3.5508,-3.5357,-3.4956,-3.6257,-3.7236,-3.7387,-3.8768,-3.9697,-3.9697,-3.9697,-3.9396,-3.8668,-3.8564,-3.8428,-3.8219,-3.8785,-3.9626,-4.064,-4.1011,-4.1257,-4.1275,-4.2133,-4.2534,-4.2534,-4.3338,-4.3658,-4.3714,-4.3313,-4.3112,-4.3062,-4.2283,-4.1756,-4.1433,-4.0275,-3.917,-3.819,0.0,0.0,0.0,0.0,0.0,0.0,0.0,0.0,0.0,0.0,0.0,0.0,0.0,0.0,0.0,0.0,0.0,0.0,0.0,0.0,0.0,0.0,0.0,0.0,0.0,0.0,0.0,0.0,0.0,0.0,0.0,-4.0852,-4.1279,-4.0727,-4.1254,-4.1907,-4.2459,-4.266,-4.2961,-4.3514,-4.3589,-4.374,-4.4141,-4.4317,-4.4392,-4.4392,-4.4166,-4.4016,-4.4016,-4.4819,-4.5246,-4.5246,-4.6426,-4.7079,-4.723,-4.723,-4.733,-4.7481,-4.7481,-4.723,-4.6803,-4.7104,-4.6979,-4.6577,-4.6878,-4.7004,-4.6828,-4.507,-4.4392,-4.4367,-4.4217,-4.4166,-4.4066,0.0,0.0,0.0,0.0,0.0,0.0,-3.5931,-3.5881,-3.5855,-3.5755,-3.6784,-3.7613,-3.7864,-3.8969,-3.9697,-3.9697,-3.9697,-3.9371,-3.8567,-3.8339,-3.8588,-3.9318,-3.9829,-4.0509,-4.1417,-4.181,-4.2133,-4.2359,-4.2785,-4.3087,-4.3338,-4.374,-4.394,-4.3915,-4.3589,-4.3463,-4.3438,-4.3011,-4.271,-4.2489,-4.1806,-4.0475,-3.8919,-3.8919,-3.8366,-3.7688,-3.7791,-3.7742,-3.7618,-3.7816,0.0,0.0,0.0,0.0,0.0,0.0,0.0,0.0,0.0,0.0,0.0,0.0,0.0,0.0,0.0,0.0,0.0,0.0,0.0,0.0,0.0,0.0,0.0,0.0,-4.158,-4.2187,-4.2032,-4.2308,-4.271,-4.3263,-4.3313,-4.3539,-4.4091,-4.4141,-4.4392,-4.4945,-4.5196,-4.5422,-4.5673,-4.5573,-4.5321,-4.4869,-4.5924,-4.6276,-4.5824,-4.7205,-4.8033,-4.8259,-4.851,-4.8611,-4.8636,-4.8862,-4.846,-4.7606,-4.8083,-4.7883,-4.728,-4.7732,-4.7908,-4.7757,0.0,0.0,0.0,0.0,-4.4618,-4.4543,0.0,0.0,0.0,0.0,0.0,0.0,-3.6505,-3.6455,-3.6606,-3.7111,-3.7663,-3.8241,-3.8818,-3.9371,-3.9697,-3.9697,-3.9647,-3.917,-3.8165,-3.804,-3.8667,-4.0158,-4.0933,-4.163,-4.2288,-4.2841,-4.3288,-4.3714,-4.3338,-4.3388,-4.379,-4.3363,-4.3162,-4.3162,-4.3162,-4.3162,-4.3187,-4.3614,-4.3514,-4.3062,-4.3011,-4.1559,-3.932,-3.927,-3.8617,-3.7865,-3.8116,-3.8139,-3.8138,-3.8917,0.0,0.0,0.0,0.0,0.0,0.0,0.0,0.0,0.0,0.0,0.0,0.0,0.0,0.0,0.0,0.0,0.0,0.0,0.0,0.0,0.0,0.0,0.0,0.0,-4.1932,-4.2564,-4.3011,-4.3112,-4.3313,-4.374,-4.3865,-4.4141,-4.4744,-4.4819,-4.507,-4.5723,-4.6225,-4.6702,-4.7143,-4.7606,0.0,0.0,0.0,-4.7581,-4.6677,-4.7757,-4.8535,-4.9063,-4.954,-4.9791,-4.9816,-5.0293,-4.9439,-4.7657,-4.8636,-4.8234,-4.6954,-4.7883,-4.8259,-4.8134,-4.7481,-4.6928,-4.6351,-4.5221,-4.4895,-4.497,0.0,0.0,0.0,0.0,0.0,0.0,-3.7036,-3.6707,-3.6606,-3.7111,-3.7663,-3.8241,-3.8818,-3.9371,-3.9697,-3.9697,-3.9295,-3.8944,-3.8718,-3.8266,-3.8919,-4.0981,-4.1229,-4.1806,-4.2785,-4.3363,-4.3489,-4.3137,-4.3915,-4.4141,-4.3815,-4.4141,-4.4292,-4.4292,-4.4292,-4.4292,-4.4292,-4.394,-4.374,-4.3614,-4.3162,-4.266,-4.2133,-4.1409,-4.1275,-4.1529,-4.1818,-4.1458,-4.0912,-4.1334,-4.1288,-4.1172,-4.1752,-4.1177,0.0,0.0,0.0,0.0,0.0,0.0,0.0,0.0,0.0,0.0,0.0,0.0,0.0,0.0,0.0,0.0,0.0,0.0,0.0,-4.2037,-4.2836,-4.3514,-4.3639,-4.4016,-4.4192,-4.384,-4.4192,-4.4869,-4.5899,-4.5974,-4.6376,-4.7355,-4.7531,-4.7657,-4.7757,-4.7456,-4.738,-4.7581,-4.8259,-4.8711,-4.8962,-5.0067,-5.0695,-5.0795,-5.0896,0.0,-5.0946,-5.1071,-5.087,-5.0494,-5.0695,-5.0619,-5.0343,-5.0544,-5.0368,-4.9791,-4.8335,-4.7682,-4.7481,-4.6376,-4.6527,-4.7154,0.0,0.0,0.0,0.0,0.0,0.0,-3.7186,-3.6757,-3.6505,-3.6782,-3.7262,-3.7814,-3.8391,-3.8693,-3.8969,-3.9245,-3.8768,-3.8667,-3.917,-3.9196,-3.9998,-4.1681,-4.2007,-4.2409,-4.2961,-4.3514,-4.3664,-4.3388,-4.394,-4.4066,-4.379,-4.379,-4.379,-4.379,-4.379,-4.379,-4.379,-4.379,-4.379,-4.379,-4.379,-4.379,-4.3658,-4.2526,-4.2282,-4.2554,-4.2718,-4.2625,-4.2575,-4.2856,-4.2674,-4.2477,-4.3318,-4.2713,-4.1799,0.0,0.0,0.0,0.0,0.0,0.0,0.0,0.0,0.0,0.0,0.0,0.0,0.0,0.0,-4.1383,-4.1625,0.0,-4.2313,-4.259,-4.3263,-4.389,-4.4166,-4.4945,-4.5372,-4.5095,-4.5296,-4.5899,-4.7004,-4.7104,-4.7456,-4.8284,-4.8586,-4.8862,-4.9138,-4.9464,-4.949,-4.9163,-5.0268,-5.0569,-5.0017,-5.1122,-5.1548,-5.1272,-5.1548,-5.1548,-5.1297,-5.1574,-5.1548,-5.1272,-5.1272,-5.1272,-5.1272,-5.1272,-5.1096,-5.0745,-4.9615,-4.8812,-4.8234,-4.7405,-4.7456,-4.7832,0.0,0.0,0.0,0.0,0.0,0.0,0.0,-3.6832,-3.6455,-3.6556,-3.6958,-3.7387,-3.7939,-3.8015,-3.814,-3.8517,-3.8115,-3.8314,-3.9448,-4.0156,-4.1053,-4.2313,-4.2791,-4.2986,-4.2986,-4.3614,-4.3915,-4.379,-4.3915,-4.3915,-4.379,-4.3237,-4.2986,-4.2986,-4.2986,-4.2986,-4.3011,-4.3463,-4.3639,-4.3689,-4.4367,-4.4493,-4.4184,-4.3255,-4.2793,-4.27,-4.2805,-4.2961,-4.3184,-4.3598,-4.3482,-4.3336,-4.4369,-4.398,-4.3162,-4.3099,-4.2936,0.0,0.0,0.0,0.0,0.0,0.0,0.0,0.0,-4.2202,-4.2144,-4.2123,-4.1932,-4.1951,-4.235,-4.2486,-4.2715,-4.3212,-4.3865,-4.4443,-4.4895,-4.5924,-4.6652,-4.6778,-4.6677,-4.7004,-4.7983,-4.8184,-4.8485,-4.9063,-4.9715,-5.0268,-5.072,-5.1724,-5.185,-5.0946,-5.2226,-5.2277,-5.0921,-5.18,-5.2051,-5.1599,-5.2051,-5.2026,-5.1624,-5.2076,-5.2026,-5.1599,-5.1599,-5.1599,-5.1599,-5.1498,-5.1448,-5.1398,-5.082,-5.0042,-4.9188,-4.8485,-4.8234,-4.8234,0.0,0.0,0.0,0.0,0.0,0.0,0.0,0.0,-3.6581,-3.7036,-3.7136,-3.7387,-3.7939,-3.8015,-3.7839,-3.7412,-3.7312,-3.7989,-3.9599,-4.0174,-4.1229,-4.2811,-4.2936,-4.2986,-4.2986,-4.3991,-4.4292,-4.379,-4.4292,-4.4292,-4.379,-4.3237,-4.2986,-4.2986,-4.2986,-4.2986,-4.2986,-4.3037,-4.3062,-4.3162,-4.4192,-4.4041,-4.3263,-4.4059,-4.3771,-4.2962,-4.3806,-4.3321,-4.2312,-4.293,-4.3381,-4.3713,-4.3371,-4.3487,-4.3807,-4.3778,-4.3381,-4.2933,-4.2627,-4.1794,-4.0875,-4.0134,-4.0661,-4.1304,0.0,-4.2246,-4.3325,-4.2377,-4.2954,-4.3628,-4.3607,-4.362,-4.379,-4.4342,-4.5347,-4.605,-4.6125,-4.7054,-4.7933,-4.8435,-4.8033,-4.7983,-4.8611,-4.9113,-4.964,-5.0193,-5.1222,-5.185,-5.1925,-5.2503,-5.2779,-5.2653,-5.2829,-5.2829,-5.2653,-5.2779,-5.2804,-5.2754,-5.2804,-5.2804,-5.2754,-5.2804,-5.2804,-5.2754,-5.2754,-5.2754,-5.2703,-5.2226,-5.2026,-5.195,-5.1398,-5.1122,-5.087,-4.9791,-4.9414,-4.9414,0.0,0.0,0.0,0.0,0.0,0.0,0.0,0.0,0.0,-3.7161,-3.6958,-3.6958,-3.7462,-3.7538,-3.7283,-3.6684,-3.6953,-3.7911,-3.9449,-4.0179,-4.1254,-4.2911,-4.2793,-4.2681,-4.2681,-4.3455,-4.3696,-4.33,-4.4194,-4.4227,-4.3505,-4.345,-4.3288,-4.2986,-4.2986,-4.3209,-4.3487,-4.3154,-4.3386,-4.3995,-4.4308,-4.4352,-4.4225,-4.4548,-4.4219,-4.3633,-4.3585,-4.3361,0.0,-4.3416,-4.3687,-4.3924,-4.4156,-4.4064,-4.3929,-4.4087,-4.3591,-4.2916,-4.2424,-4.2189,-4.195,-4.1218,-4.1911,-4.2612,-4.1842,-4.2911,-4.3716,-4.2407,-4.3199,-4.399,-4.3676,-4.3951,-4.4568,-4.5472,-4.5999,-4.6527,-4.7154,-4.7908,-4.8611,-4.9188,-4.8761,-4.851,-4.8736,-4.9866,-5.0544,-5.0419,-5.2051,-5.2904,-5.2603,-5.3406,-5.3733,-5.3381,-5.3708,-5.3708,-5.3381,-5.3381,-5.3231,-5.2929,-5.2929,-5.2929,-5.2929,-5.2929,-5.2929,-5.2929,-5.2929,-5.2929,-5.2904,-5.2678,-5.2578,-5.2528,-5.1975,-5.1749,-5.1674,-5.087,-5.0368,-5.0067,0.0,0.0,0.0,0.0,0.0,0.0,0.0,0.0,0.0,0.0,-3.6935,-3.6732,-3.6935,-3.6835,-3.66,-3.6294,-3.6672,-3.7709,-3.9423,-4.0129,-4.1254,-4.2911,-4.2706,-4.2513,-4.2513,-4.3084,-4.3268,-4.3037,-4.3929,-4.4152,-4.3672,-4.3751,-4.3664,-4.3438,-4.3438,-4.3664,-4.4082,-4.3607,-4.3903,-4.4551,-4.4542,-4.4529,-4.4567,-4.4724,-4.4235,-4.3457,-4.3179,-4.3325,-4.362,-4.3464,-4.3623,-4.3937,-4.418,-4.4084,-4.3938,-4.3931,-4.3413,-4.271,-4.2422,-4.2442,-4.2511,-4.2384,-4.2874,-4.3309,-4.288,-4.37,-4.4215,-4.3044,-4.3947,-4.4775,-4.4414,-4.4835,-4.5574,-4.6617,-4.6899,-4.7255,-4.8033,-4.8761,-4.9264,-4.9364,-4.9289,-4.9038,-4.8586,-5.0193,-5.1297,-5.1322,-5.2955,-5.3783,-5.3406,-5.4135,-5.4285,-5.3708,-5.411,-5.4059,-5.3507,-5.3482,-5.3306,-5.2929,-5.2929,-5.2929,-5.2929,-5.2929,-5.2929,-5.2929,-5.2929,-5.2929,-5.2929,-5.2929,-5.2929,-5.2879,-5.2477,-5.2327,-5.2277,-5.1875,-5.1272,-5.067,0.0,0.0,0.0,0.0,0.0,0.0,0.0,0.0,0.0,0.0,0.0,0.0,0.0,-3.5906,-3.5805,-3.6329,-3.6405,-3.736,-3.9573,-4.0199,-4.1254,-4.2911,-4.2706,-4.2513,-4.2513,-4.3084,-4.3382,-4.3382,-4.3669,-4.4091,-4.4535,-4.4041,-4.4091,-4.4568,-4.4568,-4.4568,-4.4568,-4.4568,-4.4464,-4.437,-4.4819,-4.4236,-4.3193,-4.451,-4.363,-4.1938,-4.3012,-4.3218,-4.2926,-4.2362,-4.2914,-4.3728,-4.2547,-4.2993,-4.3781,-4.3232,-4.2657,-4.2317,-4.2814,-4.219,-4.1619,-4.2693,-4.2595,-4.2418,-4.3224,-4.4258,-4.4978,-4.4668,-4.5581,-4.6517,-4.6751,-4.6762,-4.7052,-4.7914,-4.8418,-4.8711,-4.8736,-4.969,-4.9967,-4.8912,-4.9715,-4.9715,-4.8083,-4.9967,-5.1925,-5.3482,-5.4185,-5.4607,-5.4511,-5.4536,-5.4285,-5.3708,-5.3708,-5.3482,-5.2955,-5.2955,-5.2955,-5.2929,-5.2929,-5.2929,-5.2929,-5.2929,-5.2929,-5.2929,-5.2929,-5.2929,-5.2929,-5.2929,-5.2929,-5.2929,-5.2904,-5.2904,-5.2904,-5.2879,-5.2176,-5.1247,0.0,0.0,0.0,0.0,0.0,0.0,0.0,0.0,0.0,0.0,0.0,0.0,0.0,0.0,0.0,0.0,-3.6405,-3.7033,-3.8492,-3.9446,-4.0551,-4.1831,-4.2109,-4.2312,-4.2513,-4.251,-4.2725,-4.3095,-4.3587,-4.3776,-4.3721,-4.3776,-4.3714,-4.3539,-4.3539,-4.3765,-4.4102,-4.3908,-4.4066,-4.4525,-4.4351,-4.4224,-4.4026,-4.3153,-4.2716,-4.2474,0.0,-4.1595,-4.1905,-4.2112,-4.2424,-4.2762,-4.2684,-4.2736,-4.2759,-4.2861,-4.2799,-4.2838,-4.3341,-4.2944,-4.2541,-4.2926,-4.3201,-4.339,-4.3613,-4.4566,-4.5326,-4.4783,-4.5776,-4.6642,-4.636,-4.6577,-4.7145,-4.8121,-4.7966,-4.8058,-4.9163,-4.8987,-4.9314,-5.0795,-5.0318,-5.0519,-5.2151,-5.2026,-5.19,-5.2076,-5.3632,-5.4411,-5.4009,-5.3984,-5.3758,-5.3206,-5.3181,-5.3105,-5.2929,-5.2929,-5.2929,-5.2929,-5.2929,-5.2929,-5.2929,-5.2929,-5.2929,-5.2929,-5.2929,-5.2929,-5.2929,-5.2929,-5.2929,-5.2929,-5.2929,-5.2929,-5.2929,-5.2929,-5.2678,-5.2327,0.0,0.0,0.0,0.0,0.0,0.0,0.0,0.0,0.0,0.0,0.0,0.0,0.0,0.0,0.0,0.0,0.0,-3.6883,-3.7939,-3.8693,-3.9597,-4.0701,-4.0943,-4.1205,-4.1454,-4.1403,-4.1676,-4.2276,-4.2899,-4.3313,-4.3489,-4.3714,-4.3714,-4.3564,-4.3564,-4.379,-4.4153,-4.3903,-4.4275,-4.4925,-4.4015,-4.3811,-4.3896,-4.2279,-4.1595,0.0,-4.0898,-4.0737,-4.0827,-4.1611,-4.2004,-4.2186,-4.2369,-4.2389,-4.2525,-4.3219,-4.3625,-4.3983,-4.471,-4.4423,-4.4097,-4.4917,-4.483,-4.4642,-4.5214,-4.5831,-4.6117,-4.5713,-4.6721,-4.7561,-4.7037,-4.7452,-4.8137,-4.8794,-4.8702,-4.89,-4.9909,-4.9985,-5.0348,-5.1649,-5.1197,-5.1473,-5.3231,-5.2603,-5.2126,-5.2151,-5.3281,-5.3808,-5.3432,-5.3231,-5.308,-5.2929,-5.2929,-5.2929,-5.2929,-5.2929,-5.2929,-5.2929,-5.2929,-5.2929,-5.2929,-5.2929,-5.2703,-5.2352,-5.2754,-5.2703,-5.2377,-5.2754,-5.2929,-5.2929,-5.2929,-5.2929,-5.2929,-5.2929,-5.2929,-5.2879,0.0,0.0,0.0,0.0,0.0,0.0,0.0,0.0,0.0,0.0,0.0,0.0,0.0,0.0,0.0,0.0,0.0,0.0,-3.7864,-3.7965,-3.8492,-3.9572,-3.9337,-3.9362,-3.9647,-3.9912,-4.045,-4.1208,-4.1828,-4.2612,-4.364,-4.3619,-4.3865,-4.431,-4.4367,-4.4392,-4.436,-4.4418,-4.4846,-4.5309,-4.3736,-4.3085,-4.2851,-4.1879,-4.0386,-3.9028,-4.0655,-4.0566,-3.9834,-4.0932,-4.174,-4.2184,-4.166,-4.2145,-4.3188,-4.4375,-4.5038,-4.5673,-4.6799,-4.6394,-4.6219,-4.8434,-4.7403,-4.6291,-4.7947,-4.7849,-4.7393,-4.7419,-4.8283,-4.8944,-4.8685,-4.9213,-4.9766,-4.9845,-5.0477,-5.0933,-5.0879,-5.2311,-5.2835,-5.1515,-5.2277,-5.2528,-5.1498,-5.1875,-5.2578,-5.3557,-5.3181,-5.2929,-5.2929,-5.2427,-5.2377,-5.2904,-5.2929,-5.2929,-5.2929,-5.2929,-5.2929,-5.2929,-5.2929,-5.2929,-5.2929,-5.2929,-5.2352,-5.1423,-5.2477,-5.2327,-5.1448,-5.2503,-5.2929,-5.2929,-5.2929,-5.2929,-5.2929,-5.2929,-5.2929,-5.2929,0.0,0.0,0.0,0.0,0.0,0.0,0.0,0.0,0.0,0.0,0.0,0.0,0.0,0.0,0.0,0.0,0.0,0.0,-3.6832,-3.7563,-3.814,-3.8417,-3.9322,-3.9929,-4.0211,-4.0056,-4.0389,-4.1154,-4.0797,-4.0845,-4.1285,-4.1491,-4.1225,-4.0686,-4.1246,-4.1367,-4.1284,-4.1932,-4.2537,-4.2951,-4.2365,-4.2189,-4.219,-4.0896,-4.0247,-4.0031,-4.0491,-4.0461,-4.0331,-4.1063,-4.2216,-4.3421,-4.3691,-4.4519,-4.5489,-4.6092,-4.6432,-4.6756,-4.7339,-4.7801,-4.8247,-4.8864,-4.8921,-4.9105,-4.9902,-4.9392,-4.8749,-4.918,-4.8466,-4.7728,-4.7655,-4.769,-4.7983,-4.9053,-4.9116,-4.9441,-5.0563,-5.0977,-5.1405,-5.1825,-5.2503,-5.298,-5.308,-5.3206,-5.308,-5.2553,-5.2779,-5.2929,-5.2929,-5.2804,-5.2779,-5.2929,-5.2929,-5.2929,-5.2929,-5.2929,-5.2929,-5.2929,-5.2929,-5.2929,-5.2929,-5.2929,-5.2779,-5.2528,-5.2804,-5.2779,-5.2528,-5.2804,-5.2929,-5.2929,-5.2929,-5.2929,-5.2929,-5.2929,-5.2929,-5.2929,0.0,0.0,0.0,0.0,0.0,0.0,0.0,0.0,0.0,0.0,0.0,0.0,0.0,0.0,0.0,0.0,0.0,0.0,0.0,-3.7437,-3.7638,-3.7638,-3.8163,-3.8661,-3.9102,-3.889,-3.9137,-3.9852,-3.9897,-3.9853,-3.9722,-4.0436,-4.044,-3.9826,-4.0313,-4.0543,-4.054,-4.1105,-4.1801,0.0,0.0,-4.1487,-4.213,-4.0331,-3.9942,-4.0461,-4.0723,-4.0984,-4.1324,-4.216,-4.3054,-4.3927,-4.4769,-4.5922,-4.711,-4.7814,-4.8209,-4.8576,-4.904,-4.9426,-4.9874,-5.0666,-5.0572,-5.046,-5.0744,-4.9912,-4.8976,-4.8498,-4.7819,-4.7278,-4.7278,-4.7487,-4.8094,-4.9422,-4.9741,-5.0098,-5.1036,-5.1503,-5.1951,-5.2402,-5.2729,-5.313,-5.3658,-5.3507,-5.3105,-5.2503,-5.2528,-5.2578,-5.2578,-5.2578,-5.2779,-5.3256,-5.3256,-5.3256,-5.3256,-5.303,-5.2929,-5.2929,-5.2929,-5.2929,-5.2929,-5.2929,-5.2653,-5.2226,-5.2729,-5.2653,-5.2251,-5.2729,-5.2929,-5.2929,-5.2929,-5.2929,-5.2929,-5.2929,-5.2929,-5.2929,0.0,0.0,0.0,0.0,0.0,0.0,0.0,0.0,0.0,0.0,0.0,0.0,0.0,0.0,0.0,0.0,0.0,0.0,0.0,0.0,-3.7262,-3.7186,-3.683,-3.6908,-3.7516,-3.7413,-3.7698,-3.8364,-3.9058,-3.9107,-3.8595,-3.9866,-4.023,-3.9828,-4.023,-4.0508,-4.0713,-4.0849,-4.1698,-4.2783,-4.0887,-4.0961,-4.204,0.0,-3.9817,-4.0618,-4.1298,-4.1873,-4.2499,-4.3572,-4.4008,-4.4338,-4.5489,-4.694,-4.8424,-4.9397,-5.0017,-5.0435,-5.105,-5.1069,-5.1306,-5.2949,-5.234,-5.1314,-5.1155,-5.0184,-4.8896,-4.7268,-4.7031,-4.7179,-4.7414,-4.8037,-4.8927,-5.0148,-5.0961,-5.1528,-5.1817,-5.2777,-5.3291,-5.2866,-5.2779,-5.303,-5.3557,-5.3055,-5.2779,-5.2929,-5.2553,-5.2327,-5.2327,-5.2327,-5.2779,-5.3783,-5.3808,-5.3808,-5.3808,-5.3306,-5.303,-5.303,-5.2955,-5.2929,-5.2929,-5.2929,-5.2402,-5.1548,-5.2528,-5.2377,-5.1574,-5.2528,-5.2929,-5.2929,-5.2929,-5.2929,-5.2929,-5.2929,-5.2929,-5.2929,0.0,0.0,0.0,0.0,0.0,0.0,0.0,0.0,0.0,0.0,-3.8592,-3.8291,0.0,0.0,0.0,0.0,0.0,0.0,0.0,0.0,0.0,-3.7211,-3.747,-3.7705,-3.78,-3.8019,-3.8256,-3.8647,-3.8394,-3.798,-3.739,-3.8251,-3.7981,-3.6816,-3.7861,-3.8519,-3.8909,-3.9355,-4.0207,-4.1221,-4.0811,-4.057,-4.043,-4.0241,0.0,0.0,-4.2343,-4.2788,-4.2971,-4.365,-4.4762,-4.6049,-4.7231,-4.896,-5.053,-5.0203,-5.0504,-5.1079,-5.1199,-5.1954,-5.2949,-5.3813,-5.4241,-5.4208,-5.3187,-5.1676,-5.0294,-4.9493,-4.7463,-4.6369,-4.778,-4.7786,-4.809,-4.9775,-5.0454,-5.1016,-5.1654,-5.2462,-5.2851,-5.245,-5.2287,-5.2452,-5.3005,-5.2151,-5.195,-5.2854,-5.3231,-5.3432,-5.3432,-5.3432,-5.3733,-5.4386,-5.4411,-5.4411,-5.4411,-5.3858,-5.3557,-5.3557,-5.313,-5.2929,-5.2929,-5.2929,-5.2829,-5.2653,-5.2854,-5.2829,-5.2653,-5.2854,-5.2929,-5.2929,-5.2929,-5.2929,-5.2929,-5.2929,-5.2929,-5.2929,0.0,0.0,0.0,0.0,0.0,0.0,0.0,0.0,-3.8818,-3.8467,-3.7939,-3.7688,-3.7965,-3.8015,0.0,0.0,0.0,0.0,0.0,0.0,0.0,-3.8114,-3.8009,-3.8197,-3.8774,-3.8082,-3.7895,-3.8266,0.0,-3.7814,-3.676,-3.8069,-3.8059,-3.7048,-3.8033,-3.8579,-3.8795,-3.9225,-3.9847,-4.0494,-3.9965,-3.9991,-4.0408,0.0,0.0,0.0,-4.3493,-4.3729,-4.3599,-4.4387,-4.5237,-4.614,-4.7533,-4.9092,-5.0342,-5.0236,-5.0644,-5.1229,-5.1229,-5.2187,-5.3354,-5.4042,-5.47,-5.4565,-5.2156,-5.097,-4.9872,-4.802,-4.655,-4.6055,-4.7492,-4.7519,-4.7922,-4.9923,-5.0659,-5.1355,-5.2262,-5.2719,-5.2808,-5.2685,-5.2329,-5.2201,-5.2477,-5.2026,-5.2051,-5.2879,-5.3155,-5.3406,-5.3683,-5.426,-5.4712,-5.4988,-5.4988,-5.4988,-5.4988,-5.4436,-5.4009,-5.3708,-5.3457,-5.3181,-5.2929,-5.2929,-5.2929,-5.2929,-5.2929,-5.2603,-5.2126,-5.2678,-5.2578,-5.2126,-5.2703,-5.2929,-5.2929,-5.2929,-5.2929,-5.2929,0.0,0.0,0.0,0.0,0.0,0.0,0.0,-3.8768,-3.8492,-3.7914,-3.7337,-3.7186,-3.7613,-3.7764,-3.8015,0.0,0.0,0.0,0.0,0.0,0.0,0.0,0.0,0.0,-3.921,0.0,0.0,-3.7842,-3.8272,0.0,0.0,0.0,0.0,0.0,-3.882,-3.9207,-3.9223,-3.9621,-3.9996,0.0,0.0,-3.9878,0.0,0.0,0.0,0.0,0.0,-4.4434,-4.4202,-4.4967,-4.5437,-4.5929,-4.7303,-4.8545,-4.9543,-5.0216,-5.0764,-5.1289,-5.1558,-5.2486,-5.3563,-5.4251,-5.482,-5.4345,-5.0929,-5.0065,-4.9236,-4.6528,-4.5738,-4.6055,-4.744,-4.7597,-4.81,-5.0082,-5.0841,-5.16,-5.2843,-5.2836,-5.2835,-5.3284,-5.2514,-5.2026,-5.2251,-5.2176,-5.2377,-5.303,-5.3331,-5.3632,-5.4034,-5.5013,-5.5566,-5.5566,-5.5566,-5.5566,-5.5566,-5.5013,-5.4511,-5.4059,-5.3808,-5.3482,-5.308,-5.298,-5.2929,-5.2929,-5.2929,-5.2302,-5.1373,-5.2477,-5.2277,-5.1398,-5.2503,-5.2929,-5.2929,-5.2929,-5.2929,-5.2929,0.0,0.0,0.0,0.0,0.0,0.0,0.0,-3.8417,-3.7889,-3.7337,-3.6832,-3.6505,-3.6556,-3.696,-3.7287,0.0,0.0,0.0,0.0,0.0,0.0,0.0,0.0,0.0,0.0,0.0,0.0,-3.7642,-3.7655,0.0,0.0,0.0,0.0,0.0,0.0,-3.9589,-3.9666,-4.021,0.0,0.0,0.0,0.0,0.0,0.0,0.0,0.0,0.0,-4.4696,-4.4643,-4.4752,-4.5475,-4.6419,-4.6918,-4.784,-4.9018,-5.0602,-5.1169,-5.1468,-5.2665,-5.3533,-5.4281,-5.494,-5.5149,-5.4412,-5.1445,-5.0375,-4.9459,-4.7559,-4.6286,-4.629,-4.8512,-4.8486,-4.8629,-5.0134,-5.0411,-5.1038,-5.2826,-5.24,-5.2414,-5.3843,-5.2425,-5.1749,-5.2754,-5.2402,-5.2528,-5.3557,-5.4587,-5.5189,-5.5239,-5.5817,-5.6143,-5.6143,-5.6143,-5.6143,-5.6143,-5.5591,-5.529,-5.5214,-5.4185,-5.3683,-5.3607,-5.313,-5.2929,-5.2929,-5.2929,-5.2302,-5.1373,-5.2477,-5.2277,-5.1398,-5.2503,-5.2929,-5.2929,-5.2929,-5.2929,-5.2929,0.0,0.0,0.0,0.0,0.0,0.0,0.0,-3.8668,-3.8316,-3.7764,-3.7487,-3.7337,-3.7337,-3.7864,-3.8065,0.0,0.0,0.0,0.0,0.0,0.0,0.0,0.0,0.0,0.0,0.0,-3.8742,-3.8892,-3.8688,0.0,0.0,0.0,0.0,0.0,0.0,-3.9612,-3.9196,-3.9943,0.0,0.0,0.0,0.0,0.0,0.0,0.0,0.0,0.0,0.0,-4.4671,-4.4625,-4.5119,-4.5926,-4.6668,-4.7145,-4.7777,-4.9548,-5.087,-5.1917,-5.2456,-5.3384,-5.4371,-5.5029,-5.4641,-5.3442,-5.0914,-4.9593,-4.8435,-4.6652,-4.6212,-4.6525,-4.778,-4.812,-4.8518,-4.9449,-5.0288,-5.1304,-5.2819,-5.3101,-5.3449,-5.4256,-5.3324,-5.2573,-5.2427,-5.2528,-5.3055,-5.4135,-5.4637,-5.5189,-5.5842,-5.6093,-5.6219,-5.6219,-5.6219,-5.6219,-5.6219,-5.5993,-5.5717,-5.539,-5.4587,-5.4034,-5.3683,-5.3155,-5.2929,-5.2929,-5.2929,-5.1925,-5.0393,-5.2176,-5.1875,-5.0444,-5.2226,-5.2929,-5.2929,-5.2929,-5.2929,-5.2929,0.0,0.0,0.0,0.0,0.0,-3.9496,-3.8994,-3.8718,-3.8417,-3.7839,-3.7613,-3.7588,-3.7739,-3.8266,-3.8517,-3.8291,0.0,0.0,0.0,0.0,0.0,0.0,0.0,0.0,0.0,0.0,-3.902,-3.9296,-3.9018,-3.8743,0.0,0.0,-3.8691,-3.8275,0.0,0.0,0.0,0.0,0.0,0.0,0.0,0.0,0.0,0.0,0.0,0.0,0.0,0.0,0.0,0.0,0.0,-4.552,-4.5974,-4.6328,-4.6986,-4.8981,-5.0661,-5.2007,-5.2396,-5.3473,-5.461,-5.5089,-5.4156,-5.2573,-5.0469,-4.8969,-4.7514,-4.591,-4.6081,-4.6656,-4.7174,-4.7806,-4.8381,-4.8982,-5.0315,-5.1627,-5.2612,-5.3387,-5.3942,-5.4051,-5.347,-5.2858,-5.2466,-5.3161,-5.4034,-5.4988,-5.5039,-5.539,-5.6168,-5.6219,-5.6219,-5.6219,-5.6219,-5.6219,-5.6219,-5.6219,-5.6018,-5.5616,-5.4913,-5.4185,-5.3457,-5.308,-5.2754,-5.2452,-5.2779,-5.185,-5.0243,-5.2151,-5.18,-5.0293,-5.2176,-5.2929,-5.2929,-5.2929,-5.2929,-5.2929,0.0,0.0,0.0,0.0,0.0,0.0,0.0,-3.8391,-3.7814,-3.7262,-3.6757,-3.6631,-3.7136,-3.7688,-3.8241,-3.8869,0.0,0.0,0.0,0.0,0.0,0.0,0.0,0.0,0.0,0.0,-3.8742,-3.8413,-3.8116,-3.829,-3.8764,-3.8508,-3.8557,-3.8841,0.0,0.0,0.0,0.0,0.0,0.0,0.0,0.0,0.0,0.0,0.0,0.0,0.0,0.0,0.0,0.0,0.0,0.0,0.0,-4.5327,-4.6832,-4.9449,-5.0644,-5.1498,-5.2815,-5.4162,-5.5179,-5.5179,-5.3883,-5.2156,-5.0408,-4.8636,-4.7055,-4.5831,-4.6081,-4.6656,-4.7174,-4.7806,-4.8381,-4.8982,-5.0498,-5.1747,-5.2173,-5.31,-5.355,-5.3192,-5.2455,-5.2298,-5.3118,-5.4498,-5.5591,-5.6143,-5.6194,-5.6194,-5.6219,-5.6219,-5.6219,-5.6219,-5.6219,-5.6219,-5.6219,-5.6219,-5.6219,-5.6194,-5.5089,-5.4009,-5.2929,-5.2929,-5.2327,-5.1348,-5.2452,-5.2302,-5.1348,-5.2477,-5.2277,-5.1373,-5.2503,-5.2929,-5.2929,-5.2929,-5.2929,-5.2929,0.0,0.0,0.0,0.0,0.0,0.0,0.0,-3.8944,-3.8542,-3.8366,-3.824,-3.819,-3.8366,-3.8843,-3.9245,-3.9421,0.0,0.0,0.0,0.0,0.0,0.0,0.0,0.0,0.0,0.0,-3.937,-3.9318,-3.8759,-3.86,-3.8788,-3.8564,-3.8355,-3.8291,-3.9025,-3.9129,0.0,0.0,0.0,0.0,0.0,0.0,-4.3912,0.0,0.0,0.0,0.0,0.0,0.0,0.0,0.0,0.0,0.0,0.0,0.0,-4.6489,-4.813,-4.9751,-5.0573,-5.1425,-5.2168,-5.2608,-5.1161,-4.9324,-4.8425,-4.7136,-4.5919,-4.5142,-4.5794,-4.6525,-4.6708,-4.7545,-4.8381,-4.8982,-5.0498,-5.1816,-5.236,-5.3256,-5.3849,-5.3715,-5.3366,-5.3412,-5.4094,-5.419,-5.4787,-5.6118,-5.5516,-5.5415,-5.6168,-5.6219,-5.6219,-5.6219,-5.6219,-5.6219,-5.6219,-5.6219,-5.6219,-5.6194,-5.5465,-5.4361,-5.2929,-5.3306,-5.2653,-5.1348,-5.2452,-5.2302,-5.1373,-5.2477,-5.2277,-5.1398,-5.2503,-5.2929,-5.2929,-5.2929,-5.2929,-5.2929,0.0,0.0,0.0,0.0,0.0,0.0,0.0,-3.922,-3.8919,-3.8919,-3.8668,-3.8617,-3.8894,-3.917,-3.9471,-3.9672,0.0,0.0,0.0,0.0,0.0,0.0,0.0,0.0,0.0,-3.9697,-3.9697,-3.9697,-3.9111,-3.8904,-3.8998,-3.8463,-3.8226,-3.8185,-3.8631,-3.8684,0.0,0.0,0.0,0.0,0.0,0.0,-4.3938,0.0,0.0,0.0,0.0,0.0,0.0,0.0,0.0,0.0,0.0,0.0,0.0,0.0,-4.5267,-4.686,-4.8382,-4.9379,-5.0126,-5.0529,-4.9274,-4.7811,-4.7457,-4.6275,-4.5111,-4.4746,-4.582,-4.6734,-4.6525,-4.7597,-4.8564,-4.8721,-5.0734,-5.2108,-5.1505,-5.2902,-5.3682,-5.2844,-5.3199,-5.3723,-5.4298,-5.4541,-5.5089,-5.6143,-5.5566,-5.5491,-5.6168,-5.6219,-5.6219,-5.6219,-5.6219,-5.6219,-5.6219,-5.6219,-5.6219,-5.6194,-5.5641,-5.4511,-5.2955,-5.3457,-5.2804,-5.1348,-5.2452,-5.2528,0.0,-5.2653,-5.2528,-5.1975,-5.2653,-5.2929,-5.2929,-5.2929,-5.2929,-5.2929,0.0,0.0,0.0,0.0,0.0,0.0,0.0,0.0,0.0,-3.8969,-3.8467,-3.8341,-3.8919,-3.8969,-3.9145,0.0,0.0,0.0,0.0,0.0,0.0,0.0,0.0,0.0,-3.9697,-3.9697,-3.9697,-3.9697,-3.917,-3.9042,-3.931,-3.8428,-3.8118,-3.8348,-3.8133,-3.8157,-3.8599,0.0,0.0,0.0,-4.3331,-4.3724,0.0,0.0,0.0,0.0,0.0,0.0,0.0,0.0,0.0,0.0,0.0,0.0,0.0,0.0,0.0,0.0,0.0,-4.7797,-4.8798,-4.8855,-4.803,-4.7188,-4.7188,-4.5901,0.0,-4.4826,-4.6186,-4.7179,-4.6682,-4.7989,-4.8956,-4.8355,-5.11,-5.249,-5.0113,-5.2112,-5.308,-5.0879,-5.2203,-5.3491,-5.3964,-5.5324,-5.6219,-5.6219,-5.6219,-5.6219,-5.6219,-5.6219,-5.6219,-5.6219,-5.6219,-5.6219,-5.6219,-5.6219,-5.6168,-5.6093,-5.5641,-5.4511,-5.2829,-5.3482,-5.2854,-5.1348,-5.2452,-5.2929,-5.2929,-5.2929,-5.2929,-5.2929,-5.2929,-5.2929,-5.2929,-5.2929,-5.2929,-5.2929,0.0,0.0,0.0,0.0,0.0,0.0,0.0,0.0,0.0,0.0,-3.9396,-3.9346,-3.9496,-3.9496,-3.9546,0.0,0.0,0.0,0.0,0.0,0.0,0.0,0.0,0.0,-3.9697,-3.9697,-3.9697,-3.9697,-3.934,-3.9237,-3.9258,-3.8613,-3.8132,-3.7761,-3.7964,-3.864,-3.9795,-4.1436,0.0,0.0,-4.4089,-4.4485,0.0,0.0,0.0,0.0,-4.3572,-4.3154,0.0,0.0,0.0,0.0,0.0,0.0,0.0,0.0,-4.1553,-4.1825,-4.2522,0.0,-4.5696,-4.624,-4.5845,-4.5338,0.0,-4.5043,-4.4983,-4.5872,-4.6734,-4.7414,-4.7728,-4.8826,-4.9531,-4.8956,-5.1021,-5.2152,-5.0575,-5.1616,-5.2,-5.0475,-5.269,-5.4094,-5.3793,-5.5243,-5.6219,-5.6219,-5.6219,-5.6219,-5.6219,-5.6219,-5.6219,-5.6219,-5.6219,-5.6219,-5.6219,-5.6219,-5.5792,-5.4963,-5.5666,-5.4486,-5.1724,-5.3532,-5.3231,-5.1348,-5.2452,-5.2929,-5.2929,-5.2929,-5.2929,-5.2929,-5.2929,-5.2929,-5.2929,-5.2929,-5.2929,-5.2929,0.0,0.0,0.0,0.0,0.0,0.0,0.0,0.0,0.0,0.0,0.0,0.0,0.0,0.0,0.0,0.0,0.0,0.0,0.0,0.0,0.0,0.0,0.0,-3.932,-3.932,-3.932,-3.932,-3.932,-3.9218,-3.924,-3.9465,-3.8893,-3.8432,-3.8164,-3.8065,-3.914,-4.1118,-4.1767,-4.2557,-4.3484,-4.4325,0.0,0.0,0.0,0.0,0.0,-4.3127,-4.2814,0.0,-4.3232,-4.2814,-4.216,0.0,0.0,0.0,0.0,-4.1324,-4.1324,-4.1324,-4.2541,-4.3982,-4.4647,-4.4705,-4.4746,-4.5033,-4.4931,-4.5062,-4.6238,-4.6944,-4.7492,-4.8068,-4.8904,-4.9584,-4.9819,-5.1126,-5.1996,-5.182,-5.187,-5.1641,-5.0829,-5.2685,-5.3993,-5.3708,-5.5071,-5.5999,-5.6219,-5.6072,-5.5999,-5.6219,-5.6219,-5.6219,-5.6219,-5.6219,-5.6219,-5.6219,-5.6219,-5.5666,-5.4587,-5.5691,-5.4863,-5.2452,-5.3909,-5.3783,-5.2377,-5.2226,-5.2452,-5.2879,-5.2377,-5.2477,-5.2929,-5.2929,-5.2929,-5.2929,-5.2929,-5.2929,-5.2929,0.0,0.0,0.0,0.0,0.0,0.0,0.0,0.0,0.0,0.0,0.0,0.0,0.0,0.0,0.0,0.0,0.0,0.0,0.0,0.0,0.0,0.0,0.0,-3.8919,-3.8919,-3.8844,-3.8844,-3.8919,-3.8919,-3.912,-3.9572,-3.9129,-3.8841,-3.8736,-3.8335,-3.9511,-4.1773,-4.1559,-4.2118,-4.3248,-4.4116,0.0,0.0,0.0,0.0,0.0,0.0,0.0,0.0,-4.3415,-4.3232,-4.2788,-4.2866,0.0,0.0,0.0,0.0,0.0,-4.1428,-4.2213,-4.3154,-4.3729,-4.4304,-4.4824,-4.5425,-4.5111,-4.5114,-4.6447,-4.7127,-4.7675,-4.8329,-4.9008,-4.9766,-5.0655,-5.1325,-5.196,-5.2721,-5.2184,-5.1548,-5.1214,-5.247,-5.347,-5.3713,-5.4832,-5.5705,-5.6146,-5.5852,-5.5779,-5.6219,-5.6219,-5.6219,-5.6219,-5.6219,-5.6219,-5.6219,-5.6219,-5.5666,-5.4587,-5.5691,-5.534,-5.3708,-5.4285,-5.4235,-5.3607,-5.2151,-5.2076,-5.2854,-5.1925,-5.2076,-5.2929,-5.2929,-5.2929,-5.2929,-5.2929,-5.2929,-5.2929,0.0,0.0,0.0,0.0,0.0,0.0,0.0,0.0,0.0,0.0,0.0,0.0,0.0,0.0,0.0,0.0,0.0,0.0,0.0,0.0,0.0,-3.9019,-3.8969,-3.8919,-3.8919,-3.8391,-3.8391,-3.8919,-3.8919,-3.8969,-3.9019,-3.9162,-3.8945,-3.8498,-3.8907,-3.9355,-3.9839,-4.1178,-4.1887,-4.2123,-4.2943,0.0,0.0,0.0,0.0,0.0,0.0,0.0,0.0,-4.2239,-4.2056,-4.1664,-4.2134,0.0,0.0,0.0,0.0,0.0,-4.1899,-4.2526,-4.3154,-4.3729,-4.4304,-4.4824,-4.5425,-4.5111,-4.5349,-4.7466,-4.7989,-4.8381,-4.9427,-5.0498,-5.1126,-5.0838,-5.156,-5.1991,-5.134,-5.1433,-5.1315,-5.0631,-5.2214,-5.3555,-5.3939,-5.4645,-5.5411,-5.6146,-5.5852,-5.5779,-5.6219,-5.6219,-5.6219,-5.6219,-5.6219,-5.6219,-5.6219,-5.6219,-5.5666,-5.4587,-5.5691,-5.534,-5.3708,-5.4285,-5.4235,-5.3658,-5.298,-5.2779,-5.2904,-5.2754,-5.2779,-5.2929,-5.2929,-5.2929,-5.2929,-5.2929,-5.2929,-5.2929,0.0,0.0,0.0,0.0,0.0,0.0,0.0,0.0,0.0,0.0,0.0,0.0,0.0,0.0,0.0,0.0,0.0,0.0,0.0,0.0,0.0,-3.9772,-3.9368,-3.9068,-3.8868,-3.8617,-3.8743,-3.932,-3.932,-3.932,-3.932,-3.9107,-3.9213,-3.9511,-3.8902,-3.9262,-4.0393,-4.0582,-4.1266,-4.2261,0.0,0.0,0.0,0.0,0.0,0.0,0.0,0.0,0.0,0.0,-4.1794,-4.1428,-4.1977,0.0,0.0,0.0,0.0,0.0,-4.2004,-4.2579,-4.331,-4.4513,-4.4774,-4.5114,-4.6656,-4.6081,-4.595,-4.8564,-4.8381,-4.8172,-4.9636,-5.0577,-5.1387,-5.2093,-5.328,-5.3665,-5.2261,-5.1915,-5.17,-5.1423,-5.2478,-5.3456,-5.3967,-5.4621,-5.5263,-5.5852,-5.5705,-5.5705,-5.5852,-5.6072,-5.6219,-5.6219,-5.6219,-5.6219,-5.6219,-5.6219,-5.5666,-5.4587,-5.5691,-5.5491,-5.4185,-5.4436,-5.4411,-5.4084,-5.2653,-5.2377,-5.2879,-5.2277,-5.2402,-5.2929,-5.2929,-5.2929,-5.2929,-5.2929,-5.2929,-5.2929,0.0,0.0,0.0,0.0,0.0,0.0,0.0,0.0,0.0,0.0,0.0,0.0,0.0,0.0,0.0,0.0,0.0,0.0,0.0,0.0,-3.9829,-3.9915,-3.9407,-3.9162,-3.9069,-3.8944,-3.9019,-3.9193,-3.9318,-3.9443,-3.949,-3.9121,-3.9353,-4.007,-3.88,-3.9247,-4.0771,-4.0,-4.0656,-4.2112,0.0,0.0,0.0,0.0,0.0,0.0,0.0,0.0,0.0,0.0,0.0,0.0,0.0,0.0,0.0,-4.1324,-4.1402,-4.1638,-4.2213,-4.2788,-4.3598,-4.5218,-4.5111,-4.5323,-4.7649,-4.6865,-4.6447,-4.9296,-4.8747,-4.8277,-4.9976,-5.089,-5.1873,-5.327,-5.4489,-5.4825,-5.3368,-5.2596,-5.2173,-5.2301,-5.2773,-5.3387,-5.4171,-5.4549,-5.4942,-5.5558,-5.5485,-5.5485,-5.5632,-5.5999,-5.6219,-5.6219,-5.6219,-5.6219,-5.6219,-5.6219,-5.5792,-5.4963,-5.5817,-5.5767,-5.4938,-5.4813,-5.4687,-5.4461,-5.2653,-5.2251,-5.2854,-5.2026,-5.2176,-5.2929,-5.2929,-5.2929,-5.2929,-5.2929,-5.2929,-5.2929,0.0,0.0,0.0,0.0,0.0,0.0,0.0,0.0,0.0,0.0,0.0,0.0,0.0,0.0,0.0,0.0,0.0,0.0,0.0,0.0,-3.8669,-3.8228,-3.8595,-3.9102,-3.9647,-3.912,-3.8517,-3.7767,-3.8214,-3.8633,-3.8841,-3.9357,-3.9304,-3.8936,-3.9087,-3.9251,-3.9486,-3.9617,-4.0082,-4.067,-4.1177,0.0,0.0,0.0,0.0,0.0,0.0,0.0,0.0,0.0,0.0,0.0,0.0,0.0,-4.1324,-4.1324,-4.169,-4.2239,-4.2814,-4.3363,-4.4095,-4.5323,-4.5111,-4.5323,-4.7649,-4.6865,-4.6447,-4.9296,-4.9401,-4.9479,-5.1178,-5.2433,-5.3322,-5.3756,-5.3997,-5.3953,-5.3431,-5.2875,-5.2492,-5.2309,-5.2767,-5.3593,-5.4795,-5.4322,-5.4347,-5.5485,-5.5263,-5.5189,-5.5558,-5.5999,-5.6219,-5.6219,-5.6219,-5.6219,-5.6219,-5.6219,-5.6168,-5.6093,-5.6168,-5.6168,-5.6068,-5.5566,-5.5039,-5.4607,-5.3833,-5.3306,-5.2929,-5.2854,-5.2854,-5.2929,-5.2929,-5.2929,-5.2929,-5.2929,-5.2929,-5.2929,0.0,0.0,0.0,0.0,0.0,0.0,0.0,0.0,0.0,0.0,0.0,0.0,0.0,0.0,0.0,0.0,0.0,0.0,0.0,-3.9545,-3.9247,-3.9529,-3.9271,-3.9357,-3.9937,-3.9233,-3.8958,-3.9134,-3.9009,-3.8904,-3.8788,-3.9009,-3.909,-3.9102,-3.8668,-3.9065,-3.9981,-3.905,-3.9569,-4.0972,-4.0517,-4.0694,0.0,0.0,0.0,0.0,0.0,0.0,0.0,0.0,-4.1324,-4.1324,-4.1324,-4.1559,-4.1847,-4.1847,-4.2265,-4.2814,-4.3389,-4.3702,-4.433,-4.6212,-4.5921,-4.5898,-4.8224,-4.7675,-4.7492,-5.0368,-4.9949,-4.9584,-5.1282,-5.3164,-5.4507,-5.4815,-5.4235,-5.3696,-5.335,-5.247,-5.2042,-5.2284,-5.274,-5.3492,-5.4522,-5.4347,-5.4496,-5.5189,-5.5337,-5.5411,-5.5632,-5.5999,-5.6219,-5.6219,-5.6219,-5.6219,-5.6219,-5.6219,-5.6219,-5.6219,-5.6219,-5.6219,-5.6194,-5.5641,-5.5089,-5.4607,-5.3959,-5.3406,-5.2929,-5.2929,-5.2929,-5.2929,-5.2929,-5.2929,-5.2929,-5.2929,-5.2929,-5.2929,0.0,0.0,0.0,0.0,0.0,0.0,0.0,0.0,0.0,0.0,0.0,0.0,0.0,0.0,0.0,0.0,0.0,0.0,-3.9918,-3.9228,-3.9126,-3.9707,-3.9175,-3.9087,-3.9541,-3.8932,-3.8834,-3.9476,-3.8923,-3.8669,-3.8788,-3.8736,-3.8893,-3.9258,-3.8684,-3.9129,-4.0287,-3.9233,-3.975,-4.1224,-4.0517,-4.0643,0.0,0.0,0.0,0.0,0.0,0.0,0.0,0.0,-4.1428,-4.1585,-4.1585,-4.1977,-4.2448,-4.2448,-4.284,-4.3363,-4.3781,-4.399,-4.4617,-4.6578,-4.6342,-4.629,-4.8773,-4.8433,-4.8303,-5.0812,-5.0864,-5.0838,-5.2045,-5.3674,-5.4872,-5.5057,-5.396,-5.3098,-5.3052,-5.2256,-5.1874,-5.2235,-5.2884,-5.3586,-5.4298,-5.4397,-5.457,-5.4967,-5.5263,-5.5411,-5.5411,-5.5779,-5.5999,-5.5999,-5.6146,-5.6219,-5.6219,-5.6219,-5.6219,-5.6219,-5.6219,-5.6219,-5.6194,-5.5817,-5.5239,-5.4607,-5.4135,-5.3582,-5.2929,-5.2929,-5.2929,-5.2929,-5.2929,-5.2929,-5.2929,-5.2929,-5.2929,-5.2929,0.0,0.0,0.0,0.0,0.0,0.0,0.0,0.0,0.0,0.0,0.0,0.0,0.0,0.0,0.0,0.0,0.0,0.0,-3.8575,-3.8133,-3.8027,-3.8027,-3.8027,-3.8157,-3.8396,-3.8157,-3.8049,-3.8079,-3.7463,-3.773,-3.8788,-3.8526,-3.8736,-3.931,-3.9335,-3.962,-4.0134,-4.0415,-4.0821,-4.1324,-4.1324,-4.1324,-4.1324,0.0,0.0,0.0,0.0,0.0,0.0,0.0,-4.169,-4.2211,-4.2211,-4.2552,-4.3023,-4.3049,-4.3441,-4.3939,-4.3939,-4.4304,-4.5009,-4.6186,-4.6055,-4.6395,-4.9244,-4.9008,-4.8695,-5.0446,-5.2197,-5.3427,-5.3553,-5.3947,-5.427,-5.4294,-5.2984,-5.2179,-5.2552,-5.2428,-5.2283,-5.2283,-5.3197,-5.3972,-5.4322,-5.4397,-5.457,-5.4967,-5.4967,-5.4967,-5.5041,-5.5411,-5.5632,-5.5632,-5.5999,-5.6219,-5.6219,-5.6219,-5.6219,-5.6219,-5.6219,-5.6219,-5.6219,-5.6219,-5.5616,-5.4587,-5.4561,-5.3959,-5.2929,-5.2929,-5.2929,-5.2929,-5.2929,-5.2929,-5.2929,-5.2929,-5.2929,-5.2929,0.0,0.0,0.0,0.0,0.0,0.0,0.0,0.0,0.0,0.0,0.0,0.0,0.0,0.0,0.0,0.0,0.0,0.0,-4.0895,-3.908,-3.8425,-3.939,-3.8477,-3.8157,-3.8396,-3.8315,-3.8166,-3.802,-3.802,-3.8303,-3.8788,-3.8526,-3.905,-4.0134,-4.0184,-4.0505,-4.0948,-4.1077,-4.1182,-4.13,-4.131,-4.1542,-4.1951,0.0,0.0,0.0,0.0,0.0,0.0,0.0,0.0,0.0,-4.2211,-4.284,-4.3781,-4.4617,-4.467,-4.4643,-4.548,-4.5218,-4.5114,-4.6682,-4.6944,-4.7257,-4.893,-4.9061,-4.9307,-5.0827,-5.2647,-5.37,-5.2759,-5.4853,-5.5985,-5.3945,-5.3388,-5.2984,-5.2345,-5.25,-5.2696,-5.2696,-5.3617,-5.4421,-5.4794,-5.4347,-5.4421,-5.5337,-5.4868,-5.4942,-5.5779,-5.5705,-5.5705,-5.5999,-5.6146,-5.6219,-5.6219,-5.6219,-5.6219,-5.6219,-5.6219,-5.6219,-5.6219,-5.6219,-5.5817,-5.5114,-5.4737,-5.416,-5.3432,-5.308,-5.2929,-5.2929,-5.2929,-5.2929,-5.2929,-5.2929,-5.2929,-5.2929,0.0,0.0,0.0,0.0,0.0,0.0,0.0,0.0,0.0,0.0,-4.7466,-4.6943,0.0,0.0,0.0,0.0,0.0,0.0,0.0,-4.0489,-3.9828,-3.9982,-3.9828,-3.9623,-3.9364,-3.8816,-3.8473,-3.8315,-3.8262,-3.8579,-3.9154,-3.8526,-3.8945,-4.0185,-4.0217,-4.0247,-4.0389,-4.1309,-4.1543,-4.1335,-4.1776,-4.2086,-4.229,0.0,0.0,0.0,0.0,0.0,0.0,0.0,0.0,0.0,-4.2892,-4.3834,-4.4957,-4.5192,-4.5349,-4.5584,-4.629,-4.595,-4.5898,-4.7858,-4.8015,-4.7989,-4.9139,-4.9401,-4.9985,-5.2065,-5.3387,-5.4117,-5.3829,-5.5435,-5.6044,-5.3709,-5.3298,-5.2886,-5.17,-5.2307,-5.2913,-5.2913,-5.3936,-5.4719,-5.4967,-5.4719,-5.4719,-5.5337,-5.4868,-5.4868,-5.546,-5.5411,-5.5485,-5.5705,-5.6072,-5.6219,-5.6219,-5.6219,-5.6219,-5.6219,-5.6219,-5.6219,-5.6219,-5.6219,-5.5917,-5.534,-5.4561,-5.3909,-5.3356,-5.3055,-5.2929,-5.2929,-5.2929,-5.2929,-5.2929,-5.2929,-5.2929,-5.2929,0.0,0.0,-4.8653,-4.8653,0.0,0.0,0.0,0.0,0.0,0.0,-4.7153,-4.6768,0.0,0.0,0.0,0.0,0.0,0.0,0.0,0.0,-4.1686,-4.0338,-4.1439,-4.1713,-4.0843,-3.957,-3.8893,-3.8893,-3.8291,-3.8579,-3.9697,-3.8579,-3.8659,-3.98,-3.9951,-3.964,-3.9173,-4.1441,-4.2009,-4.1466,-4.2632,-4.2788,-4.2396,-4.2971,0.0,0.0,0.0,0.0,0.0,0.0,0.0,0.0,-4.3912,-4.4983,-4.6133,-4.5166,-4.5637,-4.6499,-4.6604,-4.6604,-4.7074,-4.9191,-4.8982,-4.859,-4.9706,-5.0019,-5.0917,-5.3648,-5.4157,-5.4519,-5.5865,-5.5905,-5.5096,-5.3433,-5.2915,-5.2201,-5.0863,-5.2041,-5.2913,-5.2913,-5.4157,-5.5041,-5.5115,-5.5411,-5.5411,-5.5115,-5.4967,-5.4794,-5.4472,-5.4794,-5.4967,-5.5041,-5.5779,-5.6146,-5.6219,-5.6219,-5.6219,-5.6219,-5.6219,-5.6219,-5.6219,-5.6219,-5.5917,-5.534,-5.426,-5.3482,-5.3005,-5.2955,-5.2929,-5.2929,-5.2929,-5.2929,-5.2929,-5.2929,-5.2929,-5.2929,0.0,0.0,-4.7985,-4.7985,0.0,0.0,0.0,0.0,0.0,0.0,0.0,0.0,0.0,0.0,0.0,0.0,0.0,0.0,0.0,0.0,-4.2128,-4.2447,-4.1069,-4.0541,-4.1067,-4.0058,-3.9542,-3.9542,-3.8502,-3.8579,-3.9697,-3.8945,-3.9337,-4.0695,-4.1822,-4.166,-4.061,-4.3148,-4.3332,-4.2003,-4.323,-4.3624,-4.3572,-4.4147,-4.4016,0.0,0.0,0.0,0.0,0.0,0.0,0.0,-4.3912,-4.4434,-4.5245,-4.5898,-4.629,-4.6682,-4.7571,-4.7492,-4.7388,-4.8303,-4.8721,-4.9176,-5.0183,-5.122,-5.2294,-5.3675,-5.3521,-5.363,-5.5362,-5.5908,-5.5383,-5.3287,-5.3081,-5.2617,-5.0982,-5.2231,-5.3322,-5.3322,-5.4572,-5.5632,-5.5926,-5.5485,-5.5263,-5.5485,-5.4868,-5.4645,-5.4868,-5.4645,-5.4794,-5.5485,-5.5632,-5.5852,-5.6219,-5.6219,-5.6219,-5.6219,-5.6219,-5.6219,-5.6219,-5.6219,-5.5917,-5.534,-5.4687,-5.4059,-5.3507,-5.3105,-5.2929,-5.2929,-5.2929,-5.2929,-5.2929,-5.2929,-5.2929,-5.2929,0.0,0.0,0.0,0.0,0.0,0.0,0.0,0.0,0.0,0.0,0.0,0.0,0.0,0.0,0.0,0.0,-4.6391,0.0,0.0,0.0,-4.4489,-4.4886,-4.2738,-4.1838,-4.2496,-4.1369,-4.0567,-4.0108,-3.9258,-3.9258,-4.0057,-3.949,-3.9901,-4.1106,-4.1903,-4.1817,-4.1271,-4.346,-4.3669,-4.2672,-4.3828,-4.4121,-4.3938,-4.4513,-4.4382,-4.3912,-4.4173,0.0,0.0,0.0,0.0,0.0,0.0,0.0,-4.5584,-4.5611,-4.6029,-4.6604,-4.7205,-4.7545,-4.8015,-4.9139,-4.9386,-4.9461,-5.005,-5.0997,-5.2057,-5.3199,-5.379,-5.4423,-5.5259,-5.5544,-5.506,-5.3396,-5.2954,-5.2477,-5.1248,-5.2449,-5.3369,-5.3369,-5.4863,-5.5999,-5.6219,-5.5852,-5.5485,-5.5337,-5.4942,-5.4645,-5.4421,-5.457,-5.4868,-5.5337,-5.5705,-5.5999,-5.6219,-5.6219,-5.6219,-5.6219,-5.6219,-5.6219,-5.6219,-5.6219,-5.5917,-5.5365,-5.5089,-5.4486,-5.3683,-5.3406,-5.3155,-5.2929,-5.2929,-5.2929,-5.2929,-5.2929,-5.2929,-5.2929,0.0,0.0,0.0,0.0,0.0,0.0,0.0,0.0,0.0,0.0,0.0,0.0,0.0,0.0,-4.7435,0.0,0.0,0.0,0.0,0.0,0.0,-4.7124,-4.5096,-4.4073,-4.4291,-4.3063,-4.1957,-4.0952,-4.0491,-4.0592,-4.1235,-4.0489,-4.0667,-4.1697,-4.18,-4.1794,-4.172,-4.3355,-4.3749,-4.3316,-4.4323,-4.4434,-4.4068,-4.4431,-4.4327,-4.4095,-4.4457,-4.4613,-4.4668,-4.4668,0.0,0.0,0.0,0.0,-4.5976,-4.5009,-4.5558,-4.6473,-4.6473,-4.733,-4.8544,-5.0062,-4.9861,-4.9366,-4.9444,-5.0322,-5.1407,-5.2297,-5.3903,-5.5168,-5.5265,-5.499,-5.45,-5.3518,-5.2792,-5.2091,-5.1562,-5.2572,-5.3322,-5.3322,-5.4936,-5.6072,-5.6072,-5.6146,-5.5926,-5.5189,-5.5041,-5.4669,-5.3972,-5.4496,-5.4892,-5.4967,-5.5632,-5.6072,-5.6219,-5.6219,-5.6219,-5.6219,-5.6219,-5.6219,-5.6219,-5.6219,-5.5968,-5.5516,-5.544,-5.4863,-5.3984,-5.3884,-5.3532,-5.3055,-5.3055,-5.3005,-5.2929,-5.2929,-5.2929,-5.2929,0.0,0.0,0.0,0.0,0.0,0.0,0.0,0.0,0.0,0.0,-4.7216,-4.7219,0.0,0.0,0.0,-4.6698,-4.7155,0.0,0.0,0.0,0.0,-4.8059,-4.6724,-4.5886,-4.5789,-4.4809,-4.3734,-4.2684,-4.258,-4.3153,-4.417,-4.2626,-4.2365,-4.3251,-4.3932,-4.3555,-4.2547,-4.3978,-4.4292,-4.3826,-4.445,-4.4696,-4.4563,-4.4152,-4.4235,-4.4509,-4.4152,-4.4287,-4.4668,-4.4668,-4.4668,0.0,0.0,0.0,-4.4931,-4.4774,-4.5558,-4.6473,-4.6473,-4.7244,-4.817,-4.8812,-4.8561,-4.8234,-4.8595,-5.0331,-5.175,-5.1138,-5.2332,-5.3839,-5.5052,-5.4549,-5.3858,-5.3446,-5.2792,-5.2091,-5.1562,-5.238,-5.2985,-5.2985,-5.4597,-5.5705,-5.5705,-5.5999,-5.5999,-5.5558,-5.5189,-5.4818,-5.4322,-5.4122,-5.4272,-5.4967,-5.5115,-5.5485,-5.6219,-5.6219,-5.6219,-5.6219,-5.6219,-5.6219,-5.6219,-5.6219,-5.6168,-5.6068,-5.5591,-5.529,-5.5139,-5.4637,-5.411,-5.3607,-5.3607,-5.3331,-5.2929,-5.2929,-5.2929,-5.2929,0.0,0.0,0.0,0.0,0.0,0.0,0.0,0.0,0.0,0.0,0.0,-4.7152,0.0,0.0,0.0,-4.8149,0.0,0.0,0.0,0.0,0.0,-4.9329,-4.8479,-4.7413,-4.6139,-4.6284,-4.5255,-4.3023,-4.3592,-4.4546,-4.5715,-4.4973,-4.4658,-4.4741,-4.5738,-4.5285,-4.3868,-4.5158,-4.5158,-4.4393,-4.4978,-4.4981,-4.4746,-4.5178,-4.5285,-4.5109,-4.4557,-4.4723,-4.5138,-4.4471,-4.445,-4.4668,-4.4668,0.0,0.0,0.0,-4.5088,-4.5738,-4.6616,-4.6908,-4.7334,-4.885,-4.799,-4.7072,-4.8256,-4.9713,-5.0856,-5.0717,-5.2187,-5.3709,-5.4353,-5.4102,-5.3753,-5.3641,-5.2864,-5.2211,-5.197,-5.2236,-5.2597,-5.2889,-5.4009,-5.5039,-5.5533,-5.5558,-5.5485,-5.5263,-5.4868,-5.4496,-5.4122,-5.4122,-5.4421,-5.4967,-5.4967,-5.5411,-5.6219,-5.5999,-5.5999,-5.6219,-5.6219,-5.6219,-5.6219,-5.6219,-5.6219,-5.6194,-5.5968,-5.5666,-5.5365,-5.5139,-5.4687,-5.4185,-5.4185,-5.3858,-5.3356,-5.3356,-5.3181,-5.2929,0.0,0.0,0.0,0.0,0.0,0.0,0.0,0.0,0.0,0.0,0.0,0.0,0.0,0.0,0.0,0.0,-4.9404,0.0,0.0,0.0,0.0,-5.0196,-4.9942,-4.8921,-4.7056,-4.7808,-4.6812,-4.386,-4.4687,-4.5553,-4.6499,-4.6787,-4.6682,-4.6316,-4.7022,-4.6626,-4.5637,-4.6238,-4.6055,-4.5373,-4.5715,-4.548,-4.5007,-4.5757,-4.5891,-4.5526,-4.5098,-4.5318,-4.5686,-4.4672,-4.452,-4.4713,-4.4557,-4.4396,0.0,0.0,0.0,-4.5389,-4.6517,-4.6636,-4.6788,-4.8305,-4.7292,-4.6278,-4.7564,-4.8816,-4.983,-5.0383,-5.2259,-5.3822,-5.3822,-5.3822,-5.3822,-5.3822,-5.3077,-5.2427,-5.2307,-5.2212,-5.2331,-5.2744,-5.3522,-5.4402,-5.5189,-5.5115,-5.4967,-5.4967,-5.4645,-5.4248,-5.3972,-5.4122,-5.4421,-5.4794,-5.4892,-5.5164,-5.5926,-5.5705,-5.5779,-5.6219,-5.6219,-5.6219,-5.6219,-5.6219,-5.6219,-5.6219,-5.6219,-5.5968,-5.5591,-5.5591,-5.5265,-5.4762,-5.4762,-5.4411,-5.3909,-5.3909,-5.3582,-5.313,0.0,0.0,0.0,0.0,0.0,0.0,0.0,0.0,0.0,0.0,0.0,0.0,-4.9398,-4.9829,-4.9883,-4.9359,-4.9823,-4.9942,-4.9389,-4.9883,0.0,-5.0196,-5.0764,0.0,-4.9426,-4.9475,-4.8411,-4.624,-4.6292,-4.6357,-4.6499,-4.7597,-4.8068,-4.8015,-4.7545,-4.7571,-4.7937,-4.6917,-4.6761,-4.7096,-4.6656,-4.6081,-4.5474,-4.4999,-4.5111,-4.5578,-4.5562,-4.5912,-4.6342,-4.5712,-4.5171,-4.4622,-4.4108,-4.3543,-4.331,0.0,0.0,0.0,-4.5889,-4.6456,-4.6999,-4.629,-4.6105,-4.6064,-4.6078,-4.7617,-4.9277,-4.9806,-5.1994,-5.3822,-5.3822,-5.3822,-5.3822,-5.3822,-5.3365,-5.286,-5.2355,-5.2332,-5.2308,-5.2356,-5.3083,-5.3813,-5.4423,-5.4794,-5.4967,-5.4967,-5.4645,-5.4397,-5.4322,-5.4047,-5.4047,-5.4397,-5.4397,-5.4645,-5.5041,-5.5411,-5.5779,-5.6219,-5.6219,-5.6219,-5.6219,-5.6219,-5.6219,-5.6219,-5.6219,-5.6194,-5.6168,-5.6168,-5.5842,-5.534,-5.534,-5.5013,-5.4511,-5.4511,-5.416,-5.3658,0.0,0.0,0.0,0.0,0.0,0.0,0.0,0.0,0.0,0.0,0.0,0.0,0.0,-5.0103,-5.0255,-5.0511,-5.1109,-5.1409,-5.1169,-5.1379,0.0,-5.1498,-5.1319,-5.0728,-4.9611,-5.0268,-4.9268,-4.6374,-4.7074,-4.7077,-4.6499,-4.6891,-4.7702,-4.8799,-4.9688,-4.9165,-4.7675,-4.8381,-4.7937,-4.6865,-4.778,-4.7362,-4.629,-4.7184,-4.7424,-4.72,-4.636,-4.6598,-4.7068,-4.5737,-4.5258,-4.5181,-4.5001,-4.4755,-4.475,-4.5351,-4.6212,-4.6976,-4.673,-4.6636,-4.6587,-4.6532,-4.5702,-4.5261,-4.6472,-4.7943,-4.927,-4.9874,-5.2018,-5.3681,-5.3252,-5.3514,-5.3822,-5.3822,-5.3389,-5.3004,-5.2812,-5.2499,-5.2403,-5.274,-5.308,-5.3542,-5.4348,-5.4272,-5.4347,-5.457,-5.3641,-5.3323,-5.3999,-5.3271,-5.3347,-5.4373,-5.4197,-5.4347,-5.4967,-5.5632,-5.6072,-5.6219,-5.6219,-5.6219,-5.6219,-5.6219,-5.6219,-5.6219,-5.6219,-5.6219,-5.6219,-5.6219,-5.6093,-5.5917,-5.5917,-5.5591,-5.5089,-5.5089,-5.4737,-5.426,0.0,0.0,0.0,-4.9512,0.0,-4.9512,-4.9935,-4.9624,-4.958,-5.0182,0.0,0.0,0.0,0.0,-5.1079,-5.1498,-5.1738,-5.1858,-5.1858,-5.1858,-5.1858,-5.1858,-5.1439,-5.087,-5.0172,-5.0614,-4.9572,-4.6919,-4.8044,-4.7754,-4.6212,-4.7212,-4.8052,-4.8852,-5.0342,-5.008,-4.8564,-4.9714,-4.9427,-4.825,-4.8852,-4.8616,-4.7989,-4.8564,-4.8669,-4.8427,-4.8047,-4.7988,-4.8003,-4.6843,-4.6141,-4.5704,-4.5584,-4.5334,-4.5219,-4.5591,-4.629,-4.6946,-4.6654,-4.6456,-4.627,-4.6091,-4.5351,-4.5033,-4.6397,-4.7955,-4.9338,-5.0055,-5.209,-5.3681,-5.3227,-5.3514,-5.3822,-5.3822,-5.3534,-5.3269,-5.3101,-5.2764,-5.2668,-5.3029,-5.3077,-5.3418,-5.4124,-5.3972,-5.3897,-5.4173,-5.3321,-5.3101,-5.3774,-5.3173,-5.3249,-5.4173,-5.4023,-5.4347,-5.4967,-5.5632,-5.6072,-5.6219,-5.6219,-5.6219,-5.6219,-5.6219,-5.6219,-5.6219,-5.6219,-5.6219,-5.6219,-5.6219,-5.6219,-5.6219,-5.6219,-5.5993,-5.5666,-5.5666,-5.5315,-5.4838,0.0,-4.9043,-4.8463,-4.7998,-4.7905,-4.8325,-4.9392,-4.9575,-5.0206,-5.1989,0.0,0.0,0.0,0.0,0.0,-5.2217,-5.1648,-5.1289,-5.1289,-5.1289,-5.1289,-5.1289,0.0,0.0,-5.1319,-5.0644,-4.9615,-4.8151,-4.9128,-4.8257,-4.5744,-4.853,-4.9221,-4.8198,-4.9348,-5.0185,-5.076,-5.0812,-5.11,-5.1387,-4.9845,-4.9845,-5.0577,-4.8982,-4.8695,-4.9296,-5.0446,-5.0132,-4.9165,-4.9191,-4.7915,-4.626,-4.5707,-4.5032,-4.4615,-4.4963,-4.5635,-4.6155,0.0,0.0,0.0,-4.4656,-4.4816,-4.5368,-4.5646,-4.7423,-4.9318,-5.0218,-5.2164,-5.3774,-5.3774,-5.3798,-5.3822,-5.3822,-5.3822,-5.3654,-5.3149,-5.3077,-5.3077,-5.3077,-5.3077,-5.3269,-5.375,-5.3822,-5.3822,-5.3822,-5.3798,-5.3798,-5.3822,-5.3822,-5.3822,-5.3822,-5.4173,-5.457,-5.4967,-5.5411,-5.5779,-5.6219,-5.6219,-5.6219,-5.6219,-5.6219,-5.6219,-5.6219,-5.6219,-5.6219,-5.6219,-5.6219,-5.6219,-5.6219,-5.6219,-5.6219,-5.6219,-5.6219,-5.5867,-5.5415,-4.9994,-5.0653,-5.1143,-5.1001,-5.0971,-5.1107,-5.1381,-5.1071,-5.1088,0.0,0.0,0.0,-5.2845,-5.2905,-5.2905,-5.2905,-5.2725,-5.2636,-5.2636,-5.2636,-5.2636,-5.2636,-5.3114,-5.3384,-5.3384,-5.3204,-5.2507,-5.1366,-5.0264,-4.898,-4.7486,-4.7469,-4.7494,-4.7597,-4.8329,-4.9218,-5.0185,-5.1021,-5.076,-4.9949,-5.1962,-5.1727,-5.0315,-5.1936,-5.1622,-5.0524,-5.2119,-5.181,-5.0711,-5.1101,-4.9552,-4.7244,-4.5806,-4.5569,-4.5775,-4.5654,-4.5935,-4.6276,-4.6095,0.0,0.0,0.0,0.0,0.0,-4.5944,-4.7133,-4.8396,-4.9859,-5.1532,-5.2765,-5.2986,-5.3466,-5.3822,-5.3822,-5.3822,-5.3774,-5.363,-5.3293,-5.3077,-5.3077,-5.3077,-5.3125,-5.3269,-5.3606,-5.3822,-5.3822,-5.3125,-5.3029,-5.3774,-5.3822,-5.3822,-5.3822,-5.4173,-5.4472,-5.457,-5.5238,-5.5632,-5.5779,-5.6072,-5.6219,-5.6219,-5.6219,-5.6219,-5.6219,-5.6219,-5.6219,-5.6219,-5.6219,-5.6219,-5.6219,-5.6219,-5.6219,-5.6219,-5.6219,-5.6118,-5.5993,-5.0956,-5.1678,-5.2187,-5.2187,-5.2426,-5.2606,-5.2606,-5.2276,-5.2187,0.0,0.0,0.0,-5.3144,-5.3174,-5.3174,-5.3174,-5.3174,-5.3174,-5.3174,-5.3174,-5.3174,-5.3174,-5.3563,-5.3773,-5.3773,-5.3503,-5.2981,-5.218,-5.1058,-4.9855,-4.8599,-4.815,-4.7849,-4.7702,-4.8303,-4.893,-4.9636,-5.076,-5.1126,-5.1021,-5.2511,-5.2825,-5.2537,-5.3739,-5.353,-5.2746,-5.4001,-5.3583,-5.2568,-5.3114,-5.1511,-4.9039,-4.7916,-4.7109,-4.66,-4.6762,-4.6488,-4.6005,-4.5721,-4.5306,-4.4878,-4.4878,0.0,0.0,-4.6124,-4.752,-4.886,-5.0255,-5.18,-5.2935,-5.2793,-5.3132,-5.3395,-5.3395,-5.3395,-5.3466,-5.375,-5.3389,-5.3077,-5.3077,-5.3077,-5.3077,-5.3077,-5.3534,-5.3822,-5.3822,-5.3269,-5.3197,-5.3798,-5.3822,-5.3822,-5.3822,-5.4173,-5.4397,-5.4397,-5.5016,-5.5337,-5.5337,-5.5779,-5.5926,-5.5999,-5.6146,-5.6219,-5.6219,-5.6219,-5.6219,-5.6219,-5.6219,-5.6219,-5.6219,-5.6219,-5.6219,-5.6219,-5.6219,-5.6068,-5.5892,0.0,-5.2306,-5.2306,-5.2306,-5.2785,-5.3174,-5.3174,-5.3174,-5.3204,0.0,-5.3354,-5.3414,-5.3414,-5.3414,-5.3414,-5.3414,-5.3414,-5.3414,-5.3414,-5.3414,-5.3414,-5.3414,-5.3473,-5.3503,-5.3503,-5.2935,-5.2417,-5.1897,-5.1657,-5.0695,-4.9169,-4.9572,-4.9186,-4.8303,-4.8852,-4.9165,-4.9348,-5.0289,-5.1675,-5.3112,-5.2223,-5.34,-5.5543,-5.4785,-5.4654,-5.502,-5.5752,-5.5229,-5.4288,-5.4678,-5.3211,-5.114,-5.0664,-4.9001,-4.7301,-4.7926,-4.6978,-4.5619,-4.507,-4.4701,-4.4515,-4.4577,-4.4938,0.0,-4.6269,-4.8101,-4.9824,-5.0756,-5.2188,-5.3127,-5.2671,-5.2598,-5.2598,-5.267,-5.267,-5.289,-5.3584,-5.3269,-5.3006,-5.2886,-5.2982,-5.298,-5.298,-5.3485,-5.3822,-5.3822,-5.3822,-5.3822,-5.3822,-5.3822,-5.3822,-5.3822,-5.4197,-5.4322,-5.4322,-5.4719,-5.4967,-5.4967,-5.5411,-5.5632,-5.5705,-5.6072,-5.6219,-5.6219,-5.6219,-5.6219,-5.6219,-5.6219,-5.6219,-5.6219,-5.6219,-5.6168,-5.6118,-5.6118,-5.5817,-5.5465,-5.2995,-5.2995,-5.2995,-5.2995,-5.3084,-5.3174,-5.3174,-5.3174,-5.3384,-5.3922,-5.4461,-5.479,-5.479,-5.479,-5.479,-5.479,0.0,0.0,0.0,0.0,-5.479,-5.479,-5.5299,-5.5649,-5.5649,-5.5529,-5.4908,-5.3844,-5.237,-5.1013,-4.9766,-4.8877,-4.8668,-4.8904,-4.9035,-4.9584,-5.0446,-5.0185,-5.0786,-5.204,-5.3217,-5.3766,-5.4053,-5.5674,-5.5229,-5.3975,-5.5935,-5.5595,-5.4078,-5.3413,-5.2869,-5.2151,-4.9785,-4.8706,-4.8084,-4.7066,-4.6318,-4.5869,-4.6027,-4.5876,-4.5749,-4.6294,-4.6329,0.0,-4.6892,-4.7402,-4.8046,-4.9246,-4.9779,-5.0331,-5.1335,-5.1528,-5.1598,-5.188,-5.188,-5.2201,-5.2865,-5.2719,-5.226,-5.1653,-5.2115,-5.2427,-5.2427,-5.3269,-5.3822,-5.3822,-5.3822,-5.3822,-5.3822,-5.3822,-5.3822,-5.3822,-5.3897,-5.3897,-5.3897,-5.4347,-5.4645,-5.4967,-5.5411,-5.5779,-5.6072,-5.6146,-5.6219,-5.6219,-5.6219,-5.6219,-5.6219,-5.6219,-5.6219,-5.6219,-5.6219,-5.5942,-5.5541,-5.5541,-5.5491,-5.539,-5.3174,-5.3443,-5.3683,-5.3683,-5.3982,-5.4192,-5.4192,-5.4192,-5.4311,-5.464,-5.497,-5.5179,-5.5179,-5.5179,-5.5179,-5.5179,0.0,0.0,0.0,0.0,-5.5179,-5.5179,-5.5508,-5.5688,-5.5688,-5.5688,-5.5115,-5.3878,-5.2976,-5.1788,-5.0333,-4.9787,-4.9493,-4.9505,-4.9793,-5.0263,-5.076,-5.0472,-5.0995,-5.2145,-5.3321,-5.3792,-5.4027,-5.604,-5.6275,-5.5621,-5.651,-5.6044,-5.4831,-5.3802,-5.311,-5.2435,-5.1042,-4.9896,-4.878,-4.7914,-4.7118,-4.6529,-4.6238,-4.6062,-4.6062,-4.6548,-4.6768,0.0,0.0,-4.7856,-4.8525,-4.8984,-4.9517,-5.0017,-5.0364,-5.0409,-5.0478,-5.0847,-5.0891,-5.1112,-5.1677,-5.1793,-5.1752,-5.1752,-5.2091,-5.2283,-5.2283,-5.3221,-5.3822,-5.3822,-5.3822,-5.3822,-5.3822,-5.3822,-5.3822,-5.3822,-5.3822,-5.3822,-5.3822,-5.3972,-5.4272,-5.4719,-5.5115,-5.5485,-5.5926,-5.6146,-5.6219,-5.6219,-5.6219,-5.6068,-5.5792,-5.5792,-5.5641,-5.5415,-5.5691,-5.5465,-5.4988,-5.4988,-5.4988,-5.5013,-5.3563,-5.4012,-5.4401,-5.4401,-5.485,-5.5179,-5.5179,0.0,-5.5239,-5.5359,-5.5269,-5.5329,-5.5718,-5.5418,-5.5299,-5.5538,-5.5568,0.0,-5.5388,-5.5628,-5.5628,-5.5388,-5.5478,-5.5508,-5.5388,-5.5508,-5.4997,-5.3791,-5.3791,-5.284,-5.1014,-5.1014,-5.0639,-5.008,-5.0577,-5.0969,-5.1282,-5.1282,-5.1884,-5.2877,-5.3583,-5.3949,-5.4262,-5.6118,-5.6954,-5.7137,-5.6738,-5.6158,-5.5459,-5.455,-5.3443,-5.254,-5.265,-5.1181,-4.9309,-4.9108,-4.822,-4.7102,-4.6472,-4.6287,-4.6416,-4.6801,-4.7247,-4.7588,0.0,0.0,0.0,-4.8976,-4.9607,-5.0014,-4.9417,-4.9315,-4.9236,-4.9222,-4.9583,-4.9914,-5.0008,-5.0499,-5.116,-5.1775,-5.1826,-5.1874,-5.1971,-5.291,-5.3606,-5.3798,-5.3822,-5.3822,-5.3822,-5.3822,-5.3822,-5.3822,-5.3822,-5.3822,-5.3822,-5.3822,-5.3972,-5.4397,-5.4719,-5.5115,-5.5485,-5.5926,-5.6072,-5.6072,-5.602,-5.5792,-5.539,-5.5265,-5.4888,-5.4461,-5.5139,-5.4988,-5.4411,-5.4607,-5.4561,-5.4637,-5.497,-5.5029,-5.5089,-5.5089,-5.5149,-5.5179,0.0,0.0,-5.5388,-5.5987,-5.5568,-5.5867,-5.7603,-5.6226,-5.5628,-5.6795,-5.6885,-5.6645,-5.6107,-5.7154,-5.7274,-5.6158,-5.6585,-5.6615,-5.6128,-5.6585,-5.6331,-5.518,-5.518,-5.4003,-5.1696,-5.1696,-5.1314,-5.0681,-5.076,-5.1648,-5.3086,-5.3086,-5.3452,-5.4105,-5.5177,-5.4759,-5.3739,-5.5961,-5.6223,-5.545,-5.5606,-5.5573,-5.5236,-5.4352,-5.3511,-5.2814,-5.2684,-5.1244,-4.9626,-4.9534,-4.8579,-4.7533,-4.7724,-4.779,-4.7921,-4.8614,-4.8858,-4.8908,-4.8908,0.0,-4.8985,-4.8287,0.0,-4.83,-4.822,0.0,0.0,-4.6191,-4.7788,-4.8794,-4.7572,-4.8936,-5.0107,-5.0139,-5.0186,-5.0283,-5.0562,-5.1753,-5.2836,-5.375,-5.3822,-5.3822,-5.3822,-5.3822,-5.3822,-5.3822,-5.3822,-5.3822,-5.3822,-5.3822,-5.3972,-5.4397,-5.4496,-5.4645,-5.5115,-5.5485,-5.5705,-5.5681,-5.5546,-5.544,-5.534,-5.4863,-5.431,-5.3909,-5.4963,-5.4737,-5.3858,-5.4386,-5.4561,-5.4587,-5.5329,-5.5179,-5.5179,-5.5179,-5.5508,0.0,0.0,0.0,-5.6406,-5.6675,-5.6466,-5.6915,-5.853,-5.7962,-5.7992,-5.9308,-5.9428,-5.9308,-5.9069,-5.883,-5.8441,-5.7902,-5.7363,-5.6974,-5.6705,-5.6944,-5.6538,-5.5413,-5.606,-5.4955,-5.2294,-5.2969,-5.2561,-5.1256,-5.1256,-5.2067,-5.34,-5.34,-5.3896,-5.4759,-5.5255,-5.502,-5.455,-5.6196,-5.651,-5.6076,-5.6297,-5.5676,-5.4616,-5.3368,-5.2773,-5.2357,-5.1338,-5.0513,-4.989,-5.0135,-4.8956,-4.7642,-4.8445,-4.8396,-4.8288,-4.882,-4.9084,-4.9216,-4.9216,-4.9165,-4.8942,-4.8445,0.0,0.0,0.0,0.0,0.0,0.0,-4.7767,-4.8379,-4.8259,-4.8738,-4.9463,-5.0376,-5.0279,-5.0519,-5.1391,-5.1393,-5.1802,-5.2836,-5.2932,-5.2932,-5.2932,-5.3485,-5.3822,-5.3822,-5.3822,-5.3822,-5.3822,-5.3822,-5.3972,-5.4397,-5.4397,-5.4719,-5.5337,-5.5558,-5.5705,-5.5974,-5.5895,-5.5691,-5.5365,-5.5139,-5.4712,-5.4285,-5.5089,-5.4687,-5.3758,-5.4361,-5.4762,-5.5039,-5.5897,-5.5718,-5.5718,-5.5718,-5.6107,-5.6436,-5.6436,-5.7124,-5.7723,-5.7902,-5.7752,-5.8231,-5.9757,-5.9099,-5.9249,-6.0954,-6.1104,-6.1194,-6.1373,-6.0475,-5.9937,-5.9937,-5.8471,-5.7723,-5.7902,-5.7723,-5.7262,-5.6372,-5.7262,-5.6359,-5.3896,-5.442,-5.3764,-5.213,-5.1783,-5.2276,-5.3426,-5.3739,-5.4524,-5.5595,-5.5909,-5.604,-5.6092,-5.6615,-5.7007,-5.7268,-5.699,-5.6194,-5.5047,-5.3545,-5.2957,-5.2718,-5.1483,-5.0783,-5.0495,-5.1007,-4.983,-4.8555,-4.9325,-4.9297,-4.9072,-4.9053,-4.9249,-4.9443,-4.9148,-4.9043,-4.8902,-4.8641,-4.8313,0.0,0.0,0.0,-4.7371,-4.7053,0.0,-4.8003,-4.7932,-4.8377,-4.9216,-5.0376,-5.043,-5.0607,-5.1369,-5.0984,-5.1008,-5.1778,-5.2115,-5.2283,-5.2283,-5.3245,-5.3822,-5.3822,-5.3822,-5.3822,-5.3822,-5.3822,-5.3972,-5.4272,-5.4322,-5.4719,-5.5238,-5.5485,-5.5779,-5.6047,-5.597,-5.5767,-5.539,-5.5214,-5.4938,-5.4612,-5.5164,-5.4888,-5.421,-5.4637,-5.5039,-5.539,-5.7034,-5.7034,-5.7034,-5.7034,-5.7064,-5.7064,-5.7064,-5.8201,-5.9279,-5.9907,-5.9428,-5.9787,-6.1792,-5.9099,-5.8231,-6.0894,-6.1104,-6.1373,-6.2032,-6.2032,-6.2002,-6.2002,-6.0086,-5.9338,-5.9967,-5.9368,-5.9039,-5.8985,-5.9039,-5.8356,-5.7046,-5.5877,-5.4679,-5.3389,-5.213,-5.2276,-5.3478,-5.4576,-5.57,-5.685,-5.7948,-5.8418,-5.8287,-5.7216,-5.7503,-5.8302,-5.759,-5.7277,-5.6984,-5.5728,-5.4984,-5.447,-5.4152,-5.3,-5.1828,-5.2139,-5.1441,-5.06,-5.0648,-5.0906,-5.0895,-4.985,-4.981,-4.9811,-4.8846,-4.86,-4.86,-4.86,-4.8313,-4.8026,-4.8026,-4.7696,-4.6824,0.0,-4.6432,0.0,0.0,-4.7351,-4.9227,-4.9601,-4.9958,-4.9884,-4.9249,-5.0095,-5.072,-5.0744,-5.1706,-5.2283,-5.2283,-5.3245,-5.3822,-5.3822,-5.3822,-5.3822,-5.3822,-5.3822,-5.3822,-5.3822,-5.4197,-5.4397,-5.4472,-5.5238,-5.5632,-5.5607,-5.5496,-5.5415,-5.534,-5.4813,-5.4658,-5.4612,-5.5164,-5.5365,-5.534,-5.5365,-5.5365,-5.539,-5.859,-5.8411,-5.8141,-5.7244,-5.7483,-5.7932,-5.8351,-5.88,-5.9518,-6.0625,-6.0565,-6.1343,-6.3767,-6.3019,-6.272,-6.3617,-6.4485,-6.4725,-6.4066,-6.4036,-6.4036,-6.4036,-6.257,-6.1433,-6.0775,-6.0535,-5.9997,-5.9099,-5.8276,-5.7216,-5.5964,-5.4738,-5.345,-5.2192,-5.1783,-5.2276,-5.3478,-5.4628,-5.5778,-5.6876,-5.7634,-5.7712,-5.7425,-5.7791,-5.8183,-5.8452,-5.8212,-5.7784,-5.7128,-5.604,-5.5307,-5.4718,-5.3884,-5.2936,-5.2284,-5.3054,-5.2067,-5.0864,-5.1562,-5.1561,-5.1343,-5.098,-5.0537,-5.0206,-4.984,-4.9138,-4.86,-4.86,-4.8313,-4.8026,-4.8026,-4.7696,-4.7257,0.0,0.0,-4.752,0.0,-4.7979,-4.8706,-4.8551,-4.8607,-4.8853,-4.9081,-4.8772,-4.8868,-4.9565,-4.995,-5.0167,-5.0167,-5.1826,-5.2812,-5.2812,-5.3461,-5.3822,-5.3822,-5.3822,-5.3822,-5.3822,-5.3972,-5.4098,-5.4397,-5.4719,-5.4942,-5.5263,-5.5433,-5.5578,-5.5553,-5.5597,-5.5641,-5.5666,-5.5867,-5.5942,-5.5942,-5.5942,-5.5942,-5.5942,-5.9368,-5.9099,-5.883,-5.7962,-5.8171,-5.877,-5.9668,-5.9817,-6.0475,-6.2271,-6.2091,-6.263,-6.4784,-6.4605,-6.4515,-6.4994,-6.5383,-6.5622,-6.5712,-6.4425,-6.4276,-6.5652,-6.3588,-6.2421,-6.251,-6.1583,-6.0924,-6.0505,-5.83,-5.7052,-5.6675,-5.4516,-5.3086,-5.2253,-5.1993,-5.2354,-5.3191,-5.4733,-5.5804,-5.6562,-5.7346,-5.7556,-5.7477,-5.8,-5.834,-5.8523,-5.8523,-5.8141,-5.761,-5.7003,-5.6382,-5.5751,-5.5052,-5.4104,-5.3399,-5.4054,-5.3081,-5.1946,-5.2644,-5.2572,-5.2235,-5.185,-5.1463,-5.0976,-5.0589,-4.9947,-4.9395,-4.953,-4.9261,-4.8869,-4.8591,-4.8318,-4.793,0.0,0.0,0.0,0.0,-4.8116,-4.8182,-4.8026,-4.8366,-4.8573,-4.8551,-4.8243,-4.8195,-4.8507,-4.8868,-4.9084,-4.9084,-5.1105,-5.2283,-5.2283,-5.3293,-5.3822,-5.3822,-5.3822,-5.3822,-5.3822,-5.3972,-5.4197,-5.4397,-5.457,-5.4794,-5.5263,-5.5485,-5.5705,-5.5852,-5.6072,-5.6219,-5.6219,-5.6219,-5.6219,-5.6219,-5.6219,-5.6219,-5.6219,-5.9368,-5.9099,-5.9099,-5.9099,-5.9159,-5.9638,-6.0924,-6.1164,-6.2091,-6.4605,-6.3917,-6.3647,-6.4904,-6.3977,-6.3737,-6.4874,-6.3887,-6.4246,-6.667,-6.3408,-6.3049,-6.6819,-6.3408,-6.254,-6.4934,-6.257,-6.1882,-6.3079,-5.918,-5.7942,-5.9132,-5.5321,-5.3537,-5.3504,-5.2817,-5.2537,-5.2694,-5.4942,-5.5935,-5.6092,-5.719,-5.7974,-5.8418,-5.7869,-5.8026,-5.8523,-5.8523,-5.8523,-5.8523,-5.8523,-5.8025,-5.7379,-5.7405,-5.6292,-5.5041,-5.4991,-5.447,-5.387,-5.387,-5.3846,-5.3582,-5.2596,-5.2331,-5.2018,-5.1008,-5.0744,-5.0767,-5.1095,-5.0884,-5.0453,-4.9761,-4.9314,-4.8748,0.0,0.0,0.0,-4.7894,-4.7696,-4.763,-4.796,-4.8859,-4.8942,-4.7593,-4.8411,-4.8579,-4.7569,-4.8435,-4.9012,-4.9084,-5.1008,-5.2163,-5.2283,-5.3173,-5.3726,-5.3822,-5.3774,-5.3774,-5.3822,-5.4197,-5.4397,-5.4397,-5.4794,-5.5189,-5.5558,-5.5558,-5.5779,-5.6146,-5.6219,-5.6219,-5.6219,-5.6219,-5.6219,-5.6219,-5.6219,-5.6219,-5.6219,-5.9368,-5.9099,-5.9099,-5.9099,-5.9937,-6.0715,-6.1074,-6.1942,-6.281,-6.3498,-6.4126,-6.4665,-6.4934,-6.5592,-6.5533,-6.4366,-6.4874,-6.5114,-6.4784,-6.4755,-6.5413,-6.6939,-6.6011,-6.5323,-6.5054,-6.4366,-6.3707,-6.3079,-6.0119,-5.8871,-5.9132,-5.5733,-5.4189,-5.4155,-5.3451,-5.3164,-5.3295,-5.5125,-5.6405,-5.719,-5.7085,-5.7373,-5.7869,-5.7712,-5.8026,-5.8523,-5.8523,-5.8523,-5.8523,-5.8523,-5.7999,-5.7286,-5.7137,-5.6426,-5.5605,-5.5315,-5.4865,-5.4399,-5.4399,-5.4111,-5.375,-5.3485,-5.2836,-5.2211,-5.1946,-5.1273,-5.0696,-5.0837,-5.0767,-5.0624,-5.0475,-4.9707,-4.8988,-4.8724,0.0,0.0,-4.763,-4.7563,-4.7497,-4.763,-4.7871,-4.7943,-4.7521,-4.7738,-4.7786,-4.7521,-4.7762,-4.8243,-4.9036,-4.9589,-5.0624,-5.2235,-5.1778,-5.2259,-5.3798,-5.3053,-5.3053,-5.3822,-5.3897,-5.3972,-5.3972,-5.4047,-5.4347,-5.4719,-5.5016,-5.5411,-5.5779,-5.6072,-5.6219,-5.6219,-5.6219,-5.6219,-5.6219,-5.6219,-5.6219,-5.6219,-5.9368,-5.9338,-5.9548,-5.9548,-6.1104,-6.2271,-6.2002,-6.26,-6.3498,-6.4635,-6.4934,-6.5233,-6.5832,-6.655,-6.652,-6.5413,-6.5203,-6.5173,-6.5293,-6.4665,-6.5114,-6.6909,-6.643,-6.5922,-6.5473,-6.5473,-6.5114,-6.4366,-6.1498,-5.9942,-5.9575,-5.6354,-5.4529,-5.3957,-5.3801,-5.3739,-5.387,-5.5569,-5.6824,-5.7704,-5.732,-5.7529,0.0,-5.7835,-5.8026,-5.8523,-5.8523,-5.8523,-5.8523,-5.8523,-5.7999,-5.7405,-5.7593,-5.6821,-5.5852,-5.602,-5.5537,-5.4952,-5.4952,-5.4568,-5.4159,-5.4159,-5.3558,-5.2956,-5.2956,-5.2499,-5.2067,-5.2067,-5.2067,-5.1922,-5.1465,-5.0503,-4.9469,-4.8531,-4.7882,-4.7497,-4.7497,-4.7906,-4.8026,-4.7569,-4.7906,-4.8002,-4.7545,-4.7497,-4.7497,-4.7497,-4.7497,-4.7762,-4.8363,-4.9277,-5.0119,-5.0864,-5.1225,-5.173,-5.2451,-5.1874,-5.2115,-5.3149,-5.3149,-5.3389,-5.3822,-5.3822,-5.4047,-5.4397,-5.4645,-5.509,-5.5632,-5.5852,-5.6072,-5.6219,-5.6219,-5.6219,-5.6219,-5.6219,-5.6219,-5.6219,-5.9608,-5.9817,-6.0236,-6.0326,-6.2301,-6.3767,-6.3498,-6.3528,-6.4336,-6.646,-6.5951,-6.5772,-6.6759,-6.7089,-6.7208,-6.7119,-6.5533,-6.5263,-6.6999,-6.4366,-6.4036,-6.6999,-6.5951,-6.5562,-6.6131,-6.6131,-6.6131,-6.6131,-6.3058,-6.1273,-6.0626,-5.7328,-5.5123,-5.4021,-5.421,-5.4393,-5.4628,-5.6092,-5.7059,-5.773,-5.773,-5.7948,-5.834,-5.7921,-5.8078,-5.8523,-5.8523,-5.8523,-5.8523,-5.8523,-5.8096,-5.7621,-5.8278,-5.7309,-5.6176,-5.68,-5.6265,-5.5506,-5.5506,-5.5121,-5.4712,-5.4712,-5.4351,-5.4015,-5.3942,-5.3918,-5.3894,-5.3822,-5.3822,-5.3534,-5.2644,-5.1513,-5.0046,-4.8026,-4.7593,-4.7497,-4.7497,-4.8411,-4.8676,-4.7617,-4.8435,0.0,-4.7593,-4.7497,-4.7497,-4.7497,-4.7497,-4.7569,-4.769,-4.9349,-4.9974,-4.9301,-5.096,-5.1562,-5.0912,-5.0768,-5.1297,-5.2475,-5.2331,-5.2812,-5.3822,-5.3822,-5.4047,-5.4397,-5.4472,-5.4942,-5.5632,-5.5632,-5.5926,-5.6219,-5.6219,-5.6219,-5.6219,-5.6219,-5.6219,-5.6219,-6.0924,-6.0864,-6.1104,-6.1642,-6.257,-6.3737,-6.5263,-6.5951,-6.6071,-6.5473,-6.658,-6.7119,-6.6281,-6.7657,-6.8435,-6.7837,-6.7478,-6.7418,-6.7777,-6.6759,-6.664,-6.7747,-6.7059,-6.67,-6.6819,-6.6819,-6.6819,-6.6819,-6.4606,-6.3446,-6.3269,-5.9412,-5.7506,-5.7224,-5.5613,-5.5465,-5.6327,-5.6144,-5.6667,-5.773,-5.773,-5.7782,-5.7843,-5.8235,-5.8418,-5.8523,-5.8523,-5.8523,-5.8523,-5.8523,-5.8452,-5.8252,-5.8014,-5.77,-5.7348,-5.7106,-5.6583,-5.6083,-5.6083,-5.5674,-5.5265,-5.5265,-5.5193,-5.5001,-5.4568,-5.4471,-5.4351,-5.3918,-5.3822,-5.3774,-5.3582,-5.1994,-5.0287,-4.9012,-4.8074,-4.7497,-4.7497,-4.8411,-4.8676,-4.7617,-4.8435,-4.8652,-4.7593,-4.7497,-4.7497,-4.7497,-4.7497,-4.7882,-4.8748,-4.8339,-4.8796,0.0,-4.9902,-5.0407,0.0,-5.1129,-5.1658,-5.3534,-5.2692,-5.2812,-5.3822,-5.3822,-5.4047,-5.4397,-5.4719,-5.5189,-5.5632,-5.5999,-5.6146,-5.6219,-5.6219,-5.6219,-5.6219,-5.6219,-5.6219,-5.6219,-6.1672,-6.1613,-6.1732,-6.2032,-6.3468,-6.4904,-6.5862,-6.7148,-6.7807,-6.7178,-6.7926,-6.8256,-6.7627,-6.8435,-6.8854,-6.8525,-6.8166,-6.8136,-6.8495,-6.7867,-6.7807,-6.8465,-6.8196,-6.7717,-6.6999,-6.7687,-6.7537,-6.649,-6.5503,-6.4487,-6.3412,-6.0132,-5.8243,-5.7547,-5.6133,-5.583,-5.6353,-5.6667,-5.7137,-5.7756,-5.7974,-5.8104,-5.8131,-5.8418,-5.8395,-5.8341,-5.8485,-5.8421,-5.8316,-5.8459,-5.8523,-5.8459,-5.8212,-5.7994,-5.7725,-5.7509,-5.7023,-5.6636,-5.6636,-5.6251,-5.5818,-5.5818,-5.5602,-5.5337,-5.5073,-5.5025,-5.4856,-5.4351,-5.4231,-5.3991,-5.3173,-5.2187,-5.1177,-5.0095,-4.9012,-4.8315,-4.8315,-4.8748,-4.8892,-4.8387,-4.9277,-4.9493,-4.8411,-4.8074,-4.7786,-4.7521,-4.7497,-4.7714,-4.8243,-4.8291,-4.8796,0.0,0.0,0.0,-5.1441,0.0,-5.1489,-5.3004,-5.2524,-5.2812,-5.3822,-5.3822,-5.3897,-5.4122,-5.4496,-5.4942,-5.5337,-5.5926,-5.6219,-5.6219,-5.6219,-5.6219,-5.6219,-5.6219,-5.6219,-5.6219,-6.3139,-6.3139,-6.3199,-6.3318,-6.4934,-6.637,-6.6789,-6.8076,-6.9004,-6.9004,-6.9123,-6.9213,-6.9213,-6.9333,-6.9363,-6.9213,-6.8824,-6.8645,-6.8764,-6.8555,-6.8525,-6.8764,-6.8914,-6.8495,-6.7448,-6.8465,-6.8226,-6.664,-6.649,-6.5286,-6.2978,-6.0603,-5.8582,-5.6854,-5.6611,-5.6416,-5.6327,-5.7268,-5.7808,-5.7869,-5.834,-5.8523,-5.8523,-5.8523,-5.8355,-5.8161,-5.8226,-5.814,-5.7943,-5.8011,-5.8174,-5.8375,-5.8321,-5.7991,-5.7673,-5.7646,-5.7364,-5.7021,-5.7021,-5.6708,-5.6395,-5.6395,-5.6059,-5.5722,-5.5602,-5.5578,-5.5433,-5.488,-5.4688,-5.4231,-5.3004,-5.2499,-5.1922,-5.0864,-4.9782,-4.8988,-4.8772,-4.894,-4.9084,-4.9084,-4.983,-5.0022,-4.9157,-4.8507,-4.7906,-4.7377,-4.7329,-4.7473,-4.781,-4.8411,-4.8844,-4.906,-4.9902,-5.0479,-5.0696,0.0,-5.1345,-5.2596,-5.2379,-5.2812,-5.3822,-5.3822,-5.3822,-5.3822,-5.4272,-5.4645,-5.5041,-5.5779,-5.6072,-5.6072,-5.6146,-5.6219,-5.6219,-5.6219,-5.6219,-5.6219,-6.652,-6.652,-6.6729,-6.7328,-6.7119,-6.7508,-6.9333,-6.9273,-6.9004,-6.9004,-6.9512,-6.9901,-6.9901,-7.038,-7.05,-6.9931,-7.035,-6.9901,-6.8166,-6.9153,-6.9273,-6.8106,-6.8675,-6.8944,-6.8824,-6.8944,-6.8914,-6.8734,-6.8106,-6.6215,-6.3177,-6.1565,-5.9088,-5.6127,-5.7866,-5.8226,-5.7573,-5.7678,-5.7948,-5.8444,-5.8497,-5.8523,-5.8523,-5.8523,-5.8478,-5.8362,-5.7667,-5.7379,-5.7261,-5.6656,-5.7179,-5.8057,-5.7672,-5.7457,-5.7397,-5.7127,-5.7028,-5.7021,-5.7021,-5.6973,-5.6949,-5.6949,-5.69,-5.6732,-5.6275,-5.6155,-5.5987,-5.5433,-5.4928,-5.4568,-5.4423,-5.3245,-5.1922,-5.0864,-4.9782,-4.8748,-4.7786,-4.8483,-4.9084,-4.9084,-4.9181,-4.9181,-4.9084,-4.8171,-4.7353,-4.6824,-4.6776,-4.7425,-4.8844,-4.8122,-4.8098,-4.9036,-4.9181,-4.971,-5.0696,-5.0696,-5.1706,-5.3654,-5.274,-5.2812,-5.3822,-5.3822,-5.3822,-5.3822,-5.4272,-5.4645,-5.5041,-5.5485,-5.5632,-5.5705,-5.6072,-5.6219,-5.6219,-5.6219,-5.6219,-5.6219,-6.7567,-6.7268,-6.7208,-6.7867,-6.8435,-6.9183,-7.035,-7.1009,-7.1338,-7.1338,-7.1218,-7.1278,-7.1697,-7.1966,-7.1996,-7.1757,-7.1966,-7.1607,-7.041,-7.0829,-7.0709,-6.9782,-6.9991,-6.9961,-6.9602,-6.9602,-6.9393,-6.9004,-6.7508,-6.6129,-6.4844,-6.3022,-6.1465,-6.0164,-6.043,-6.0318,-6.0034,-5.9447,-5.9333,-5.9542,-5.9542,-5.9542,-5.9542,-5.9542,-5.9461,-5.9282,-5.8555,-5.819,-5.7899,-5.6775,-5.6674,-5.6965,-5.715,-5.7017,-5.6927,-5.7155,-5.7152,-5.7021,-5.7021,-5.7021,-5.7021,-5.7021,-5.7021,-5.6973,-5.6756,-5.6708,-5.654,-5.6011,-5.5458,-5.4977,-5.4664,-5.4087,-5.3245,-5.1874,-5.1273,-5.0624,-4.9565,-4.9782,-5.0287,-5.0936,-5.0431,-5.0311,-5.0936,-4.9157,-4.8026,-4.8122,-4.7545,-4.7329,-4.7642,-4.8171,-4.894,-5.0022,-5.0046,-5.0864,-5.2548,-5.1946,-5.2379,-5.3822,-5.3413,-5.3413,-5.3822,-5.3822,-5.4047,-5.4496,-5.4421,-5.4794,-5.5411,-5.5558,-5.5632,-5.5632,-5.6072,-5.6219,-5.6219,-5.6219,-5.6219,-5.6219,-6.9423,-6.9064,-6.8884,-6.9333,-7.0201,-7.0859,-7.0889,-7.2056,-7.2834,-7.2624,-7.2535,-7.2595,-7.2894,-7.2924,-7.2834,-7.2624,-7.2804,-7.2475,-7.1398,-7.1876,-7.1816,-7.0949,-7.1098,-7.0979,-7.056,-7.035,-7.0021,-6.9572,-6.8136,-6.6997,-6.6037,-6.4379,-6.3515,-6.3225,-6.2726,-6.2246,-6.1814,-6.0664,-6.0222,-6.0222,-6.0222,-6.0076,-5.9856,-5.9856,-5.9573,-5.9209,-5.8502,-5.8152,-5.782,-5.6685,-5.6122,-5.6005,-5.6401,-5.6395,-5.633,-5.672,-5.6721,-5.654,-5.654,-5.654,-5.654,-5.654,-5.666,-5.678,-5.678,-5.69,-5.6925,-5.654,-5.6035,-5.553,-5.5145,-5.4832,-5.4159,-5.274,-5.2379,-5.1922,-5.0864,-5.0696,-5.0984,-5.173,-5.0864,-5.0648,-5.1706,-4.9806,-4.8603,-4.8844,-4.8291,-4.781,-4.7425,-4.8171,-4.9109,-5.0191,-4.9926,-5.0768,-5.2884,-5.2187,-5.2499,-5.3822,-5.3822,-5.3822,-5.3822,-5.3822,-5.4197,-5.4794,-5.4496,-5.4794,-5.5411,-5.5558,-5.5632,-5.5632,-5.6072,-5.6219,-5.6219,-5.6219,-5.6219,-5.6219,-7.2864,-7.2834,-7.2834,-7.2864,-7.2864,-7.2445,-7.1098,-7.2056,-7.2684,-7.1996,-7.3043,-7.3642,-7.2984,-7.2924,-7.2624,-7.1966,-7.2535,-7.2086,-7.0141,-7.1816,-7.2295,-7.0949,-7.1517,-7.1876,-7.1876,-7.1218,-7.0889,-7.0889,-7.0859,-6.9257,-6.6198,-6.5485,-6.4682,-6.3902,-6.4387,-6.3778,-6.2367,-6.0849,-6.0222,-6.0222,-6.0222,-5.9683,-5.902,-5.902,-5.8499,-5.7725,-5.6968,-5.6663,-5.651,-5.5718,-5.5385,-5.5385,-5.5385,-5.5385,-5.5409,-5.5409,-5.5409,-5.5409,-5.5409,-5.5409,-5.5409,-5.5409,-5.5842,-5.6251,-5.6251,-5.6636,-5.7021,-5.7021,-5.6588,-5.6227,-5.6227,-5.5337,-5.4279,-5.3221,-5.262,-5.1922,-5.0864,-5.0696,-5.072,-5.072,-4.9758,-4.9517,-5.0624,-4.971,-4.8844,-4.8339,-4.8772,-4.906,-4.9036,-4.8074,-4.8002,-4.906,-4.8074,-4.8579,-5.072,-5.072,-5.1754,-5.3822,-5.3822,-5.3822,-5.3822,-5.3822,-5.4047,-5.4397,-5.4397,-5.4645,-5.5041,-5.5411,-5.5632,-5.5632,-5.6072,-5.6219,-5.6219,-5.6219,-5.6219,-5.6219,-7.041,-7.1697,-7.2774,-7.2295,-7.2984,-7.3582,-7.3612,-7.3971,-7.418,-7.3941,-7.43,-7.448,-7.427,-7.424,-7.4151,-7.3941,-7.3313,-7.2834,-7.2654,-7.2385,-7.2235,-7.2265,-7.1607,-7.1218,-7.1218,-7.059,-7.026,-7.026,-6.9842,-6.912,-6.8094,-6.7886,-6.8135,-6.8605,-6.6674,-6.5586,-6.4956,-6.1838,-6.0575,-6.05,-5.9946,-5.9566,-5.9338,-5.9338,-5.9185,-5.8827,-5.8031,-5.772,-5.7516,-5.6317,-5.5963,-5.589,-5.553,-5.5385,-5.5482,-5.5842,-5.5698,-5.5385,-5.5385,-5.5385,-5.5385,-5.5385,-5.553,-5.565,-5.565,-5.5794,-5.5914,-5.5914,-5.577,-5.5554,-5.5193,-5.4832,-5.4159,-5.2764,-5.298,-5.2956,-5.1922,-5.2091,-5.2331,-5.2331,-5.1369,-5.1153,-5.2211,-5.1032,-5.0263,-5.0455,-4.9926,-4.9301,-4.8579,-4.9277,-5.0167,-5.1225,-5.0936,-5.1417,-5.2812,-5.2139,-5.2475,-5.3822,-5.3822,-5.3822,-5.3822,-5.3822,-5.4197,-5.4794,-5.4496,-5.4794,-5.5411,-5.5558,-5.5632,-5.5632,-5.6072,-5.6219,-5.6219,-5.6219,-5.6219,-5.6219,-7.1368,-7.2535,-7.3522,-7.3073,-7.3702,-7.424,-7.4151,-7.4569,-7.4689,-7.421,-7.4569,-7.4869,-7.4869,-7.4869,-7.4869,-7.4869,-7.4121,-7.3821,-7.424,-7.3462,-7.3193,-7.3642,-7.2624,-7.2026,-7.2026,-7.1398,-7.1098,-7.1098,-7.041,-6.9961,-6.9722,-6.9722,-7.0141,-7.0759,-6.777,-6.6356,-6.6146,-6.2688,-6.1094,-6.0967,-6.0429,-6.0013,-5.964,-5.964,-5.9404,-5.9064,-5.8313,-5.8057,-5.7905,-5.6866,-5.654,-5.6468,-5.6107,-5.5866,-5.5698,-5.565,-5.5385,-5.5049,-5.4856,-5.4808,-5.4808,-5.4808,-5.4952,-5.5145,-5.5337,-5.5385,-5.5385,-5.5385,-5.5385,-5.5289,-5.4952,-5.4736,-5.4279,-5.3317,-5.3534,-5.3606,-5.2956,-5.298,-5.3004,-5.2788,-5.2018,-5.1826,-5.2692,-5.1874,-5.1441,-5.1754,-5.0792,-5.007,-4.9806,-5.0167,-5.0792,-5.1658,-5.1682,-5.2187,-5.3245,-5.2596,-5.2788,-5.3822,-5.3822,-5.3822,-5.3822,-5.3822,-5.4272,-5.4967,-5.4719,-5.509,-5.5852,-5.5852,-5.5852,-5.5852,-5.6146,-5.6219,-5.6219,-5.6219,-5.6219,-5.6219,-7.4629,-7.4749,-7.4839,-7.4749,-7.4809,-7.445,-7.3223,-7.4091,-7.442,-7.3223,-7.4121,-7.4869,-7.4869,-7.4869,-7.4869,-7.4869,-7.4779,-7.4809,-7.4929,-7.4809,-7.4779,-7.4869,-7.421,-7.3821,-7.3821,-7.3163,-7.2864,-7.2924,-7.2265,-7.1637,-7.0979,-7.0979,-7.0949,-7.0759,-6.7839,-6.6566,-6.6356,-6.3379,-6.1882,-6.1583,-6.1402,-6.0717,-5.9729,-5.9698,-5.9236,-5.8536,-5.8031,-5.7862,-5.779,-5.7261,-5.7069,-5.7069,-5.7021,-5.6684,-5.6083,-5.5025,-5.4688,-5.4544,-5.4015,-5.387,-5.387,-5.3822,-5.4183,-5.4688,-5.5169,-5.5289,-5.5289,-5.5289,-5.5289,-5.5289,-5.5289,-5.488,-5.4544,-5.4544,-5.4135,-5.3798,-5.3774,-5.3365,-5.286,-5.2331,-5.1874,-5.1802,-5.2283,-5.2379,-5.2379,-5.2331,-5.1417,-5.1297,-5.2283,-5.0912,-5.0335,-5.0912,-5.0912,-5.1393,-5.2379,-5.2379,-5.286,-5.3822,-5.3822,-5.3822,-5.3822,-5.3822,-5.4272,-5.4967,-5.4967,-5.5485,-5.6219,-5.6219,-5.6219,-5.6219,-5.6219,-5.6219,-5.6219,-5.6219,-5.6219,-5.6219,-7.2056,-7.3492,-7.4569,-7.3552,-7.421,-7.4779,-7.445,-7.4689,-7.4779,-7.445,-7.4689,-7.4869,-7.4869,-7.4869,-7.4869,-7.4869,-7.3941,-7.4031,-7.5557,-7.424,-7.3821,-7.4839,-7.3762,-7.3163,-7.3163,-7.2475,-7.2385,-7.2924,-7.2744,-7.2325,-7.1637,-7.1637,-7.1398,-7.0824,-6.8952,-6.818,-6.7907,-6.4292,-6.2715,-6.2426,-6.0397,-5.9415,-5.9189,-5.8985,-5.8747,-5.8584,-5.8464,-5.8416,-5.8319,-5.779,-5.7622,-5.755,-5.7141,-5.6925,-5.6708,-5.6035,-5.5554,-5.5097,-5.4568,-5.4423,-5.4327,-5.3918,-5.3918,-5.4039,-5.4159,-5.4183,-5.4183,-5.4183,-5.4183,-5.4183,-5.4183,-5.4087,-5.4015,-5.4015,-5.3894,-5.3678,-5.3293,-5.3149,-5.286,-5.2331,-5.2524,-5.274,-5.286,-5.3221,-5.3293,-5.2908,-5.2644,-5.262,-5.286,-5.2524,-5.2548,-5.3053,-5.3077,-5.3197,-5.3461,-5.3461,-5.3582,-5.3822,-5.3822,-5.3822,-5.3822,-5.3822,-5.4272,-5.4967,-5.4967,-5.5485,-5.6219,-5.6219,-5.6219,-5.6219,-5.6219,-5.6219,-5.6219,-5.6219,-5.6219,-5.6219,-7.2864,-7.3881,-7.4659,-7.3941,-7.439,-7.4869,-7.4869,-7.4869,-7.4869,-7.4869,-7.4869,-7.4869,-7.4869,-7.4869,-7.4988,-7.5318,-7.442,-7.427,-7.5377,-7.442,-7.4121,-7.4839,-7.418,-7.3821,-7.3821,-7.3432,-7.3283,-7.3373,-7.3373,-7.3013,-7.2355,-7.2355,-7.2176,-7.1751,-6.9632,-6.8846,-6.8914,-6.4673,-6.2941,-6.2978,-6.0605,-5.969,-5.9528,-5.9374,-5.9305,-5.9281,-5.9041,-5.8969,-5.8872,-5.8343,-5.8007,-5.7766,-5.7478,-5.7381,-5.7285,-5.6756,-5.6203,-5.565,-5.5121,-5.4977,-5.4832,-5.4303,-5.3991,-5.3822,-5.3822,-5.3822,-5.3822,-5.3822,-5.3822,-5.3822,-5.3822,-5.3822,-5.3822,-5.3822,-5.363,-5.3389,-5.3101,-5.286,-5.2692,-5.2644,-5.2884,-5.3149,-5.3389,-5.3654,-5.3702,-5.3437,-5.298,-5.2908,-5.3389,-5.2956,-5.3053,-5.3798,-5.3822,-5.3822,-5.3822,-5.3822,-5.3822,-5.3822,-5.3822,-5.3822,-5.3822,-5.3822,-5.4272,-5.4967,-5.4967,-5.5485,-5.6219,-5.6219,-5.6219,-5.6219,-5.6219,-5.6219,-5.6219,-5.6219,-5.6219,-5.6219,-7.4869,-7.4869,-7.4869,-7.4869,-7.4869,-7.4869,-7.4869,-7.4869,-7.4869,-7.4869,-7.4869,-7.4869,-7.4869,-7.4869,-7.5108,-7.5707,-7.5228,-7.4929,-7.5018,-7.5018,-7.4988,-7.4869,-7.4988,-7.4988,-7.4869,-7.4869,-7.4599,-7.4031,-7.4031,-7.3702,-7.3073,-7.3073,-7.3013,-7.2827,-7.0351,-6.9471,-6.9511,-6.5178,-6.3452,-6.3361,-6.1371,-6.0471,-6.0218,-6.0231,-6.0171,-6.0123,-5.9666,-5.9498,-5.9426,-5.8897,-5.8416,-5.8031,-5.7862,-5.7862,-5.7838,-5.7285,-5.6828,-5.6323,-5.5698,-5.5458,-5.5265,-5.4736,-5.4279,-5.3918,-5.3846,-5.3822,-5.3822,-5.3822,-5.3822,-5.3822,-5.3822,-5.3822,-5.3798,-5.3726,-5.3341,-5.3029,-5.2956,-5.2644,-5.2572,-5.3004,-5.3125,-5.3341,-5.3774,-5.3822,-5.3822,-5.3822,-5.3004,-5.2884,-5.3774,-5.298,-5.2908,-5.3798,-5.3822,-5.3822,-5.3822,-5.3822,-5.3822,-5.3822,-5.3822,-5.3822,-5.3822,-5.3822,-5.4272,-5.4967,-5.4967,-5.5485,-5.6219,-5.6219,-5.6219,-5.6219,-5.6219,-5.6219,-5.6219,-5.6219,-5.6219,-5.6219,-7.4869,-7.4869,-7.4869,-7.4869,-7.4869,-7.4869,-7.4869,-7.4869,-7.4869,-7.4869,-7.4869,-7.4869,-7.4869,-7.4869,-7.4929,-7.5018,-7.4929,-7.5138,-7.5707,-7.5736,-7.5497,-7.4899,-7.5437,-7.5467,-7.4899,-7.4869,-7.4839,-7.4719,-7.4719,-7.439,-7.3732,-7.3732,-7.3432,-7.2894,-7.244,-7.1541,-7.0188,-6.748,-6.5552,-6.4155,-6.1612,-6.0556,-6.0538,-6.0254,-6.0171,-6.0171,-6.0075,-6.0051,-5.9979,-5.945,-5.9209,-5.8993,-5.8103,-5.8127,-5.8367,-5.7838,-5.7622,-5.7357,-5.6371,-5.5746,-5.5265,-5.4736,-5.4544,-5.4375,-5.3918,-5.3822,-5.3822,-5.3822,-5.3822,-5.3822,-5.3822,-5.3822,-5.3678,-5.3245,-5.3125,-5.2908,-5.2475,-5.2716,-5.298,-5.3053,-5.3437,-5.3726,-5.3822,-5.3822,-5.3822,-5.3822,-5.3678,-5.3654,-5.3822,-5.3654,-5.3654,-5.3822,-5.3822,-5.3822,-5.3822,-5.3822,-5.3822,-5.3822,-5.3822,-5.3822,-5.3822,-5.3822,-5.4272,-5.4967,-5.4967,-5.5485,-5.6219,-5.6219,-5.6219,-5.6219,-5.6219,-5.6219,-5.6219,-5.6219,-5.6219,-5.6219,-7.5916,-7.5916,-7.5916,-7.5916,-7.5916,-7.5916,-7.5916,-7.5916,-7.5916,-7.5916,-7.5916,-7.5916,-7.5916,-7.5617,-7.5437,-7.5437,-7.5078,-7.5018,-7.5318,-7.5707,-7.5766,-7.5437,-7.5736,-7.5587,-7.4899,-7.4869,-7.4869,-7.4869,-7.4869,-7.4719,-7.442,-7.442,-7.427,-7.3941,-7.3176,-7.2658,-7.2022,-6.7947,-6.5991,-6.5288,-6.1771,-6.0369,-6.0418,-6.0243,-6.0171,-6.0171,-6.0171,-6.0171,-6.0123,-5.9883,-5.9618,-5.9305,-5.88,-5.8824,-5.8921,-5.8392,-5.8031,-5.7646,-5.6852,-5.6251,-5.5794,-5.5554,-5.5241,-5.488,-5.4351,-5.4255,-5.4159,-5.387,-5.3822,-5.3822,-5.3822,-5.3822,-5.375,-5.351,-5.3245,-5.298,-5.274,-5.2908,-5.3077,-5.3077,-5.351,-5.3822,-5.3822,-5.3822,-5.3822,-5.3822,-5.3822,-5.3822,-5.3822,-5.3822,-5.3822,-5.3822,-5.3822,-5.3822,-5.3822,-5.3822,-5.3822,-5.3822,-5.4047,-5.4098,-5.4098,-5.4098,-5.457,-5.5337,-5.5115,-5.5485,-5.6219,-5.6219,-5.6219,-5.6219,-5.6219,-5.6219,-5.6219,-5.6219,-5.6219,-5.6244,-7.6814,-7.6814,-7.6814,-7.6814,-7.6814,-7.6814,-7.6814,-7.6814,-7.6814,-7.6814,-7.6814,-7.6814,-7.6814,-7.6395,-7.6125,-7.6125,-7.5497,-7.5108,-7.5108,-7.5617,-7.5916,-7.5916,-7.5916,-7.5647,-7.5138,-7.4958,-7.4869,-7.4869,-7.4869,-7.4869,-7.4869,-7.4869,-7.4869,-7.4839,-7.3547,-7.3103,-7.3005,-6.7918,-6.5772,-6.5619,-6.1705,-6.0171,-6.0171,-6.0171,-6.0171,-6.0171,-6.0171,-6.0171,-6.0171,-6.0171,-5.9907,-5.9546,-5.9426,-5.9474,-5.9474,-5.8945,-5.8488,-5.8031,-5.7381,-5.69,-5.654,-5.6299,-5.5914,-5.5458,-5.4904,-5.4784,-5.464,-5.4111,-5.3991,-5.3966,-5.3846,-5.3822,-5.3774,-5.3654,-5.3317,-5.3077,-5.3077,-5.3077,-5.3101,-5.3221,-5.3582,-5.3822,-5.3822,-5.3822,-5.3822,-5.3822,-5.3822,-5.3822,-5.3822,-5.3822,-5.3822,-5.3822,-5.3822,-5.3822,-5.3822,-5.3822,-5.3822,-5.3822,-5.4197,-5.4397,-5.4397,-5.4496,-5.4942,-5.5558,-5.5386,-5.5732,-5.642,-5.6545,-5.6595,-5.6595,-5.6595,-5.6595,-5.6595,-5.6595,-5.6595,-5.6671,-7.6814,-7.6814,-7.6814,-7.6814,-7.6814,-7.6814,-7.6814,-7.6814,-7.6814,-7.6814,-7.6814,-7.6814,-7.6814,-7.6784,-7.6754,-7.6754,-7.6185,-7.5826,-7.5826,-7.5886,-7.5916,-7.5916,-7.5916,-7.5886,-7.5826,-7.5198,-7.4869,-7.4869,-7.4869,-7.4869,-7.4869,-7.4869,-7.4869,-7.4869,-7.4021,-7.284,-7.1351,-6.7795,-6.5503,-6.3914,-6.1267,-6.0171,-6.0171,-6.0171,-6.0171,-6.0171,-6.0171,-6.0171,-6.0171,-6.0171,-6.0147,-6.0027,-5.9546,-5.9714,-6.0003,-5.9474,-5.9305,-5.9041,-5.8031,-5.7718,-5.7454,-5.6468,-5.6203,-5.6035,-5.5458,-5.5337,-5.5193,-5.4664,-5.4544,-5.4399,-5.3918,-5.3822,-5.3678,-5.3197,-5.3101,-5.3077,-5.3077,-5.3077,-5.3245,-5.3702,-5.3798,-5.3822,-5.3822,-5.3822,-5.3822,-5.3822,-5.3822,-5.3822,-5.3822,-5.3822,-5.3822,-5.3822,-5.3822,-5.3822,-5.3822,-5.3822,-5.3822,-5.3822,-5.4197,-5.4397,-5.4397,-5.4794,-5.5189,-5.5657,-5.6079,-5.6526,-5.7022,-5.7549,-5.7775,-5.7775,-5.7775,-5.7775,-5.7775,-5.7775,-5.7775,-5.7775,-7.8041,-7.8041,-7.8041,-7.8041,-7.8041,-7.8041,-7.8041,-7.8041,-7.8041,-7.8041,-7.8041,-7.8041,-7.8041,-7.7682,-7.7442,-7.7442,-7.6844,-7.6485,-7.6485,-7.6485,-7.6485,-7.6485,-7.6485,-7.6485,-7.6485,-7.5856,-7.5527,-7.5527,-7.5078,-7.4869,-7.4869,-7.4869,-7.4869,-7.4869,-7.408,-7.3351,-7.2515,-6.8229,-6.6025,-6.5188,-6.168,-6.0171,-6.0171,-6.0171,-6.0171,-6.0171,-6.0171,-6.0171,-6.0171,-6.0171,-6.0171,-6.0147,-5.9931,-6.0003,-6.0123,-5.9931,-5.9883,-5.9714,-5.8993,-5.8319,-5.7718,-5.7309,-5.6973,-5.6588,-5.6035,-5.5914,-5.5746,-5.5217,-5.5097,-5.4928,-5.4399,-5.4303,-5.4135,-5.363,-5.3534,-5.3534,-5.3534,-5.3534,-5.3606,-5.3798,-5.3822,-5.3822,-5.3822,-5.3822,-5.3822,-5.3822,-5.3822,-5.3822,-5.3822,-5.3822,-5.3822,-5.3822,-5.3822,-5.3822,-5.3822,-5.3822,-5.3822,-5.3822,-5.4837,-5.5283,-5.5383,-5.6102,-5.6651,-5.705,-5.7,-5.7175,-5.76,-5.7801,-5.7901,-5.7901,-5.7901,-5.7901,-5.7901,-5.7901,-5.7901,-5.7951,-7.8789,-7.8789,-7.8789,-7.8789,-7.8789,-7.8789,-7.8789,-7.8789,-7.8789,-7.8789,-7.8789,-7.8789,-7.8789,-7.84,-7.81,-7.81,-7.7502,-7.7143,-7.7143,-7.6933,-7.6933,-7.7113,-7.7143,-7.7143,-7.7143,-7.6514,-7.6096,-7.5916,-7.5437,-7.5078,-7.4869,-7.4869,-7.4869,-7.4869,-7.3801,-7.3381,-7.3069,-6.8662,-6.6519,-6.5712,-6.237,-6.065,-6.0171,-6.0171,-6.0171,-6.0171,-6.0171,-6.0171,-6.0171,-6.0171,-6.0171,-6.0171,-6.0171,-6.0171,-6.0171,-6.0171,-6.0171,-6.0099,-5.9738,-5.8993,-5.8271,-5.8103,-5.767,-5.7165,-5.6804,-5.6612,-5.6323,-5.577,-5.565,-5.5482,-5.4952,-5.4856,-5.4736,-5.4375,-5.4183,-5.4063,-5.4063,-5.3918,-5.3822,-5.3822,-5.3822,-5.3822,-5.3822,-5.3822,-5.3822,-5.3822,-5.3822,-5.3822,-5.3822,-5.3822,-5.3822,-5.3822,-5.3966,-5.4138,-5.4313,-5.4313,-5.4289,-5.4439,-5.5602,-5.6173,-5.6324,-5.6997,-5.7499,-5.7901,-5.7749,-5.79,-5.8177,-5.8328,-5.8403,-5.8403,-5.8403,-5.8403,-5.8403,-5.8403,-5.8403,-5.8453,-7.8789,-7.8789,-7.8789,-7.8789,-7.8789,-7.8789,-7.8789,-7.8789,-7.8789,-7.8789,-7.8789,-7.8789,-7.8789,-7.8789,-7.8789,-7.8789,-7.819,-7.7831,-7.7831,-7.7203,-7.7143,-7.7801,-7.7801,-7.7801,-7.7831,-7.7173,-7.6544,-7.5916,-7.5916,-7.5557,-7.4899,-7.4899,-7.4869,-7.48,-7.331,-7.2602,-7.2387,-6.9148,-6.6832,-6.5082,-6.3402,-6.1656,-6.0171,-6.0171,-6.0171,-6.0171,-6.0171,-6.0171,-6.0171,-6.0171,-6.0171,-6.0171,-6.0171,-6.0171,-6.0171,-6.0171,-6.0171,-6.0171,-6.0171,-5.9786,-5.9257,-5.8728,-5.8199,-5.7814,-5.7814,-5.7405,-5.6876,-5.6347,-5.6251,-5.6059,-5.5506,-5.5409,-5.5409,-5.5385,-5.4952,-5.4616,-5.4616,-5.4159,-5.3822,-5.3822,-5.3822,-5.3822,-5.3822,-5.3822,-5.3822,-5.3822,-5.3822,-5.3822,-5.3822,-5.3822,-5.3822,-5.3822,-5.4351,-5.4844,-5.5324,-5.5324,-5.5551,-5.5927,-5.6393,-5.6892,-5.7323,-5.7272,-5.7499,-5.7951,-5.8504,-5.873,-5.8755,-5.9282,-5.9483,-5.9483,-5.9483,-5.9483,-5.9483,-5.9483,-5.9483,-5.9483,-7.8789,-7.8789,-7.8789,-7.8789,-7.8789,-7.8789,-7.8789,-7.8789,-7.8789,-7.8789,-7.8789,-7.8789,-7.8789,-7.8789,-7.8789,-7.8789,-7.8609,-7.8489,-7.8489,-7.831,-7.828,-7.8489,-7.8041,-7.8041,-7.8489,-7.7861,-7.7412,-7.7233,-7.6784,-7.6215,-7.5587,-7.5587,-7.5347,-7.4869,-7.3801,-7.3099,-7.2387,-6.9691,-6.7242,-6.5082,-6.3402,-6.1656,-6.0171,-6.0171,-6.0171,-6.0171,-6.0171,-6.0171,-6.0171,-6.0171,-6.0171,-6.0171,-6.0171,-6.0171,-6.0171,-6.0171,-6.0171,-6.0171,-6.0171,-6.0051,-5.981,-5.9281,-5.8752,-5.8367,-5.8367,-5.7959,-5.7526,-5.7381,-5.7045,-5.6612,-5.6083,-5.5987,-5.5842,-5.5458,-5.5265,-5.5169,-5.5169,-5.5025,-5.4784,-5.4423,-5.4375,-5.4231,-5.387,-5.3822,-5.3822,-5.3822,-5.3822,-5.3822,-5.3822,-5.4183,-5.4375,-5.4375,-5.488,-5.54,-5.5807,-5.5807,-5.6012,-5.6493,-5.7265,-5.7742,-5.7895,-5.8524,-5.8852,-5.9031,-5.9182,-5.9257,-5.9282,-5.9433,-5.9483,-5.9483,-5.9483,-5.9483,-5.9483,-5.9483,-5.9483,-5.9483,-7.8789,-7.8789,-7.8789,-7.8789,-7.8789,-7.8789,-7.8789,-7.8789,-7.8789,-7.8789,-7.8789,-7.8789,-7.8789,-7.8789,-7.8789,-7.8789,-7.8789,-7.8789,-7.8789,-7.8789,-7.8789,-7.8789,-7.84,-7.84,-7.8789,-7.84,-7.8071,-7.7801,-7.7412,-7.6904,-7.6275,-7.6275,-7.5747,-7.4744,-7.4044,-7.3119,-7.2028,-7.0192,-6.7806,-6.5082,-6.4126,-6.2313,-6.0171,-6.0171,-6.0171,-6.0171,-6.0171,-6.0171,-6.0171,-6.0171,-6.0171,-6.0171,-6.0171,-6.0171,-6.0171,-6.0171,-6.0171,-6.0171,-6.0171,-6.0171,-6.0099,-5.9786,-5.9305,-5.8921,-5.8921,-5.8512,-5.8127,-5.8127,-5.7862,-5.7478,-5.6949,-5.6852,-5.6684,-5.6131,-5.5866,-5.5722,-5.5722,-5.553,-5.5289,-5.4952,-5.4928,-5.4784,-5.4471,-5.4447,-5.4544,-5.476,-5.4568,-5.4544,-5.476,-5.4856,-5.4928,-5.4928,-5.5433,-5.5878,-5.6342,-5.6716,-5.705,-5.7289,-5.804,-5.8544,-5.8698,-5.91,-5.9353,-5.9483,-5.9483,-5.9483,-5.9483,-5.9483,-5.9483,-5.9483,-5.9483,-5.9483,-5.9483,-5.9483,-5.9483,-5.9483,-7.8789,-7.8789,-7.8789,-7.8789,-7.8789,-7.8789,-7.8789,-7.8789,-7.8789,-7.8789,-7.8789,-7.8789,-7.8789,-7.8789,-7.8789,-7.8789,-7.8789,-7.8789,-7.8789,-7.8789,-7.8789,-7.8789,-7.8789,-7.8789,-7.8789,-7.8789,-7.8489,-7.7891,-7.782,-7.7491,-7.6833,-7.6792,-7.6052,-7.4763,-7.4079,-7.301,-7.1637,-7.0832,-6.8448,-6.5161,-6.5161,-6.3184,-6.0171,-6.0171,-6.0171,-6.0171,-6.0171,-6.0171,-6.0171,-6.0171,-6.0171,-6.0171,-6.0171,-6.0171,-6.0171,-6.0171,-6.0171,-6.0171,-6.0171,-6.0171,-6.0171,-6.0171,-5.981,-5.945,-5.945,-5.9041,-5.8656,-5.8656,-5.8632,-5.844,-5.7959,-5.7886,-5.7718,-5.7237,-5.6756,-5.6444,-5.6444,-5.6011,-5.5674,-5.5626,-5.5602,-5.5602,-5.5554,-5.553,-5.5746,-5.6275,-5.5842,-5.577,-5.6275,-5.5866,-5.5602,-5.5602,-5.6155,-5.6577,-5.7023,-5.7952,-5.8373,-5.8191,-5.8741,-5.912,-5.9508,-5.912,-5.9173,-5.9483,-5.9483,-5.9483,-5.9483,-5.9483,-5.9483,-5.9483,-5.9483,-5.9483,-5.9483,-5.9483,-5.9483,-5.9483,-7.8789,-7.8789,-7.8789,-7.8789,-7.8789,-7.8789,-7.8789,-7.8789,-7.8789,-7.8789,-7.8789,-7.8789,-7.8789,-7.8789,-7.8789,-7.8789,-7.8789,-7.8789,-7.8789,-7.8789,-7.8789,-7.8789,-7.8789,-7.8789,-7.8789,-7.8789,-7.8729,-7.8579,-7.8291,-7.7819,-7.7092,-7.6835,-7.6264,-7.5471,-7.5327,-7.4256,-7.266,-7.2514,-6.9639,-6.5161,-6.5161,-6.3184,-6.0171,-6.0171,-6.0171,-6.0171,-6.0171,-6.0171,-6.0171,-6.0171,-6.0171,-6.0171,-6.0171,-6.0171,-6.0171,-6.0171,-6.0171,-6.0171,-6.0171,-6.0171,-6.0171,-6.0171,-6.0075,-6.0003,-6.0003,-5.9594,-5.9209,-5.9209,-5.8897,-5.856,-5.844,-5.8416,-5.8392,-5.8271,-5.8151,-5.8079,-5.8079,-5.7983,-5.7742,-5.7333,-5.7285,-5.7117,-5.6708,-5.666,-5.6708,-5.6852,-5.6732,-5.6708,-5.6852,-5.7117,-5.7285,-5.7285,-5.7814,-5.8322,-5.8725,-5.925,-5.9311,-5.8713,-5.9123,-5.9431,-5.9483,-5.9431,-5.9431,-5.9483,-5.9483,-5.9483,-5.9483,-5.9483,-5.9483,-5.9483,-5.9483,-5.9483,-5.9483,-5.9483,-5.9483,-5.9483,-7.8789,-7.8789,-7.8789,-7.8789,-7.8789,-7.8789,-7.8789,-7.8789,-7.8789,-7.8789,-7.8789,-7.8789,-7.8789,-7.8789,-7.8789,-7.8789,-7.8789,-7.8789,-7.8789,-7.8789,-7.8789,-7.8789,-7.8789,-7.8789,-7.8789,-7.8789,-7.8789,-7.8789,-7.8572,-7.8321,-7.7993,-7.7588,-7.687,-7.5859,-7.5714,-7.4707,-7.31,-7.2048,-6.9566,-6.6264,-6.4882,-6.2877,-6.0532,-6.0267,-6.0171,-6.0171,-6.0171,-6.0171,-6.0171,-6.0171,-6.0171,-6.0171,-6.0171,-6.0171,-6.0171,-6.0171,-6.0171,-6.0171,-6.0171,-6.0171,-6.0171,-6.0171,-6.0171,-6.0171,-6.0171,-5.9955,-5.9762,-5.9762,-5.9546,-5.9281,-5.9017,-5.8969,-5.8897,-5.8632,-5.8608,-5.8608,-5.8608,-5.8608,-5.8488,-5.8223,-5.8175,-5.8079,-5.779,-5.7766,-5.7886,-5.8127,-5.7911,-5.7886,-5.8127,-5.8175,-5.8175,-5.8175,-5.8464,-5.8853,-5.9285,-5.9421,-5.9459,-5.9259,-5.9651,-5.9759,-5.9483,-5.9483,-5.9483,-5.9483,-5.9483,-5.9483,-5.9483,-5.9483,-5.9483,-5.9483,-5.9483,-5.9483,-5.9483,-5.9483,-5.9483,-5.9483,-7.8789,-7.8789,-7.8789,-7.8789,-7.8789,-7.8789,-7.8789,-7.8789,-7.8789,-7.8789,-7.8789,-7.8789,-7.8789,-7.8789,-7.8789,-7.8789,-7.8789,-7.8789,-7.8789,-7.8789,-7.8789,-7.8789,-7.8789,-7.8789,-7.8789,-7.8789,-7.8789,-7.8789,-7.8717,-7.8717,-7.8717,-7.8209,-7.7431,-7.6241,-7.5872,-7.493,-7.3507,-7.1345,-6.9259,-6.7372,-6.4678,-6.2643,-6.1061,-6.0628,-6.0388,-6.0315,-6.0315,-6.0243,-6.0171,-6.0171,-6.0171,-6.0171,-6.0171,-6.0171,-6.0171,-6.0171,-6.0171,-6.0171,-6.0171,-6.0171,-6.0171,-6.0171,-6.0171,-6.0171,-6.0171,-6.0171,-6.0171,-6.0171,-6.0171,-6.0027,-5.9594,-5.9522,-5.9378,-5.8945,-5.8872,-5.8872,-5.8872,-5.8872,-5.8872,-5.8872,-5.8872,-5.8872,-5.8872,-5.8872,-5.9041,-5.9498,-5.9195,-5.9147,-5.9498,-5.9195,-5.8955,-5.8872,-5.8955,-5.9152,-5.9569,-5.9533,-5.9588,-5.984,-6.0154,-6.0035,-5.9483,-5.9483,-5.9483,-5.9483,-5.9483,-5.9483,-5.9483,-5.9483,-5.9483,-5.9483,-5.9483,-5.9483,-5.9483,-5.9483,-5.9483,-5.9483,-7.8789,-7.8789,-7.8789,-7.8789,-7.8789,-7.8789,-7.8789,-7.8789,-7.8789,-7.8789,-7.8789,-7.8789,-7.8789,-7.8789,-7.8789,-7.8789,-7.8789,-7.8789,-7.8789,-7.8789,-7.8789,-7.8789,-7.8789,-7.8789,-7.8789,-7.8789,-7.8789,-7.8789,-7.8427,-7.8282,-7.8282,-7.7579,-7.718,-7.6973,-7.6571,-7.5745,-7.4511,-7.2343,-6.9954,-6.7398,-6.5085,-6.3211,-6.1686,-6.1614,-6.1277,-6.0845,-6.0845,-6.0556,-6.0171,-6.0171,-6.0171,-6.0171,-6.0171,-6.0171,-6.0171,-6.0171,-6.0171,-6.0171,-6.0171,-6.0171,-6.0171,-6.0171,-6.0171,-6.0171,-6.0171,-6.0171,-6.0171,-6.0171,-6.0171,-6.0147,-6.0075,-6.0075,-6.0051,-5.9979,-5.9955,-5.9955,-5.9955,-5.9955,-5.9955,-5.9955,-5.9955,-5.9955,-5.9955,-5.9955,-6.0003,-6.0075,-6.0337,-6.0397,-6.0135,-6.0313,-6.0372,-5.9955,-6.0289,-6.0486,-6.0539,-6.0824,-6.0706,-6.0233,-6.0233,-6.0035,-5.9483,-5.9483,-5.9483,-5.9483,-5.9483,-5.9483,-5.9483,-5.9483,-5.9483,-5.9483,-5.9483,-5.9483,-5.9483,-5.9483,-5.9483,-5.9483,-7.8789,-7.8789,-7.8789,-7.8789,-7.8789,-7.8789,-7.8789,-7.8789,-7.8789,-7.8789,-7.8789,-7.8789,-7.8789,-7.8789,-7.8789,-7.8789,-7.8789,-7.8789,-7.8789,-7.8789,-7.8789,-7.8789,-7.8789,-7.8789,-7.8789,-7.8789,-7.8789,-7.8789,-7.8644,-7.8572,-7.8499,-7.7549,-7.7031,-7.7031,-7.6358,-7.5837,-7.5247,-7.3296,-7.1085,-6.8645,-6.6138,-6.4009,-6.2215,-6.1903,-6.1638,-6.1422,-6.1422,-6.1085,-6.0628,-6.0628,-6.0412,-6.0171,-6.0171,-6.0171,-6.0171,-6.0171,-6.0171,-6.0171,-6.0171,-6.0171,-6.0171,-6.0171,-6.0171,-6.0171,-6.0171,-6.0171,-6.0171,-6.0171,-6.0171,-6.0171,-6.0171,-6.0171,-6.0171,-6.0171,-6.0171,-6.0171,-6.0171,-6.0171,-6.0171,-6.0171,-6.0171,-6.0171,-6.0171,-6.0171,-6.0255,-6.0507,-6.0674,-6.0841,-6.09,-6.1091,-6.1091,-6.09,-6.1091,-6.1325,-6.1573,-6.1092,-6.0866,-6.0788,-6.0161,-5.9734,-5.9483,-5.9483,-5.9483,-5.9483,-5.9483,-5.9483,-5.9483,-5.9483,-5.9483,-5.9483,-5.9483,-5.9483,-5.9483,-5.9483,-5.9483,-5.9483]},{"header":{"parameterUnit":"m.s-1","parameterCategory":1,"la1":30.6,"la2":28.766,"lo1":-90.7593,"lo2":-88.6598,"dy":0.0162,"dx":0.0183,"nx":116,"ny":114,"refTime":"2024-03-20T00:00:00:Z","depth":0,"parameterNumber":3,"parameterNumberName":"V-component_of_WINDS"},"data":[0.0,0.0,0.0,0.0,0.0,0.0,0.0,0.0,0.0,0.0,0.0,0.0,0.0,0.0,0.0,0.0,0.0,0.0,0.0,0.0,0.0,0.0,0.0,0.0,0.0,0.0,0.0,0.0,0.0,0.0,0.0,0.0,0.0,0.0,0.0,0.0,0.0,0.0,0.0,0.0,0.0,0.0,0.0,0.0,0.0,0.0,0.0,0.0,0.0,0.0,0.0,0.0,0.0,0.0,0.0,0.0,0.0,0.0,0.0,0.0,0.0,0.0,0.0,0.0,0.0,0.0,0.0,0.0,0.0,0.0,0.0,0.0,0.0,0.0,0.0,0.0,0.0,0.0,0.0,0.0,0.0,0.0,0.0,0.0,0.0,0.0,0.0,0.0,0.0,0.0,0.0,0.0,0.0,0.0,0.0,0.0,0.0,0.0,0.0,0.0,0.0,0.0,0.0,0.0,0.0,0.0,0.0,0.0,0.0,0.0,0.0,0.0,0.0,0.0,0.0,0.0,0.0,0.0,0.0,0.0,0.0,0.0,0.0,0.0,0.0,0.0,0.0,0.0,0.0,0.0,0.0,0.0,0.0,0.0,0.0,0.0,0.0,0.0,0.0,0.0,0.0,0.0,0.0,0.0,0.0,0.0,0.0,0.0,0.0,0.0,0.0,0.0,0.0,0.0,0.0,0.0,0.0,0.0,0.0,0.0,0.0,0.0,0.0,0.0,0.0,0.0,0.0,0.0,0.0,0.0,0.0,0.0,0.0,0.0,0.0,0.0,0.0,0.0,0.0,0.0,0.0,0.0,0.0,0.0,0.0,0.0,0.0,0.0,0.0,0.0,0.0,0.0,0.0,0.0,0.0,0.0,0.0,0.0,0.0,0.0,0.0,0.0,0.0,0.0,0.0,0.0,0.0,0.0,0.0,0.0,0.0,0.0,0.0,0.0,0.0,0.0,0.0,0.0,0.0,0.0,0.0,0.0,0.0,0.0,0.0,0.0,0.0,0.0,0.0,0.0,0.0,0.0,0.0,0.0,0.0,0.0,0.0,0.0,0.0,0.0,0.0,0.0,0.0,0.0,0.0,0.0,0.0,0.0,0.0,0.0,0.0,0.0,0.0,0.0,0.0,0.0,0.0,0.0,0.0,0.0,0.0,0.0,0.0,0.0,0.0,0.0,0.0,0.0,0.0,0.0,0.0,0.0,0.0,0.0,0.0,0.0,0.0,0.0,0.0,0.0,0.0,0.0,0.0,0.0,0.0,0.0,0.0,0.0,0.0,0.0,0.0,0.0,0.0,0.0,0.0,0.0,0.0,0.0,0.0,0.0,0.0,0.0,0.0,0.0,0.0,0.0,0.0,0.0,0.0,0.0,0.0,0.0,0.0,0.0,0.0,0.0,0.0,0.0,0.0,0.0,0.0,0.0,0.0,0.0,0.0,0.0,0.0,0.0,0.0,0.0,0.0,0.0,0.0,0.0,0.0,0.0,0.0,0.0,0.0,0.0,0.0,0.0,0.0,0.0,0.0,0.0,0.0,0.0,0.0,0.0,0.0,0.0,0.0,0.0,0.0,0.0,0.0,0.0,0.0,0.0,0.0,0.0,0.0,0.0,0.0,0.0,0.0,0.0,0.0,0.0,0.0,0.0,0.0,0.0,0.0,0.0,0.0,0.0,0.0,0.0,0.0,0.0,0.0,0.0,0.0,0.0,0.0,0.0,0.0,0.0,0.0,0.0,0.0,0.0,0.0,0.0,0.0,0.0,0.0,0.0,0.0,0.0,0.0,0.0,0.0,0.0,0.0,0.0,0.0,0.0,0.0,0.0,0.0,0.0,0.0,0.0,0.0,0.0,0.0,0.0,0.0,0.0,0.0,0.0,0.0,0.0,0.0,0.0,0.0,0.0,0.0,0.0,0.0,0.0,0.0,0.0,0.0,0.0,0.0,0.0,0.0,0.0,0.0,0.0,0.0,0.0,0.0,0.0,0.0,0.0,0.0,0.0,0.0,0.0,0.0,0.0,0.0,0.0,0.0,0.0,0.0,0.0,0.0,0.0,0.0,0.0,0.0,0.0,0.0,0.0,0.0,0.0,0.0,0.0,0.0,0.0,0.0,0.0,0.0,0.0,0.0,0.0,0.0,0.0,0.0,0.0,0.0,0.0,0.0,0.0,0.0,0.0,0.0,0.0,0.0,0.0,0.0,0.0,0.0,0.0,0.0,0.0,0.0,0.0,0.0,0.0,0.0,0.0,0.0,0.0,0.0,0.0,0.0,0.0,0.0,0.0,0.0,0.0,0.0,0.0,0.0,0.0,0.0,0.0,0.0,0.0,0.0,0.0,0.0,0.0,0.0,0.0,0.0,0.0,0.0,0.0,0.0,0.0,0.0,0.0,0.0,0.0,0.0,0.0,0.0,0.0,0.0,0.0,0.0,0.0,0.0,0.0,0.0,0.0,0.0,0.0,0.0,0.0,0.0,0.0,0.0,0.0,0.0,0.0,0.0,0.0,0.0,0.0,0.0,0.0,0.0,0.0,0.0,0.0,0.0,0.0,0.0,0.0,0.0,0.0,0.0,0.0,0.0,0.0,0.0,0.0,0.0,0.0,0.0,0.0,0.0,0.0,0.0,0.0,0.0,0.0,0.0,0.0,0.0,0.0,0.0,0.0,0.0,0.0,0.0,0.0,0.0,0.0,0.0,0.0,0.0,0.0,0.0,0.0,0.0,0.0,0.0,0.0,0.0,0.0,0.0,0.0,0.0,0.0,0.0,0.0,0.0,0.0,0.0,0.0,0.0,0.0,0.0,0.0,0.0,0.0,0.0,0.0,0.0,0.0,0.0,0.0,0.0,0.0,0.0,0.0,0.0,0.0,0.0,0.0,0.0,0.0,0.0,0.0,0.0,0.0,0.0,0.0,0.0,0.0,0.0,0.0,0.0,0.0,0.0,0.0,0.0,0.0,0.0,0.0,0.0,0.0,0.0,0.0,0.0,0.0,0.0,0.0,0.0,0.0,0.0,0.0,0.0,0.0,0.0,0.0,0.0,0.0,0.0,0.0,0.0,0.0,0.0,0.0,0.0,0.0,0.0,0.0,0.0,0.0,0.0,0.0,0.0,0.0,0.0,0.0,0.0,0.0,0.0,0.0,0.0,0.0,0.0,0.0,0.0,0.0,0.0,0.0,0.0,0.0,0.0,0.0,0.0,0.0,0.0,0.0,0.0,0.0,0.0,0.0,0.0,0.0,0.0,0.0,0.0,0.0,0.0,0.0,0.0,0.0,0.0,0.0,0.0,0.0,0.0,0.0,0.0,0.0,0.0,0.0,0.0,0.0,0.0,0.0,0.0,0.0,0.0,0.0,0.0,0.0,0.0,0.0,0.0,0.0,0.0,0.0,0.0,0.0,0.0,0.0,0.0,0.0,0.0,0.0,0.0,0.0,0.0,0.0,0.0,0.0,0.0,0.0,0.0,0.0,0.0,0.0,0.0,0.0,0.0,0.0,0.0,0.0,0.0,0.0,0.0,0.0,0.0,0.0,0.0,0.0,0.0,0.0,0.0,0.0,0.0,0.0,0.0,0.0,0.0,0.0,0.0,0.0,0.0,0.0,0.0,0.0,0.0,0.0,0.0,0.0,0.0,0.0,0.0,0.0,0.0,0.0,0.0,0.0,0.0,0.0,0.0,0.0,0.0,0.0,0.0,0.0,0.0,0.0,0.0,0.0,0.0,0.0,0.0,0.0,0.0,0.0,0.0,0.0,0.0,0.0,0.0,0.0,0.0,0.0,0.0,0.0,0.0,0.0,0.0,0.0,0.0,0.0,0.0,0.0,0.0,0.0,0.0,0.0,0.0,0.0,0.0,0.0,0.0,0.0,0.0,0.0,0.0,0.0,0.0,0.0,0.0,0.0,0.0,0.0,0.0,0.0,0.0,0.0,0.0,0.0,0.0,0.0,0.0,0.0,0.0,0.0,0.0,0.0,0.0,0.0,0.0,0.0,0.0,0.0,0.0,0.0,0.0,0.0,0.0,0.0,0.0,0.0,0.0,0.0,0.0,0.0,0.0,0.0,0.0,0.0,0.0,0.0,0.0,0.0,0.0,0.0,0.0,0.0,0.0,0.0,0.0,0.0,0.0,0.0,0.0,0.0,0.0,0.0,0.0,0.0,0.0,0.0,0.0,0.0,0.0,0.0,0.0,0.0,0.0,0.0,0.0,0.0,0.0,0.0,0.0,0.0,0.0,0.0,0.0,0.0,0.0,0.0,0.0,0.0,0.0,0.0,0.0,0.0,0.0,0.0,0.0,0.0,0.0,0.0,0.0,0.0,0.0,0.0,0.0,0.0,0.0,0.0,0.0,0.0,0.0,0.0,0.0,0.0,0.0,0.0,0.0,0.0,0.0,0.0,0.0,0.0,0.0,0.0,0.0,0.0,0.0,0.0,0.0,0.0,0.0,0.0,0.0,0.0,0.0,0.0,0.0,0.0,0.0,0.0,0.0,0.0,0.0,0.0,0.0,0.0,0.0,0.0,0.0,0.0,0.0,0.0,0.0,0.0,0.0,0.0,0.0,0.0,0.0,0.0,0.0,0.0,0.0,0.0,0.0,0.0,0.0,0.0,0.0,0.0,0.0,0.0,0.0,0.0,0.0,0.0,0.0,0.0,0.0,0.0,0.0,0.0,0.0,0.0,0.0,0.0,0.0,0.0,0.0,0.0,0.0,0.0,0.0,0.0,0.0,0.0,0.0,0.0,0.0,0.0,0.0,0.0,0.0,0.0,0.0,0.0,0.0,0.0,0.0,0.0,0.0,0.0,0.0,0.0,0.0,0.0,0.0,0.0,0.0,0.0,0.0,0.0,0.0,0.0,0.0,0.0,0.0,0.0,0.0,0.0,0.0,0.0,0.0,0.0,0.0,0.0,0.0,0.0,0.0,0.0,0.0,0.0,0.0,0.0,0.0,0.0,0.0,0.0,0.0,0.0,0.0,0.0,0.0,0.0,0.0,0.0,0.0,0.0,0.0,0.0,0.0,0.0,0.0,0.0,0.0,0.0,0.0,0.0,0.0,0.0,0.0,0.0,0.0,0.0,0.0,0.0,0.0,0.0,0.0,0.0,0.0,0.0,0.0,0.0,0.0,0.0,0.0,0.0,0.0,0.0,0.0,0.0,0.0,0.0,0.0,0.0,0.0,0.0,0.0,0.0,0.0,0.0,0.0,0.0,0.0,0.0,0.0,0.0,0.0,0.0,0.0,0.0,0.0,0.0,0.0,0.0,0.0,0.0,0.0,0.0,0.0,0.0,0.0,0.0,0.0,0.0,0.0,0.0,0.0,0.0,0.0,0.0,0.0,0.0,0.0,0.0,0.0,0.0,0.0,0.0,0.0,0.0,0.0,0.0,0.0,0.0,0.0,0.0,0.0,0.0,0.0,0.0,0.0,0.0,0.0,0.0,0.0,0.0,0.0,0.0,0.0,0.0,0.0,0.0,0.0,0.0,0.0,0.0,0.0,0.0,0.0,0.0,0.0,0.0,0.0,0.0,0.0,0.0,0.0,0.0,0.0,0.0,0.0,0.0,0.0,0.0,0.0,0.0,0.0,0.0,0.0,0.0,0.0,0.0,0.0,0.0,0.0,0.0,0.0,0.0,0.0,0.0,0.0,0.0,0.0,0.0,0.0,0.0,0.0,0.0,0.0,0.0,0.0,0.0,0.0,0.0,0.0,0.0,0.0,0.0,0.0,0.0,0.0,0.0,0.0,0.0,0.0,0.0,0.0,0.0,0.0,0.0,0.0,0.0,0.0,0.0,0.0,0.0,0.0,0.0,0.0,0.0,0.0,0.0,0.0,0.0,0.0,0.0,0.0,0.0,0.0,0.0,0.0,0.0,0.0,0.0,0.0,0.0,0.0,0.0,0.0,0.0,0.0,0.0,0.0,0.0,0.0,0.0,0.0,0.0,0.0,0.0,0.0,0.0,0.0,0.0,0.0,0.0,0.0,0.0,0.0,0.0,0.0,0.0,0.0,0.0,0.0,0.0,0.0,0.0,0.0,0.0,0.0,0.0,0.0,0.0,0.0,0.0,0.0,0.0,0.0,0.0,0.0,0.0,0.0,0.0,4.1594,3.9828,0.0,0.0,0.0,0.0,0.0,0.0,0.0,0.0,0.0,0.0,0.0,0.0,0.0,0.0,0.0,0.0,0.0,0.0,0.0,0.0,0.0,0.0,0.0,0.0,0.0,0.0,3.8902,3.8902,3.8902,3.8902,0.0,0.0,0.0,0.0,0.0,0.0,3.9451,3.9939,4.0622,4.1283,4.2,4.1867,4.1294,4.0397,0.0,0.0,0.0,0.0,0.0,0.0,0.0,0.0,0.0,0.0,0.0,0.0,0.0,0.0,0.0,0.0,0.0,0.0,0.0,0.0,0.0,0.0,0.0,0.0,0.0,0.0,0.0,0.0,0.0,0.0,0.0,0.0,0.0,0.0,0.0,0.0,0.0,0.0,0.0,0.0,0.0,0.0,0.0,0.0,0.0,0.0,0.0,0.0,0.0,0.0,0.0,0.0,0.0,0.0,0.0,0.0,0.0,0.0,0.0,0.0,0.0,0.0,0.0,0.0,0.0,0.0,0.0,0.0,0.0,0.0,4.291,4.2102,0.0,0.0,0.0,0.0,0.0,0.0,0.0,0.0,0.0,0.0,0.0,0.0,0.0,0.0,0.0,0.0,0.0,0.0,0.0,0.0,0.0,0.0,0.0,3.9173,3.9145,3.8855,3.873,3.8742,3.8936,3.873,3.8605,3.8674,3.8633,3.8593,3.8605,3.8674,3.9215,4.0294,4.1024,4.2048,4.329,4.329,4.2423,4.0905,4.0457,0.0,0.0,0.0,0.0,0.0,0.0,0.0,0.0,0.0,0.0,0.0,0.0,0.0,0.0,0.0,0.0,0.0,0.0,0.0,0.0,0.0,0.0,0.0,0.0,0.0,0.0,0.0,0.0,0.0,0.0,0.0,0.0,0.0,0.0,0.0,0.0,0.0,0.0,0.0,0.0,0.0,0.0,0.0,0.0,0.0,0.0,0.0,0.0,0.0,0.0,0.0,0.0,0.0,0.0,0.0,0.0,0.0,0.0,0.0,0.0,0.0,0.0,0.0,4.4396,4.4485,4.4485,4.4556,4.4287,4.3818,4.4646,4.4736,4.4287,4.3798,0.0,0.0,0.0,0.0,0.0,0.0,0.0,0.0,0.0,0.0,0.0,0.0,0.0,0.0,0.0,0.0,0.0,0.0,0.0,3.947,3.8682,3.8438,3.8467,3.8625,3.8118,3.8159,3.9093,3.7944,3.7388,3.7766,3.7427,3.731,3.7505,3.766,3.8492,3.9985,4.1661,4.2771,4.329,4.329,4.314,4.2931,4.3449,4.3319,4.2751,0.0,0.0,0.0,0.0,0.0,0.0,0.0,0.0,0.0,0.0,0.0,0.0,0.0,0.0,0.0,0.0,0.0,0.0,0.0,0.0,0.0,0.0,0.0,0.0,0.0,0.0,0.0,0.0,0.0,0.0,0.0,0.0,0.0,0.0,0.0,0.0,0.0,0.0,0.0,0.0,0.0,4.2432,4.3,0.0,0.0,0.0,0.0,0.0,0.0,0.0,0.0,0.0,0.0,0.0,0.0,0.0,4.5334,4.6501,4.7249,4.7638,4.7638,4.8731,4.9299,4.9299,4.9299,4.9239,4.9089,4.8177,0.0,4.4347,4.4825,0.0,0.0,0.0,0.0,0.0,0.0,0.0,0.0,0.0,0.0,0.0,0.0,0.0,0.0,0.0,0.0,0.0,0.0,0.0,0.0,0.0,3.9363,3.9799,4.0047,4.0094,4.0202,4.0342,3.9578,3.9064,3.8878,3.8574,3.8456,3.8535,3.8417,3.9372,4.1514,4.3678,4.5019,4.5574,4.5574,4.5574,4.5574,4.5873,4.5005,4.329,4.3419,0.0,0.0,0.0,0.0,0.0,0.0,0.0,0.0,0.0,0.0,0.0,0.0,0.0,0.0,0.0,0.0,0.0,0.0,0.0,0.0,0.0,0.0,0.0,0.0,0.0,0.0,0.0,0.0,0.0,0.0,0.0,0.0,0.0,0.0,0.0,0.0,0.0,0.0,0.0,4.2851,4.3569,4.3798,4.4137,4.3958,0.0,0.0,0.0,0.0,0.0,0.0,0.0,0.0,0.0,4.7489,4.7562,4.7818,4.8386,4.873,4.888,4.888,4.9434,4.9673,4.9673,4.9673,4.9673,4.9673,4.9075,4.8177,4.71,4.701,4.698,4.689,0.0,0.0,0.0,0.0,4.4646,4.5035,0.0,0.0,0.0,0.0,0.0,0.0,0.0,0.0,0.0,0.0,0.0,0.0,3.9691,4.0704,4.1548,4.1825,4.2076,4.2088,4.177,4.1123,4.0585,4.0097,3.9682,3.9522,3.9562,3.9949,4.1211,4.3434,4.5538,4.683,4.7309,4.7309,4.7309,4.7309,4.7309,4.6112,4.4067,4.4436,4.3898,4.289,0.0,0.0,0.0,0.0,0.0,0.0,0.0,0.0,0.0,0.0,0.0,0.0,0.0,0.0,0.0,0.0,0.0,0.0,0.0,0.0,0.0,0.0,0.0,0.0,0.0,0.0,0.0,0.0,0.0,0.0,0.0,0.0,0.0,0.0,0.0,0.0,0.0,4.4007,4.4676,4.5035,4.5364,4.5334,0.0,0.0,0.0,0.0,0.0,0.0,4.8267,4.8745,4.9164,4.9494,4.9523,4.9583,4.9763,4.9808,4.9808,4.9763,4.9988,5.0048,5.0048,5.0048,5.0048,5.0048,4.9868,4.9808,4.9703,4.8865,4.858,4.8506,4.8356,4.7997,4.7519,4.7189,4.7279,4.7459,0.0,0.0,0.0,0.0,0.0,0.0,0.0,0.0,0.0,0.0,0.0,4.1173,4.0752,4.2188,4.3309,4.3555,4.3024,4.279,4.315,4.1679,4.0694,4.048,3.987,3.9602,3.9762,4.2216,4.4015,4.5143,4.6591,4.7279,4.7309,4.7309,4.7309,4.7309,4.7309,4.689,4.61,4.5514,4.4855,4.4047,4.2222,0.0,0.0,0.0,0.0,0.0,0.0,0.0,0.0,0.0,0.0,0.0,0.0,0.0,0.0,0.0,0.0,0.0,0.0,0.0,0.0,0.0,0.0,0.0,0.0,0.0,0.0,0.0,0.0,0.0,0.0,0.0,0.0,0.0,0.0,0.0,0.0,0.0,0.0,4.701,4.8267,0.0,0.0,0.0,0.0,4.7309,4.7309,4.7638,4.8267,4.8327,4.8895,5.0106,5.0136,5.0435,5.1109,5.1109,5.1109,5.1139,5.1768,5.2037,5.2037,5.2037,5.2037,5.2007,5.1379,5.1109,5.102,4.9733,4.9269,4.9209,4.8536,4.8267,4.8087,4.683,4.716,4.8147,0.0,0.0,0.0,0.0,0.0,0.0,0.0,0.0,4.1145,4.0487,4.0965,4.1496,4.1799,4.3489,4.4773,4.5335,4.5543,4.5526,4.5233,4.4027,4.3089,4.2578,4.168,4.1326,4.165,4.3938,4.5233,4.5304,4.707,4.7938,4.7938,4.8386,4.8566,4.8536,4.8117,4.7818,4.7549,4.686,4.5963,4.4885,4.4167,4.303,0.0,0.0,0.0,0.0,0.0,0.0,0.0,0.0,0.0,0.0,0.0,0.0,0.0,0.0,0.0,0.0,0.0,0.0,0.0,0.0,0.0,0.0,0.0,0.0,0.0,0.0,0.0,0.0,0.0,0.0,0.0,0.0,0.0,0.0,0.0,0.0,0.0,4.7848,4.8356,0.0,4.8297,4.894,4.912,4.8596,4.9733,5.0571,5.078,5.1199,5.1648,5.2127,5.2127,5.2247,5.2486,5.2486,5.2486,5.2486,5.2725,5.2815,5.2815,5.2815,5.2815,5.2815,5.2576,5.2486,5.2456,5.1977,5.1289,5.0511,5.0272,5.0182,5.0122,4.9643,4.9763,5.0152,0.0,0.0,0.0,0.0,0.0,0.0,0.0,0.0,4.1602,4.1115,4.1833,4.2611,4.3309,4.4915,4.6142,4.6621,4.704,4.692,4.6022,4.5154,4.4322,4.3489,4.316,4.3353,4.414,4.5789,4.6645,4.6621,4.7967,4.8626,4.8626,4.912,4.9299,4.9299,4.885,4.8626,4.8596,4.8147,4.7189,4.5933,4.5484,4.3988,4.1983,0.0,0.0,0.0,0.0,0.0,0.0,0.0,0.0,0.0,0.0,0.0,0.0,0.0,0.0,0.0,0.0,0.0,0.0,0.0,0.0,0.0,0.0,0.0,0.0,0.0,0.0,0.0,0.0,0.0,0.0,0.0,0.0,0.0,0.0,4.68,4.7878,4.8536,4.8805,4.9015,4.9254,4.9673,4.9912,4.9912,5.1349,5.2187,5.2187,5.2815,5.3174,5.3174,5.3174,5.3174,5.3174,5.3174,5.3294,5.3533,5.3533,5.3653,5.3862,5.3862,5.3503,5.2875,5.3324,5.3144,5.2546,5.2995,5.2665,5.1858,5.1648,5.1558,5.1528,5.1289,5.1229,5.1229,0.0,0.0,0.0,0.0,0.0,0.0,4.25,4.241,4.2381,4.2381,4.3479,4.4556,4.5185,4.6471,4.7309,4.7309,4.7309,4.6741,4.5424,4.4959,4.4199,4.3099,4.411,4.5441,4.6991,4.7688,4.8447,4.9299,4.9359,4.9359,4.9359,4.9419,4.9419,4.9419,4.9419,4.9389,4.9389,4.9359,4.8566,4.7279,4.5933,4.4616,4.326,0.0,0.0,0.0,0.0,0.0,0.0,0.0,0.0,0.0,0.0,0.0,0.0,0.0,0.0,0.0,0.0,0.0,0.0,0.0,0.0,0.0,0.0,0.0,0.0,0.0,0.0,0.0,0.0,0.0,0.0,0.0,0.0,0.0,4.6501,4.7549,4.8596,4.9299,4.9883,5.0495,5.1199,5.1259,5.1259,5.1289,5.1858,5.2217,5.2217,5.2815,5.3144,5.3144,5.3204,5.3204,5.3204,5.3264,5.3653,5.4311,5.4311,5.464,5.5239,5.5239,5.4192,5.2426,5.3743,5.3204,5.1498,5.2785,5.3294,5.3234,5.2516,5.2217,5.2157,5.1498,5.1289,5.1289,0.0,0.0,0.0,0.0,0.0,0.0,4.25,4.241,4.2231,4.1752,4.321,4.4377,4.4556,4.6202,4.7309,4.7309,4.7309,4.695,4.6082,4.5352,4.4697,4.4258,4.5111,4.6294,4.7688,4.8552,4.906,4.9299,5.0212,5.069,5.069,5.1648,5.2145,5.2097,5.1618,5.1379,5.1319,5.0391,4.9763,4.9269,4.7997,4.6681,4.5412,0.0,0.0,0.0,0.0,0.0,0.0,0.0,0.0,0.0,0.0,0.0,0.0,0.0,0.0,0.0,0.0,0.0,0.0,0.0,0.0,0.0,0.0,0.0,0.0,0.0,0.0,0.0,0.0,0.0,0.0,0.0,4.8686,4.9194,4.8536,4.9164,4.9942,5.0601,5.084,5.1199,5.1858,5.1947,5.2127,5.2606,5.2815,5.2905,5.2905,5.2636,5.2456,5.2456,5.3414,5.3922,5.3922,5.5329,5.6107,5.6286,5.6286,5.6406,5.6585,5.6585,5.6286,5.5777,5.6137,5.5987,5.5508,5.5867,5.6017,5.5807,5.3713,5.2905,5.2875,5.2695,5.2636,5.2516,0.0,0.0,0.0,0.0,0.0,0.0,4.2821,4.2761,4.2731,4.2611,4.3838,4.4825,4.5125,4.6441,4.7309,4.7309,4.7309,4.692,4.5963,4.5388,4.528,4.5631,4.6737,4.7851,4.8924,4.9717,5.0212,5.0481,5.099,5.1349,5.1648,5.2127,5.2366,5.2336,5.1947,5.1798,5.1768,5.1259,5.09,5.0524,4.9823,4.8237,4.6279,4.6279,4.5723,4.4915,4.5338,4.5582,4.5634,4.5267,0.0,0.0,0.0,0.0,0.0,0.0,0.0,0.0,0.0,0.0,0.0,0.0,0.0,0.0,0.0,0.0,0.0,0.0,0.0,0.0,0.0,0.0,0.0,0.0,4.9553,5.0166,5.0092,5.0421,5.09,5.1558,5.1618,5.1887,5.2546,5.2606,5.2905,5.3563,5.3862,5.4132,5.4431,5.4311,5.4012,5.3473,5.473,5.5149,5.461,5.6256,5.7244,5.7513,5.7812,5.7932,5.7962,5.8231,5.7752,5.6735,5.7304,5.7064,5.6346,5.6885,5.7094,5.6915,0.0,0.0,0.0,0.0,5.3174,5.3084,0.0,0.0,0.0,0.0,0.0,0.0,4.3409,4.3349,4.3529,4.4227,4.4885,4.5574,4.6262,4.692,4.7309,4.7309,4.7249,4.6681,4.5484,4.5334,4.5878,4.7227,4.8566,4.9613,5.0285,5.0943,5.1588,5.2097,5.1648,5.1708,5.2187,5.1678,5.1439,5.1439,5.1439,5.1439,5.1468,5.1977,5.1858,5.1319,5.1259,4.9418,4.686,4.68,4.6124,4.5226,4.6033,4.6369,4.6471,4.6689,0.0,0.0,0.0,0.0,0.0,0.0,0.0,0.0,0.0,0.0,0.0,0.0,0.0,0.0,0.0,0.0,0.0,0.0,0.0,0.0,0.0,0.0,0.0,0.0,4.9972,5.0614,5.1259,5.1379,5.1618,5.2127,5.2276,5.2606,5.3324,5.3414,5.3713,5.4491,5.5089,5.5658,5.6308,5.6735,0.0,0.0,0.0,5.6705,5.5628,5.6915,5.7842,5.8471,5.9039,5.9338,5.9368,5.9937,5.8919,5.6795,5.7962,5.7483,5.5957,5.7064,5.7513,5.7363,5.6585,5.5927,5.5239,5.3892,5.3503,5.3593,0.0,0.0,0.0,0.0,0.0,0.0,4.4137,4.3648,4.3529,4.4227,4.4885,4.5574,4.6262,4.692,4.7309,4.7309,4.683,4.6411,4.6142,4.5603,4.6381,4.8731,4.9134,4.9823,5.099,5.1678,5.1828,5.1409,5.2336,5.2606,5.2217,5.2606,5.2785,5.2785,5.2785,5.2785,5.2785,5.2366,5.2127,5.1977,5.1439,5.084,5.0212,4.99,4.996,5.0155,5.0169,5.0517,5.0861,4.9809,4.888,4.8313,4.9102,4.8,0.0,0.0,0.0,0.0,0.0,0.0,0.0,0.0,0.0,0.0,0.0,0.0,0.0,0.0,0.0,0.0,0.0,0.0,0.0,4.9986,5.105,5.1858,5.2007,5.2456,5.2665,5.2247,5.2665,5.3473,5.47,5.479,5.5269,5.6436,5.6645,5.6795,5.6915,5.6555,5.6466,5.6705,5.7513,5.8052,5.8351,5.9668,6.0416,6.0535,6.0655,0.0,6.0715,6.0864,6.0625,6.0176,6.0416,6.0326,5.9997,6.0236,6.0027,5.9338,5.7603,5.6825,5.6585,5.5269,5.5448,5.6196,0.0,0.0,0.0,0.0,0.0,0.0,4.4317,4.3708,4.3409,4.3738,4.4407,4.5065,4.5753,4.6112,4.6441,4.677,4.6202,4.5878,4.5964,4.6506,4.7668,4.9673,5.0062,5.0541,5.1199,5.1858,5.2037,5.1708,5.2366,5.2516,5.2187,5.2187,5.2187,5.2187,5.2187,5.2187,5.2187,5.2187,5.2187,5.2187,5.2187,5.2187,5.2145,5.1359,5.0952,5.0827,5.1249,5.1479,5.1419,5.0624,4.9855,4.9406,5.0384,4.9461,4.7979,0.0,0.0,0.0,0.0,0.0,0.0,0.0,0.0,0.0,0.0,0.0,0.0,0.0,0.0,4.9209,4.8953,0.0,5.0315,5.0644,5.1558,5.2306,5.2636,5.3563,5.4072,5.3743,5.3982,5.47,5.6017,5.6137,5.6555,5.7543,5.7902,5.8231,5.856,5.8949,5.8979,5.859,5.9907,6.0266,5.9608,6.0924,6.1433,6.1104,6.1433,6.1433,6.1134,6.1463,6.1433,6.1104,6.1104,6.1104,6.1104,6.1104,6.0894,6.0475,5.9129,5.8171,5.7483,5.6496,5.6555,5.7004,0.0,0.0,0.0,0.0,0.0,0.0,0.0,4.3798,4.3349,4.3469,4.3947,4.4556,4.5214,4.5304,4.5454,4.5903,4.5424,4.5359,4.5984,4.7434,4.8925,5.0315,5.0883,5.1229,5.1229,5.1977,5.2336,5.2187,5.2336,5.2336,5.2187,5.1528,5.1229,5.1229,5.1229,5.1229,5.1259,5.1798,5.2007,5.2067,5.2875,5.3025,5.2774,5.2124,5.1339,5.0551,5.1126,5.1199,5.1011,5.071,5.0242,4.9852,5.0817,5.0482,4.9434,4.8395,4.8852,0.0,0.0,0.0,0.0,0.0,0.0,0.0,0.0,4.887,4.9127,4.8886,4.9205,4.9445,4.9258,4.9965,5.0794,5.1498,5.2276,5.2965,5.3503,5.473,5.5598,5.5748,5.5628,5.6017,5.7184,5.7423,5.7782,5.8471,5.9249,5.9907,6.0446,6.1642,6.1792,6.0715,6.2241,6.2301,6.0685,6.1732,6.2032,6.1493,6.2032,6.2002,6.1523,6.2061,6.2002,6.1493,6.1493,6.1493,6.1493,6.1373,6.1313,6.1253,6.0565,5.9638,5.862,5.7782,5.7483,5.7483,0.0,0.0,0.0,0.0,0.0,0.0,0.0,0.0,4.3499,4.4137,4.4257,4.4556,4.5214,4.5304,4.5095,4.4586,4.4466,4.5173,4.6983,4.7878,4.9134,5.102,5.1169,5.1229,5.1229,5.2426,5.2785,5.2187,5.2785,5.2785,5.2187,5.1528,5.1229,5.1229,5.1229,5.1229,5.1229,5.1289,5.1319,5.1439,5.2665,5.2486,5.1558,5.2624,5.2863,5.2467,5.084,5.0947,5.1787,5.1276,5.0793,5.0508,5.1006,5.0805,5.0063,4.8941,4.9033,4.9063,4.6929,4.6417,4.6815,4.8471,4.8998,4.9224,0.0,5.0014,5.0171,5.0057,5.0181,5.0632,5.1625,5.187,5.2187,5.2845,5.4042,5.488,5.497,5.6077,5.7124,5.7723,5.7244,5.7184,5.7932,5.853,5.9159,5.9817,6.1044,6.1792,6.1882,6.257,6.2899,6.275,6.2959,6.2959,6.275,6.2899,6.2929,6.2869,6.2929,6.2929,6.2869,6.2929,6.2929,6.2869,6.2869,6.2869,6.281,6.2241,6.2002,6.1912,6.1253,6.0924,6.0625,5.9338,5.889,5.889,0.0,0.0,0.0,0.0,0.0,0.0,0.0,0.0,0.0,4.4287,4.3947,4.3947,4.4646,4.4736,4.4236,4.2951,4.3747,4.4881,4.6291,4.7567,4.9164,5.1139,5.1339,5.1433,5.1433,5.2365,5.2773,5.2644,5.302,5.2942,5.2425,5.2012,5.1588,5.1229,5.1229,5.1041,5.0805,5.1088,5.125,5.1398,5.2107,5.2275,5.2126,5.2159,5.2234,5.2115,5.036,4.9881,0.0,4.9834,4.9597,4.9647,5.0795,5.0357,4.9435,4.9503,4.9055,4.8401,4.7846,4.7896,4.8365,4.9449,4.9837,5.0113,5.0758,5.0577,5.0401,5.1102,5.1255,5.1506,5.2282,5.2612,5.3114,5.4192,5.482,5.5448,5.6196,5.7094,5.7932,5.862,5.8112,5.7812,5.8082,5.9428,6.0236,6.0086,6.2032,6.3049,6.269,6.3647,6.4036,6.3617,6.4006,6.4006,6.3617,6.3617,6.3438,6.3079,6.3079,6.3079,6.3079,6.3079,6.3079,6.3079,6.3079,6.3079,6.3049,6.278,6.266,6.26,6.1942,6.1672,6.1583,6.0625,6.0027,5.9668,0.0,0.0,0.0,0.0,0.0,0.0,0.0,0.0,0.0,0.0,4.4018,4.3678,4.4018,4.3898,4.3329,4.2308,4.3319,4.4642,4.6057,4.7507,4.9164,5.1139,5.1463,5.1572,5.1572,5.2265,5.2722,5.291,5.2936,5.2852,5.2743,5.2372,5.2037,5.1768,5.1768,5.1578,5.1272,5.1625,5.1631,5.159,5.2267,5.2483,5.2297,5.1905,5.145,5.0882,4.9781,4.9186,4.8872,4.8698,4.8661,4.8904,5.0047,4.961,4.8798,4.9328,4.8534,4.7643,4.816,4.861,4.9119,4.9846,5.0199,5.0597,5.1216,5.0828,5.064,5.164,5.1798,5.1964,5.258,5.3196,5.3953,5.5066,5.5645,5.6316,5.7244,5.8112,5.871,5.883,5.874,5.8441,5.7902,5.9817,6.1134,6.1164,6.3109,6.4096,6.3647,6.4515,6.4695,6.4006,6.4485,6.4425,6.3767,6.3737,6.3528,6.3079,6.3079,6.3079,6.3079,6.3079,6.3079,6.3079,6.3079,6.3079,6.3079,6.3079,6.3079,6.3019,6.254,6.2361,6.2301,6.1822,6.1104,6.0386,0.0,0.0,0.0,0.0,0.0,0.0,0.0,0.0,0.0,0.0,0.0,0.0,0.0,4.2791,4.2671,4.32,4.329,4.4426,4.7057,4.7908,4.9164,5.1139,5.1463,5.1572,5.1572,5.2265,5.2627,5.2627,5.239,5.2546,5.3193,5.2486,5.2546,5.3114,5.3114,5.3114,5.3114,5.3114,5.264,5.1951,5.377,5.3188,5.1362,5.2345,5.1197,4.8994,4.9046,4.9281,4.938,4.8732,4.8612,4.8671,4.8622,4.8594,4.8624,4.8014,4.7375,4.6998,4.7654,4.7687,4.7877,4.9221,4.9872,5.0329,5.0721,5.0913,5.1062,5.1385,5.152,5.1889,5.2727,5.3912,5.4849,5.524,5.6816,5.8052,5.8082,5.9219,5.9548,5.8291,5.9249,5.9249,5.7304,5.9548,6.1882,6.3737,6.4575,6.4934,6.4964,6.4994,6.4695,6.4006,6.4006,6.3737,6.3109,6.3109,6.3109,6.3079,6.3079,6.3079,6.3079,6.3079,6.3079,6.3079,6.3079,6.3079,6.3079,6.3079,6.3079,6.3079,6.3049,6.3049,6.3049,6.3019,6.2181,6.1074,0.0,0.0,0.0,0.0,0.0,0.0,0.0,0.0,0.0,0.0,0.0,0.0,0.0,0.0,0.0,0.0,4.329,4.4037,4.5873,4.701,4.8327,4.9853,5.1196,5.1787,5.1572,5.2029,5.2409,5.2863,5.2407,5.2402,5.2803,5.2402,5.2097,5.1887,5.1887,5.1697,5.1409,5.1524,5.1595,5.156,5.1814,5.1665,5.132,5.0525,4.9356,4.8114,0.0,4.7326,4.7157,4.7286,4.7427,4.7491,4.7928,4.7777,4.7178,4.5863,4.6401,4.7264,4.6376,4.7485,4.8938,4.938,4.9917,5.0579,5.1518,5.1267,5.1119,5.2318,5.2544,5.2719,5.3331,5.4175,5.5078,5.6094,5.6534,5.7274,5.859,5.8381,5.877,6.0535,5.9967,6.0206,6.2151,6.2002,6.1852,6.2061,6.3917,6.4844,6.4366,6.4336,6.4066,6.3408,6.3378,6.3288,6.3079,6.3079,6.3079,6.3079,6.3079,6.3079,6.3079,6.3079,6.3079,6.3079,6.3079,6.3079,6.3079,6.3079,6.3079,6.3079,6.3079,6.3079,6.3079,6.3079,6.278,6.2361,0.0,0.0,0.0,0.0,0.0,0.0,0.0,0.0,0.0,0.0,0.0,0.0,0.0,0.0,0.0,0.0,0.0,4.3858,4.5214,4.6112,4.7189,4.8506,4.9778,5.0321,5.0065,5.0563,5.0895,5.1058,5.1353,5.1618,5.1828,5.2097,5.2097,5.1917,5.1917,5.1727,5.1469,5.1631,5.1725,5.168,5.0969,5.0733,5.0607,4.8959,4.7639,0.0,4.6431,4.5843,4.5343,4.6214,4.665,4.6853,4.7056,4.6564,4.5802,4.5148,4.5571,4.6147,4.5497,4.6914,4.8654,4.8698,4.9571,5.0681,5.1218,5.135,5.167,5.2703,5.3275,5.3523,5.3517,5.4348,5.5253,5.6131,5.6521,5.7381,5.9086,5.9175,5.9737,6.1553,6.1014,6.1343,6.3438,6.269,6.2121,6.2151,6.3498,6.4126,6.3677,6.3438,6.3258,6.3079,6.3079,6.3079,6.3079,6.3079,6.3079,6.3079,6.3079,6.3079,6.3079,6.3079,6.281,6.2391,6.2869,6.281,6.2421,6.2869,6.3079,6.3079,6.3079,6.3079,6.3079,6.3079,6.3079,6.3019,0.0,0.0,0.0,0.0,0.0,0.0,0.0,0.0,0.0,0.0,0.0,0.0,0.0,0.0,0.0,0.0,0.0,0.0,4.5125,4.5244,4.5873,4.716,4.7508,4.7538,4.7249,4.8096,4.8207,4.7509,4.9191,5.0113,5.0312,5.1411,5.2276,5.2923,5.2875,5.2905,5.2983,5.2935,5.2624,5.2122,5.1208,5.0223,4.9186,4.7753,4.6153,4.4798,4.555,4.5053,4.424,4.5459,4.6256,4.6645,4.6065,4.5195,4.4527,4.5552,4.4842,4.3913,4.4996,4.6192,4.7136,4.7183,4.8874,5.0407,4.9868,5.12,5.252,5.2549,5.3506,5.412,5.3246,5.4298,5.5271,5.5358,5.668,5.8206,5.944,6.1248,6.2136,6.1257,6.2301,6.26,6.1373,6.1822,6.266,6.3827,6.3378,6.3079,6.3079,6.248,6.2421,6.3049,6.3079,6.3079,6.3079,6.3079,6.3079,6.3079,6.3079,6.3079,6.3079,6.3079,6.2391,6.1283,6.254,6.2361,6.1313,6.257,6.3079,6.3079,6.3079,6.3079,6.3079,6.3079,6.3079,6.3079,0.0,0.0,0.0,0.0,0.0,0.0,0.0,0.0,0.0,0.0,0.0,0.0,0.0,0.0,0.0,0.0,0.0,0.0,4.3798,4.4766,4.5454,4.5783,4.6655,4.7062,4.677,4.7211,4.7081,4.6414,4.7348,4.7718,4.7598,4.7729,4.8268,4.9028,4.8506,4.8865,4.9749,4.9205,4.9149,4.941,4.8521,4.7896,4.7374,4.6225,4.5391,4.4851,4.5068,4.4937,4.4792,4.5605,4.5769,4.5657,4.594,4.5302,4.4216,4.3359,4.3966,4.4759,4.3855,4.5361,4.7206,4.7188,4.797,4.8784,4.9145,5.0262,5.1371,5.1824,5.2545,5.3007,5.281,5.3198,5.3879,5.4599,5.6006,5.7379,5.8423,5.9819,6.0992,6.1762,6.257,6.3139,6.3258,6.3408,6.3258,6.263,6.2899,6.3079,6.3079,6.2929,6.2899,6.3079,6.3079,6.3079,6.3079,6.3079,6.3079,6.3079,6.3079,6.3079,6.3079,6.3079,6.2899,6.26,6.2929,6.2899,6.26,6.2929,6.3079,6.3079,6.3079,6.3079,6.3079,6.3079,6.3079,6.3079,0.0,0.0,0.0,0.0,0.0,0.0,0.0,0.0,0.0,0.0,0.0,0.0,0.0,0.0,0.0,0.0,0.0,0.0,0.0,4.4616,4.4855,4.4855,4.518,4.5166,4.4785,4.5433,4.5221,4.4066,4.5594,4.615,4.5695,4.6109,4.6624,4.7149,4.6682,4.6845,4.7466,4.7495,4.777,0.0,0.0,4.6483,4.6483,4.4792,4.4458,4.4937,4.5227,4.5518,4.5895,4.6824,4.6271,4.5388,4.6259,4.5226,4.3643,4.3336,4.3599,4.3834,4.3196,4.4699,4.6407,4.6123,4.7262,4.8516,4.8896,4.9912,5.0938,5.1555,5.2185,5.2623,5.2623,5.2856,5.3413,5.4529,5.5975,5.7378,5.8323,6.0037,6.1503,6.245,6.2839,6.3318,6.3947,6.3767,6.3288,6.257,6.26,6.266,6.266,6.266,6.2899,6.3468,6.3468,6.3468,6.3468,6.3199,6.3079,6.3079,6.3079,6.3079,6.3079,6.3079,6.275,6.2241,6.2839,6.275,6.2271,6.2839,6.3079,6.3079,6.3079,6.3079,6.3079,6.3079,6.3079,6.3079,0.0,0.0,0.0,0.0,0.0,0.0,0.0,0.0,0.0,0.0,0.0,0.0,0.0,0.0,0.0,0.0,0.0,0.0,0.0,0.0,4.4407,4.4317,4.3698,4.3119,4.2591,4.3612,4.3366,4.1776,4.4147,4.4988,4.4398,4.5258,4.5874,4.6223,4.5874,4.5786,4.5917,4.6785,4.7131,4.6998,4.571,4.5591,4.5878,0.0,4.3835,4.5111,4.5866,4.6505,4.7097,4.8286,4.709,4.5316,4.6594,4.5132,4.3125,4.4089,4.3384,4.2414,4.2836,4.4198,4.5292,4.4825,4.6716,4.8696,4.8863,4.9748,5.0744,5.1471,5.2005,5.2397,5.2659,5.2885,5.3395,5.4607,5.635,5.7732,5.8311,6.0847,6.2672,6.2724,6.2899,6.3199,6.3827,6.3228,6.2899,6.3079,6.263,6.2361,6.2361,6.2361,6.2899,6.4096,6.4126,6.4126,6.4126,6.3528,6.3199,6.3199,6.3109,6.3079,6.3079,6.3079,6.245,6.1433,6.26,6.2421,6.1463,6.26,6.3079,6.3079,6.3079,6.3079,6.3079,6.3079,6.3079,6.3079,0.0,0.0,0.0,0.0,0.0,0.0,0.0,0.0,0.0,0.0,4.5992,4.5633,0.0,0.0,0.0,0.0,0.0,0.0,0.0,0.0,0.0,4.4347,4.3872,4.3567,4.3484,4.3448,4.324,4.2734,4.3588,4.3691,4.3012,4.2669,4.3119,4.4168,4.3172,4.3634,4.5056,4.4875,4.4851,4.4985,4.4831,4.4469,4.4121,4.4399,0.0,0.0,4.7027,4.7521,4.7724,4.8478,4.6861,4.4761,4.601,4.4863,4.2966,4.2688,4.2755,4.2861,4.2961,4.3885,4.4825,4.5255,4.602,4.7018,4.7995,4.8825,4.9749,5.1363,5.1345,5.1497,5.3065,5.2955,5.2943,5.3729,5.6281,5.7664,5.6247,6.0085,6.243,6.0871,6.1628,6.251,6.3169,6.2151,6.1912,6.2989,6.3438,6.3677,6.3677,6.3677,6.4036,6.4814,6.4844,6.4844,6.4844,6.4186,6.3827,6.3827,6.3318,6.3079,6.3079,6.3079,6.2959,6.275,6.2989,6.2959,6.275,6.2989,6.3079,6.3079,6.3079,6.3079,6.3079,6.3079,6.3079,6.3079,0.0,0.0,0.0,0.0,0.0,0.0,0.0,0.0,4.616,4.5843,4.5214,4.4915,4.5244,4.5304,0.0,0.0,0.0,0.0,0.0,0.0,0.0,4.5323,4.4798,4.4329,4.3826,4.3808,4.3402,4.2498,0.0,4.3213,4.304,4.2466,4.2736,4.3666,4.2707,4.2847,4.3754,4.3947,4.3965,4.3903,4.4385,4.4414,4.4194,0.0,0.0,0.0,4.8304,4.8566,4.8209,4.8018,4.6947,4.5839,4.6204,4.5182,4.3665,4.2528,4.259,4.2986,4.2986,4.379,4.4769,4.5347,4.5899,4.6603,4.7793,4.8264,4.9009,5.0824,5.0911,5.1149,5.2746,5.2775,5.299,5.4125,5.6884,5.8302,5.6909,6.038,6.2517,6.0875,6.1541,6.2211,6.254,6.2002,6.2032,6.3019,6.3348,6.3647,6.3977,6.4665,6.5203,6.5533,6.5533,6.5533,6.5533,6.4874,6.4366,6.4006,6.3707,6.3378,6.3079,6.3079,6.3079,6.3079,6.3079,6.269,6.2121,6.278,6.266,6.2121,6.281,6.3079,6.3079,6.3079,6.3079,6.3079,0.0,0.0,0.0,0.0,0.0,0.0,0.0,4.6202,4.5873,4.5185,4.4496,4.4317,4.4825,4.5005,4.5304,0.0,0.0,0.0,0.0,0.0,0.0,0.0,0.0,0.0,4.4222,0.0,0.0,4.2772,4.3069,0.0,0.0,0.0,0.0,0.0,4.3209,4.3069,4.3371,4.3907,4.3936,0.0,0.0,4.4778,0.0,0.0,0.0,0.0,0.0,4.9349,4.877,4.8011,4.7567,4.7147,4.6384,4.5368,4.4219,4.2793,4.269,4.3037,4.3263,4.4041,4.4945,4.5522,4.5999,4.662,4.7909,4.8137,4.8596,5.0666,5.0909,5.1149,5.2688,5.2862,5.3303,5.4774,5.7088,5.8451,5.7542,6.0381,6.2136,6.1027,6.1486,6.2002,6.2271,6.2181,6.2421,6.3199,6.3558,6.3917,6.4395,6.5562,6.6221,6.6221,6.6221,6.6221,6.6221,6.5562,6.4964,6.4425,6.4126,6.3737,6.3258,6.3139,6.3079,6.3079,6.3079,6.2331,6.1224,6.254,6.2301,6.1253,6.257,6.3079,6.3079,6.3079,6.3079,6.3079,0.0,0.0,0.0,0.0,0.0,0.0,0.0,4.5783,4.5155,4.4496,4.3798,4.3409,4.3469,4.4047,4.4436,0.0,0.0,0.0,0.0,0.0,0.0,0.0,0.0,0.0,0.0,0.0,0.0,4.5361,4.4381,0.0,0.0,0.0,0.0,0.0,0.0,4.4355,4.533,4.4953,0.0,0.0,0.0,0.0,0.0,0.0,0.0,0.0,0.0,4.964,4.9582,4.9484,4.8766,4.7651,4.6107,4.4807,4.375,4.3123,4.2936,4.3187,4.4192,4.492,4.5547,4.61,4.6276,4.6781,4.8501,4.8435,4.8816,5.1788,5.1519,5.141,5.3878,5.3849,5.3772,5.4832,5.611,5.6807,5.6279,5.8838,6.0696,6.0326,6.0842,6.1672,6.2869,6.245,6.26,6.3827,6.5054,6.5772,6.5832,6.652,6.6909,6.6909,6.6909,6.6909,6.6909,6.6251,6.5892,6.5802,6.4575,6.3977,6.3887,6.3318,6.3079,6.3079,6.3079,6.2331,6.1224,6.254,6.2301,6.1253,6.257,6.3079,6.3079,6.3079,6.3079,6.3079,0.0,0.0,0.0,0.0,0.0,0.0,0.0,4.6082,4.5663,4.5005,4.4676,4.4496,4.4496,4.5125,4.5364,0.0,0.0,0.0,0.0,0.0,0.0,0.0,0.0,0.0,0.0,0.0,4.5764,4.5637,4.5298,0.0,0.0,0.0,0.0,0.0,0.0,4.5169,4.5994,4.5346,0.0,0.0,0.0,0.0,0.0,0.0,0.0,0.0,0.0,0.0,4.9504,4.8064,4.7546,4.7041,4.4286,4.3201,4.2736,4.2131,4.2685,4.3564,4.4016,4.4794,4.5623,4.6175,4.6874,4.7594,4.821,4.8735,4.9504,5.1135,5.1323,5.1672,5.3065,5.3442,5.3767,5.4558,5.622,5.7355,5.7139,5.9626,6.135,6.1056,6.1613,6.2102,6.248,6.26,6.3228,6.4515,6.5114,6.5772,6.655,6.6849,6.6999,6.6999,6.6999,6.6999,6.6999,6.6729,6.64,6.6011,6.5054,6.4395,6.3977,6.3348,6.3079,6.3079,6.3079,6.1882,6.0057,6.2181,6.1822,6.0116,6.2241,6.3079,6.3079,6.3079,6.3079,6.3079,0.0,0.0,0.0,0.0,0.0,4.707,4.6369,4.6142,4.5783,4.5095,4.4825,4.4796,4.4975,4.5603,4.5903,4.5633,0.0,0.0,0.0,0.0,0.0,0.0,0.0,0.0,0.0,0.0,4.6194,4.5908,4.5786,4.6172,0.0,0.0,4.6521,4.7266,0.0,0.0,0.0,0.0,0.0,0.0,0.0,0.0,0.0,0.0,0.0,0.0,0.0,0.0,0.0,0.0,0.0,4.6727,4.4107,4.3107,4.2679,4.1833,4.2509,4.3639,4.3966,4.4869,4.5824,4.6225,4.7077,4.7858,4.7998,4.8755,4.9742,5.0543,5.1178,5.1817,5.2507,5.3094,5.3733,5.44,5.6249,5.759,5.7542,5.9947,6.1645,6.1498,6.2055,6.2577,6.2804,6.3496,6.4395,6.5533,6.5592,6.6011,6.6939,6.6999,6.6999,6.6999,6.6999,6.6999,6.6999,6.6999,6.6759,6.6281,6.5443,6.4575,6.3707,6.3258,6.2869,6.251,6.2899,6.1792,5.9877,6.2151,6.1732,5.9937,6.2181,6.3079,6.3079,6.3079,6.3079,6.3079,0.0,0.0,0.0,0.0,0.0,0.0,0.0,4.5753,4.5065,4.4407,4.3708,4.3559,4.4257,4.4915,4.5574,4.6219,0.0,0.0,0.0,0.0,0.0,0.0,0.0,0.0,0.0,0.0,4.6376,4.6599,4.5728,4.6244,4.7976,4.7026,4.7087,4.7964,0.0,0.0,0.0,0.0,0.0,0.0,0.0,0.0,0.0,0.0,0.0,0.0,0.0,0.0,0.0,0.0,0.0,0.0,0.0,4.5327,4.4055,4.2608,4.259,4.3212,4.4317,4.5447,4.6301,4.6301,4.6737,4.7271,4.7835,4.8425,4.9154,5.0456,5.1178,5.1817,5.2507,5.3094,5.3733,5.44,5.6084,5.722,5.6937,5.9103,6.0794,6.1056,6.169,6.2742,6.4294,6.5382,6.6251,6.6909,6.6969,6.6969,6.6999,6.6999,6.6999,6.6999,6.6999,6.6999,6.6999,6.6999,6.6999,6.6969,6.5652,6.4366,6.3079,6.3079,6.2361,6.1194,6.251,6.2331,6.1194,6.254,6.2301,6.1224,6.257,6.3079,6.3079,6.3079,6.3079,6.3079,0.0,0.0,0.0,0.0,0.0,0.0,0.0,4.6411,4.5933,4.5723,4.5472,4.5412,4.5622,4.6292,4.677,4.698,0.0,0.0,0.0,0.0,0.0,0.0,0.0,0.0,0.0,0.0,4.7023,4.7066,4.7123,4.7455,4.8007,4.7836,4.8004,4.8355,4.7764,4.7679,0.0,0.0,0.0,0.0,0.0,0.0,4.8769,0.0,0.0,0.0,0.0,0.0,0.0,0.0,0.0,0.0,0.0,0.0,0.0,4.3163,4.3337,4.363,4.4351,4.5098,4.585,4.6237,4.7604,4.8896,4.8636,4.9347,5.0112,5.0026,5.0859,5.1672,5.1875,5.2804,5.3733,5.44,5.6084,5.7421,5.7771,6.0063,6.1674,6.1792,6.2761,6.3795,6.4753,6.4724,6.5293,6.6879,6.6161,6.6041,6.6939,6.6999,6.6999,6.6999,6.6999,6.6999,6.6999,6.6999,6.6999,6.6969,6.6101,6.4784,6.3079,6.3528,6.275,6.1194,6.251,6.2331,6.1224,6.254,6.2301,6.1253,6.257,6.3079,6.3079,6.3079,6.3079,6.3079,0.0,0.0,0.0,0.0,0.0,0.0,0.0,4.6741,4.6279,4.6279,4.6082,4.6022,4.6249,4.6681,4.704,4.7279,0.0,0.0,0.0,0.0,0.0,0.0,0.0,0.0,0.0,4.7309,4.7309,4.7309,4.734,4.751,4.7837,4.7817,4.8057,4.8438,4.8133,4.8091,0.0,0.0,0.0,0.0,0.0,0.0,4.8798,0.0,0.0,0.0,0.0,0.0,0.0,0.0,0.0,0.0,0.0,0.0,0.0,0.0,4.4387,4.4082,4.4626,4.5446,4.6134,4.6504,4.8,4.9294,4.893,4.9623,5.0211,4.9805,5.0888,5.1904,5.1672,5.2862,5.3936,5.411,5.6345,5.7999,5.7961,6.0323,6.2027,6.1872,6.326,6.4452,6.5142,6.5143,6.5652,6.6909,6.6221,6.6131,6.6939,6.6999,6.6999,6.6999,6.6999,6.6999,6.6999,6.6999,6.6999,6.6969,6.6311,6.4964,6.3109,6.3707,6.2929,6.1194,6.251,6.26,0.0,6.275,6.26,6.1942,6.275,6.3079,6.3079,6.3079,6.3079,6.3079,0.0,0.0,0.0,0.0,0.0,0.0,0.0,0.0,0.0,4.6339,4.5843,4.5693,4.6279,4.6339,4.6651,0.0,0.0,0.0,0.0,0.0,0.0,0.0,0.0,0.0,4.7309,4.7309,4.7309,4.7309,4.6681,4.6839,4.7581,4.7243,4.7494,4.821,4.848,4.851,4.8309,0.0,0.0,0.0,4.8869,4.8989,0.0,0.0,0.0,0.0,0.0,0.0,0.0,0.0,0.0,0.0,0.0,0.0,0.0,0.0,0.0,0.0,0.0,4.6157,4.6919,4.6973,4.7926,4.8864,4.8864,4.9331,0.0,4.9785,5.1294,5.2397,5.1846,5.3297,5.4371,5.3704,5.6752,5.881,5.7521,6.008,6.1875,6.1584,6.3327,6.4746,6.5318,6.6372,6.6999,6.6999,6.6999,6.6999,6.6999,6.6999,6.6999,6.6999,6.6999,6.6999,6.6999,6.6999,6.6939,6.6849,6.6311,6.4964,6.2959,6.3737,6.2989,6.1194,6.251,6.3079,6.3079,6.3079,6.3079,6.3079,6.3079,6.3079,6.3079,6.3079,6.3079,6.3079,0.0,0.0,0.0,0.0,0.0,0.0,0.0,0.0,0.0,0.0,4.695,4.689,4.707,4.707,4.713,0.0,0.0,0.0,0.0,0.0,0.0,0.0,0.0,0.0,4.7309,4.7309,4.7309,4.7309,4.7302,4.7387,4.7624,4.7897,4.7832,4.7578,4.8265,4.8577,4.8598,4.9164,0.0,0.0,4.9397,4.9514,0.0,0.0,0.0,0.0,4.8391,4.7927,0.0,0.0,0.0,0.0,0.0,0.0,0.0,0.0,4.5846,4.5545,4.5699,0.0,4.65,4.6952,4.8311,4.9478,0.0,4.9589,4.9959,5.0946,5.1904,5.2659,5.3007,5.4226,5.501,5.4371,5.6665,5.8431,5.8051,6.0301,6.1972,6.1916,6.3635,6.4753,6.4393,6.5982,6.6999,6.6999,6.6999,6.6999,6.6999,6.6999,6.6999,6.6999,6.6999,6.6999,6.6999,6.6999,6.649,6.5503,6.634,6.4934,6.1642,6.3797,6.3438,6.1194,6.251,6.3079,6.3079,6.3079,6.3079,6.3079,6.3079,6.3079,6.3079,6.3079,6.3079,6.3079,0.0,0.0,0.0,0.0,0.0,0.0,0.0,0.0,0.0,0.0,0.0,0.0,0.0,0.0,0.0,0.0,0.0,0.0,0.0,0.0,0.0,0.0,0.0,4.686,4.686,4.686,4.686,4.686,4.6946,4.7182,4.7452,4.7922,4.7993,4.7657,4.8285,4.8877,4.9329,4.9447,4.939,4.915,4.9553,0.0,0.0,0.0,0.0,0.0,4.7898,4.755,0.0,4.8014,4.755,4.6824,0.0,0.0,0.0,0.0,4.5895,4.5895,4.5895,4.6425,4.7061,4.7669,4.8787,4.9805,5.0124,4.9901,5.0046,5.1352,5.2136,5.2746,5.3384,5.4313,5.5068,5.5329,5.6781,5.8256,5.935,6.0598,6.1407,6.1524,6.2927,6.392,6.4006,6.5922,6.7182,6.6999,6.7121,6.7182,6.6999,6.6999,6.6999,6.6999,6.6999,6.6999,6.6999,6.6999,6.634,6.5054,6.637,6.5383,6.251,6.4246,6.4096,6.2421,6.2241,6.251,6.3019,6.2421,6.254,6.3079,6.3079,6.3079,6.3079,6.3079,6.3079,6.3079,0.0,0.0,0.0,0.0,0.0,0.0,0.0,0.0,0.0,0.0,0.0,0.0,0.0,0.0,0.0,0.0,0.0,0.0,0.0,0.0,0.0,0.0,0.0,4.6279,4.6279,4.619,4.619,4.6279,4.6279,4.6621,4.716,4.7679,4.7964,4.8049,4.8519,4.923,5.0004,4.9418,4.9097,4.9098,4.932,0.0,0.0,0.0,0.0,0.0,0.0,0.0,0.0,4.8217,4.8014,4.7521,4.7608,0.0,0.0,0.0,0.0,0.0,4.6011,4.6882,4.7927,4.8566,4.9204,4.9892,5.056,5.0211,5.0104,5.1585,5.2339,5.2949,5.3675,5.4429,5.5271,5.6258,5.7127,5.8602,6.1051,6.11,6.1025,6.1306,6.2393,6.3441,6.4155,6.6222,6.7426,6.706,6.7304,6.7365,6.6999,6.6999,6.6999,6.6999,6.6999,6.6999,6.6999,6.6999,6.634,6.5054,6.637,6.5951,6.4006,6.4695,6.4635,6.3887,6.2151,6.2061,6.2989,6.1882,6.2061,6.3079,6.3079,6.3079,6.3079,6.3079,6.3079,6.3079,0.0,0.0,0.0,0.0,0.0,0.0,0.0,0.0,0.0,0.0,0.0,0.0,0.0,0.0,0.0,0.0,0.0,0.0,0.0,0.0,0.0,4.6501,4.6339,4.6279,4.6279,4.5753,4.5753,4.6279,4.6279,4.6339,4.6501,4.7297,4.788,4.829,4.8913,4.9255,4.9417,4.9075,4.8935,4.8886,4.8325,0.0,0.0,0.0,0.0,0.0,0.0,0.0,0.0,4.6911,4.6708,4.6272,4.6795,0.0,0.0,0.0,0.0,0.0,4.6534,4.723,4.7927,4.8566,4.9204,4.9892,5.056,5.0211,5.0365,5.2717,5.3297,5.3733,5.4894,5.6084,5.6781,5.6461,5.8278,6.0339,6.2419,6.2393,6.2389,6.2945,6.4479,6.5402,6.5288,6.6882,6.7669,6.706,6.7304,6.7365,6.6999,6.6999,6.6999,6.6999,6.6999,6.6999,6.6999,6.6999,6.634,6.5054,6.637,6.5951,6.4006,6.4695,6.4635,6.3947,6.3139,6.2899,6.3049,6.2869,6.2899,6.3079,6.3079,6.3079,6.3079,6.3079,6.3079,6.3079,0.0,0.0,0.0,0.0,0.0,0.0,0.0,0.0,0.0,0.0,0.0,0.0,0.0,0.0,0.0,0.0,0.0,0.0,0.0,0.0,0.0,4.7399,4.7126,4.6766,4.6322,4.6022,4.6172,4.686,4.686,4.686,4.686,4.7546,4.8316,4.923,4.9017,4.9029,4.9219,4.9012,4.8745,4.8509,0.0,0.0,0.0,0.0,0.0,0.0,0.0,0.0,0.0,0.0,4.6417,4.6011,4.6621,0.0,0.0,0.0,0.0,0.0,4.665,4.7288,4.8101,4.9436,4.9727,5.0104,5.1817,5.1178,5.1033,5.3936,5.3733,5.35,5.5126,5.6171,5.7071,5.7855,6.0355,6.2145,6.2007,6.2145,6.2578,6.336,6.4516,6.5281,6.5467,6.7002,6.7789,6.7304,6.7426,6.7426,6.7304,6.7121,6.6999,6.6999,6.6999,6.6999,6.6999,6.6999,6.634,6.5054,6.637,6.6131,6.4575,6.4874,6.4844,6.4455,6.275,6.2421,6.3019,6.2301,6.245,6.3079,6.3079,6.3079,6.3079,6.3079,6.3079,6.3079,0.0,0.0,0.0,0.0,0.0,0.0,0.0,0.0,0.0,0.0,0.0,0.0,0.0,0.0,0.0,0.0,0.0,0.0,0.0,0.0,4.8317,4.7992,4.7804,4.7297,4.6561,4.6411,4.6501,4.6916,4.7066,4.7216,4.7482,4.7988,4.8706,4.9482,4.8998,4.8791,4.8805,4.8632,4.8238,4.7809,0.0,0.0,0.0,0.0,0.0,0.0,0.0,0.0,0.0,0.0,0.0,0.0,0.0,0.0,0.0,4.5895,4.5982,4.6243,4.6882,4.7521,4.842,5.022,5.0211,5.0336,5.292,5.2049,5.1585,5.4749,5.4139,5.3617,5.5503,5.652,5.7737,5.9684,6.1997,6.3208,6.2348,6.2543,6.315,6.4156,6.488,6.5488,6.6008,6.7363,6.7999,6.7548,6.7608,6.7608,6.7487,6.7182,6.6999,6.6999,6.6999,6.6999,6.6999,6.6999,6.649,6.5503,6.652,6.646,6.5473,6.5323,6.5173,6.4904,6.275,6.2271,6.2989,6.2002,6.2181,6.3079,6.3079,6.3079,6.3079,6.3079,6.3079,6.3079,0.0,0.0,0.0,0.0,0.0,0.0,0.0,0.0,0.0,0.0,0.0,0.0,0.0,0.0,0.0,0.0,0.0,0.0,0.0,0.0,4.7752,4.7103,4.7661,4.7752,4.7249,4.6621,4.6107,4.5714,4.6358,4.7075,4.7964,4.8602,4.8645,4.8189,4.8919,4.8688,4.7688,4.7529,4.7138,4.6683,4.6236,0.0,0.0,0.0,0.0,0.0,0.0,0.0,0.0,0.0,0.0,0.0,0.0,0.0,4.5895,4.5895,4.6301,4.6911,4.755,4.8159,4.8972,5.0336,5.0211,5.0336,5.292,5.2049,5.1585,5.4749,5.4865,5.4952,5.6839,5.8232,5.9743,6.1704,6.2116,6.3031,6.5251,6.515,6.5258,6.6502,6.7235,6.7678,6.7817,6.8446,6.8476,6.7608,6.7789,6.785,6.7548,6.7182,6.6999,6.6999,6.6999,6.6999,6.6999,6.6999,6.6939,6.6849,6.6939,6.6939,6.6819,6.6221,6.5592,6.4934,6.4156,6.3528,6.3079,6.2989,6.2989,6.3079,6.3079,6.3079,6.3079,6.3079,6.3079,6.3079,0.0,0.0,0.0,0.0,0.0,0.0,0.0,0.0,0.0,0.0,0.0,0.0,0.0,0.0,0.0,0.0,0.0,0.0,0.0,4.9053,4.8791,4.8814,4.8822,4.8602,4.8126,4.7593,4.7365,4.7473,4.7322,4.751,4.8007,4.828,4.8165,4.7752,4.8504,4.8134,4.7019,4.7794,4.7366,4.6209,4.6609,4.6403,0.0,0.0,0.0,0.0,0.0,0.0,0.0,0.0,4.5895,4.5895,4.5895,4.6156,4.6475,4.6475,4.694,4.755,4.8188,4.8537,4.9233,5.1323,5.1112,5.0975,5.3559,5.2949,5.2746,5.5939,5.5474,5.5068,5.6955,5.9045,6.0936,6.223,6.2943,6.371,6.4862,6.5376,6.5867,6.677,6.7504,6.8007,6.8237,6.8476,6.8358,6.785,6.7729,6.7669,6.7487,6.7182,6.6999,6.6999,6.6999,6.6999,6.6999,6.6999,6.6999,6.6999,6.6999,6.6999,6.6969,6.6311,6.5652,6.4934,6.4306,6.3647,6.3079,6.3079,6.3079,6.3079,6.3079,6.3079,6.3079,6.3079,6.3079,6.3079,0.0,0.0,0.0,0.0,0.0,0.0,0.0,0.0,0.0,0.0,0.0,0.0,0.0,0.0,0.0,0.0,0.0,0.0,4.9404,4.9206,4.9188,4.9474,4.9249,4.8919,4.8503,4.8292,4.8171,4.8102,4.7746,4.7752,4.8007,4.8049,4.7922,4.7624,4.8091,4.7679,4.6756,4.7593,4.7163,4.5985,4.6609,4.6447,0.0,0.0,0.0,0.0,0.0,0.0,0.0,0.0,4.6011,4.6185,4.6185,4.6621,4.7143,4.7143,4.7579,4.8159,4.8624,4.8856,4.9553,5.173,5.1468,5.141,5.4168,5.3791,5.3646,5.6432,5.649,5.6461,5.8056,5.9742,6.1344,6.2642,6.3179,6.3702,6.45,6.5547,6.6396,6.6858,6.7689,6.828,6.8415,6.8386,6.8298,6.803,6.7789,6.7669,6.7669,6.7365,6.7182,6.7182,6.706,6.6999,6.6999,6.6999,6.6999,6.6999,6.6999,6.6999,6.6969,6.652,6.5832,6.4934,6.4515,6.3857,6.3079,6.3079,6.3079,6.3079,6.3079,6.3079,6.3079,6.3079,6.3079,6.3079,0.0,0.0,0.0,0.0,0.0,0.0,0.0,0.0,0.0,0.0,0.0,0.0,0.0,0.0,0.0,0.0,0.0,0.0,4.8279,4.848,4.8563,4.8563,4.8563,4.851,4.8271,4.851,4.8048,4.7023,4.7416,4.7753,4.8007,4.8218,4.8049,4.7581,4.7611,4.7322,4.6887,4.6697,4.6343,4.5895,4.5895,4.5895,4.5895,0.0,0.0,0.0,0.0,0.0,0.0,0.0,4.6301,4.6778,4.6778,4.7259,4.7782,4.7811,4.8246,4.8692,4.8692,4.9204,4.9988,5.1294,5.1149,5.1527,5.4691,5.4429,5.4081,5.6026,5.7971,5.9597,6.0531,6.0442,6.0939,6.315,6.2726,6.2739,6.4607,6.6059,6.6919,6.6919,6.8089,6.8772,6.8446,6.8386,6.8298,6.803,6.803,6.803,6.797,6.7669,6.7487,6.7487,6.7182,6.6999,6.6999,6.6999,6.6999,6.6999,6.6999,6.6999,6.6999,6.6999,6.6281,6.5054,6.5024,6.4306,6.3079,6.3079,6.3079,6.3079,6.3079,6.3079,6.3079,6.3079,6.3079,6.3079,0.0,0.0,0.0,0.0,0.0,0.0,0.0,0.0,0.0,0.0,0.0,0.0,0.0,0.0,0.0,0.0,0.0,0.0,4.6121,4.7619,4.8198,4.7362,4.8157,4.851,4.8271,4.8385,4.8304,4.812,4.812,4.8046,4.8007,4.8218,4.7794,4.6991,4.8531,4.8059,4.6283,4.7777,4.748,4.5969,4.6693,4.6852,4.6592,0.0,0.0,0.0,0.0,0.0,0.0,0.0,0.0,0.0,4.6778,4.7579,4.8624,4.9553,4.9611,4.9582,5.0511,5.022,5.0104,5.1846,5.2136,5.2484,5.4342,5.4487,5.5002,5.783,5.9246,6.0034,6.0293,6.1728,6.2864,6.2883,6.3204,6.3848,6.5075,6.6002,6.6545,6.6545,6.7709,6.8417,6.8119,6.8476,6.8417,6.7729,6.8059,6.7999,6.7365,6.7426,6.7426,6.7182,6.706,6.6999,6.6999,6.6999,6.6999,6.6999,6.6999,6.6999,6.6999,6.6999,6.652,6.5682,6.5233,6.4545,6.3677,6.3258,6.3079,6.3079,6.3079,6.3079,6.3079,6.3079,6.3079,6.3079,0.0,0.0,0.0,0.0,0.0,0.0,0.0,0.0,0.0,0.0,4.6441,4.6637,0.0,0.0,0.0,0.0,0.0,0.0,0.0,4.627,4.6943,4.6812,4.6943,4.7116,4.7435,4.7934,4.826,4.8385,4.8427,4.8175,4.7709,4.8218,4.788,4.6947,4.8249,4.8071,4.6771,4.7835,4.758,4.6618,4.7323,4.7257,4.6865,0.0,0.0,0.0,0.0,0.0,0.0,0.0,0.0,0.0,4.7532,4.8576,4.993,5.0191,5.0365,5.0627,5.141,5.1033,5.0975,5.3152,5.3326,5.3297,5.4575,5.4865,5.5758,5.8978,5.9947,6.05,6.1381,6.2934,6.3906,6.3444,6.3942,6.4586,6.5141,6.5906,6.6372,6.6372,6.7505,6.8179,6.803,6.8179,6.8179,6.7729,6.8059,6.8059,6.7578,6.7669,6.7608,6.7426,6.7121,6.6999,6.6999,6.6999,6.6999,6.6999,6.6999,6.6999,6.6999,6.6999,6.664,6.5951,6.5024,6.4246,6.3588,6.3228,6.3079,6.3079,6.3079,6.3079,6.3079,6.3079,6.3079,6.3079,0.0,0.0,4.3807,4.3807,0.0,0.0,0.0,0.0,0.0,0.0,4.6035,4.5758,0.0,0.0,0.0,0.0,0.0,0.0,0.0,0.0,4.5195,4.6506,4.5421,4.5223,4.6063,4.7263,4.7922,4.7922,4.8355,4.8175,4.7309,4.8175,4.8061,4.7222,4.7402,4.7662,4.7946,4.7358,4.7274,4.7596,4.7765,4.7521,4.7085,4.7724,0.0,0.0,0.0,0.0,0.0,0.0,0.0,0.0,4.8663,4.9959,5.1236,5.0162,5.0685,5.1643,5.1759,5.1759,5.2281,5.4633,5.44,5.3965,5.5326,5.5674,5.6549,5.9713,6.0412,6.1083,6.3283,6.4028,6.4366,6.4389,6.4764,6.5041,6.4955,6.5718,6.6372,6.6372,6.7328,6.797,6.791,6.7669,6.7669,6.791,6.803,6.8119,6.8327,6.8119,6.803,6.797,6.7365,6.706,6.6999,6.6999,6.6999,6.6999,6.6999,6.6999,6.6999,6.6999,6.664,6.5951,6.4665,6.3737,6.3169,6.3109,6.3079,6.3079,6.3079,6.3079,6.3079,6.3079,6.3079,6.3079,0.0,0.0,4.3206,4.3206,0.0,0.0,0.0,0.0,0.0,0.0,0.0,0.0,0.0,0.0,0.0,0.0,0.0,0.0,0.0,0.0,4.4783,4.4535,4.5913,4.6432,4.581,4.6901,4.7439,4.7439,4.8187,4.8175,4.7309,4.788,4.7508,4.6506,4.8217,4.8563,4.797,4.877,4.8763,4.8319,4.8435,4.8449,4.8391,4.903,4.8885,0.0,0.0,0.0,0.0,0.0,0.0,0.0,4.8663,4.9349,5.0249,5.0975,5.141,5.1846,5.2833,5.2746,5.263,5.3646,5.411,5.4856,5.7097,5.764,5.8462,6.1204,6.2114,6.2793,6.3827,6.5316,6.5711,6.3646,6.4679,6.5559,6.4961,6.5517,6.5994,6.5994,6.6942,6.7487,6.7243,6.7608,6.7789,6.7608,6.8059,6.8238,6.8059,6.8238,6.8119,6.7608,6.7487,6.7304,6.6999,6.6999,6.6999,6.6999,6.6999,6.6999,6.6999,6.6999,6.664,6.5951,6.5173,6.4425,6.3767,6.3288,6.3079,6.3079,6.3079,6.3079,6.3079,6.3079,6.3079,6.3079,0.0,0.0,0.0,0.0,0.0,0.0,0.0,0.0,0.0,0.0,0.0,0.0,0.0,0.0,0.0,0.0,4.2231,0.0,0.0,0.0,4.2496,4.2133,4.4256,4.5161,4.4489,4.5644,4.6462,4.6961,4.7624,4.7624,4.7005,4.7482,4.7342,4.6872,4.7992,4.8531,4.8536,4.9015,4.9143,4.898,4.9106,4.9001,4.8798,4.9436,4.9291,4.8769,4.9059,0.0,0.0,0.0,0.0,0.0,0.0,0.0,5.0627,5.0656,5.112,5.1759,5.2426,5.2804,5.3326,5.4575,5.582,5.6898,5.7576,5.9185,6.0951,6.2288,6.3119,6.3862,6.4843,6.6341,6.6794,6.4774,6.5538,6.612,6.5447,6.5643,6.5905,6.5905,6.6703,6.7182,6.6999,6.7304,6.7608,6.7729,6.7999,6.8238,6.8417,6.8298,6.8059,6.7729,6.7426,6.7182,6.6999,6.6999,6.6999,6.6999,6.6999,6.6999,6.6999,6.6999,6.664,6.5981,6.5652,6.4934,6.3977,6.3647,6.3348,6.3079,6.3079,6.3079,6.3079,6.3079,6.3079,6.3079,0.0,0.0,0.0,0.0,0.0,0.0,0.0,0.0,0.0,0.0,0.0,0.0,0.0,0.0,4.1234,0.0,0.0,0.0,0.0,0.0,0.0,4.0158,4.2422,4.3595,4.343,4.4593,4.5688,4.68,4.7199,4.7318,4.7123,4.7406,4.7614,4.7756,4.7874,4.8397,4.9282,4.9004,4.9124,4.961,4.9659,4.9349,4.8943,4.9563,4.9446,4.8972,4.9592,4.9766,4.9717,4.9717,0.0,0.0,0.0,0.0,5.1062,4.9988,5.0598,5.1614,5.1614,5.2681,5.4269,5.6213,5.7739,5.8573,5.7892,6.0371,6.2919,6.33,6.4097,6.5023,6.5862,6.7155,6.7603,6.6237,6.6518,6.6673,6.5996,6.5945,6.5994,6.5994,6.6643,6.7121,6.7121,6.706,6.7243,6.785,6.797,6.8269,6.8772,6.8358,6.809,6.803,6.7487,6.7121,6.6999,6.6999,6.6999,6.6999,6.6999,6.6999,6.6999,6.6999,6.67,6.6161,6.6071,6.5383,6.4336,6.4216,6.3797,6.3228,6.3228,6.3169,6.3079,6.3079,6.3079,6.3079,0.0,0.0,0.0,0.0,0.0,0.0,0.0,0.0,0.0,0.0,4.1957,4.1776,0.0,0.0,0.0,4.0594,4.0901,0.0,0.0,0.0,0.0,4.0505,4.2909,4.4312,4.4412,4.54,4.649,4.7614,4.7707,4.8243,4.9272,4.8605,4.8521,4.8887,4.9222,4.9556,4.9707,4.96,4.9844,5.0305,4.9912,4.964,4.9601,5.0124,4.9999,4.965,5.0124,5.0057,4.9717,4.9717,4.9717,0.0,0.0,0.0,4.9901,4.9727,5.0598,5.1614,5.1614,5.3282,5.5535,5.7404,5.7617,5.7738,5.9214,6.0921,6.2638,6.429,6.6086,6.7082,6.6192,6.7513,6.8166,6.6295,6.6518,6.6673,6.5996,6.6147,6.6314,6.6314,6.6972,6.7426,6.7426,6.7182,6.7182,6.7548,6.785,6.815,6.8446,6.8654,6.8535,6.803,6.791,6.7608,6.6999,6.6999,6.6999,6.6999,6.6999,6.6999,6.6999,6.6999,6.6939,6.6819,6.6251,6.5892,6.5712,6.5114,6.4485,6.3887,6.3887,6.3558,6.3079,6.3079,6.3079,6.3079,0.0,0.0,0.0,0.0,0.0,0.0,0.0,0.0,0.0,0.0,0.0,4.1261,0.0,0.0,0.0,4.0942,0.0,0.0,0.0,0.0,0.0,4.1483,4.2235,4.3256,4.4556,4.4404,4.5453,4.7782,4.7157,4.819,5.0772,5.0388,5.0145,5.0019,5.0909,5.0738,4.9802,5.0484,5.0484,5.0067,5.0173,5.0066,4.9805,5.0729,5.0738,5.0319,5.0808,5.0662,5.024,5.0155,4.9912,4.9717,4.9717,0.0,0.0,0.0,5.0075,5.0909,5.269,5.42,5.5789,5.8088,5.8346,5.8389,5.9591,6.1528,6.3365,6.4623,6.6796,6.8283,6.7722,6.8321,6.8646,6.7739,6.7208,6.6827,6.6519,6.6112,6.5975,6.6342,6.6845,6.7215,6.7517,6.7548,6.7608,6.7789,6.8059,6.8358,6.8654,6.8654,6.8417,6.803,6.803,6.7669,6.6999,6.7182,6.7182,6.6999,6.6999,6.6999,6.6999,6.6999,6.6999,6.6969,6.67,6.634,6.5981,6.5712,6.5173,6.4575,6.4575,6.4186,6.3588,6.3588,6.3378,6.3079,0.0,0.0,0.0,0.0,0.0,0.0,0.0,0.0,0.0,0.0,0.0,0.0,0.0,0.0,0.0,0.0,4.1455,0.0,0.0,0.0,0.0,4.2213,4.1907,4.262,4.4557,4.3808,4.4813,4.7865,4.6987,4.8319,5.1643,5.1962,5.1846,5.1439,5.2223,5.1897,5.0685,5.1352,5.1149,5.0502,5.0772,5.0511,5.0095,5.1154,5.1191,5.0784,5.1425,5.1335,5.0851,5.0603,5.032,5.0096,4.9922,4.996,0.0,0.0,0.0,5.0854,5.3866,5.4845,5.5637,5.8339,5.8662,5.8572,5.9396,6.1645,6.3779,6.4487,6.6888,6.8889,6.8889,6.8889,6.8889,6.8889,6.7935,6.7104,6.695,6.623,6.5937,6.6457,6.6836,6.718,6.7698,6.791,6.803,6.803,6.8238,6.8505,6.8772,6.8654,6.8417,6.8119,6.809,6.7819,6.7243,6.7426,6.7365,6.6999,6.6999,6.6999,6.6999,6.6999,6.6999,6.6999,6.6999,6.67,6.6251,6.6251,6.5862,6.5263,6.5263,6.4844,6.4246,6.4246,6.3857,6.3318,0.0,0.0,0.0,0.0,0.0,0.0,0.0,0.0,0.0,0.0,0.0,0.0,4.2846,4.2464,4.1856,4.1326,4.1806,4.1907,4.1351,4.1856,0.0,4.2213,4.269,0.0,4.4699,4.4645,4.574,4.7988,4.7937,4.9171,5.1643,5.2862,5.3384,5.3326,5.2804,5.2833,5.3239,5.2107,5.1933,5.242,5.1817,5.1178,5.0726,5.1199,5.1101,5.0842,5.1953,5.2009,5.1468,5.088,5.0944,5.1218,5.0629,5.0757,5.116,0.0,0.0,0.0,5.481,5.4997,5.5151,5.8064,5.7962,5.7394,5.8581,6.0948,6.3071,6.3749,6.655,6.8889,6.8889,6.8889,6.8889,6.8889,6.8304,6.7658,6.7012,6.6831,6.6801,6.6862,6.7185,6.7653,6.8266,6.8119,6.803,6.803,6.8238,6.8386,6.8446,6.8713,6.8713,6.8386,6.8386,6.8238,6.797,6.7669,6.7365,6.6999,6.6999,6.6999,6.6999,6.6999,6.6999,6.6999,6.6999,6.6969,6.6939,6.6939,6.655,6.5951,6.5951,6.5562,6.4964,6.4964,6.4545,6.3947,0.0,0.0,0.0,0.0,0.0,0.0,0.0,0.0,0.0,0.0,0.0,0.0,0.0,4.2322,4.2263,4.2384,4.2886,4.3137,4.2936,4.3112,0.0,4.3212,4.3062,4.3517,4.467,4.3987,4.5047,4.8021,4.728,4.8537,5.1643,5.2078,5.2978,5.4197,5.5184,5.4604,5.2949,5.3733,5.3239,5.2049,5.3065,5.2601,5.141,5.2865,5.3017,5.2536,5.2864,5.3018,5.2968,5.2267,5.2063,5.1975,5.1768,5.1827,5.1935,5.1826,5.2004,5.2632,5.4353,5.4845,5.5398,5.772,5.7584,5.7285,5.8817,6.1089,6.2779,6.27,6.5985,6.8554,6.7549,6.8188,6.8889,6.8889,6.8335,6.7843,6.7596,6.7196,6.7073,6.7504,6.7635,6.7917,6.8325,6.8535,6.8476,6.8298,6.7739,6.7792,6.8651,6.8031,6.7822,6.8356,6.8595,6.8476,6.803,6.7487,6.7121,6.6999,6.6999,6.6999,6.6999,6.6999,6.6999,6.6999,6.6999,6.6999,6.6999,6.6999,6.6849,6.664,6.664,6.6251,6.5652,6.5652,6.5233,6.4665,0.0,0.0,0.0,4.2474,0.0,4.2474,4.246,4.2103,4.1973,4.2108,0.0,0.0,0.0,0.0,4.2861,4.3212,4.3413,4.3514,4.3514,4.3514,4.3514,4.3514,4.3162,4.3351,4.4097,4.3229,4.4245,4.7434,4.6294,4.765,5.1323,5.1523,5.2555,5.4255,5.591,5.562,5.3936,5.5213,5.4894,5.3588,5.4255,5.3994,5.3297,5.3936,5.4052,5.3902,5.4188,5.4241,5.4019,5.3531,5.3314,5.3277,5.302,5.308,5.3179,5.2911,5.3133,5.3649,5.4624,5.4997,5.551,5.7172,5.7014,5.6868,5.8329,6.0831,6.2726,6.2506,6.5928,6.8554,6.7519,6.8188,6.8889,6.8889,6.852,6.8181,6.7966,6.7535,6.7412,6.7873,6.7935,6.8065,6.8503,6.8772,6.883,6.8564,6.7942,6.7966,6.8828,6.8058,6.785,6.8564,6.8682,6.8476,6.803,6.7487,6.7121,6.6999,6.6999,6.6999,6.6999,6.6999,6.6999,6.6999,6.6999,6.6999,6.6999,6.6999,6.6999,6.6999,6.6999,6.6729,6.634,6.634,6.5922,6.5353,0.0,4.2539,4.2314,4.284,4.2945,4.2943,4.3031,4.3,4.3165,4.3721,0.0,0.0,0.0,0.0,0.0,4.3815,4.3338,4.3037,4.3037,4.3037,4.3037,4.3037,0.0,0.0,4.3062,4.259,4.3607,4.6296,4.5315,4.6805,5.0693,5.1364,5.2323,5.353,5.4807,5.5736,5.6374,5.6432,5.6752,5.7071,5.5358,5.5358,5.6171,5.44,5.4081,5.4749,5.6026,5.5678,5.4604,5.4633,5.4877,5.5009,5.4351,5.4507,5.4849,5.4666,5.487,5.525,0.0,0.0,0.0,5.6519,5.6342,5.615,5.7129,6.0156,6.2841,6.3275,6.6318,6.8828,6.8828,6.8858,6.8889,6.8889,6.8889,6.8674,6.8027,6.7935,6.7935,6.7935,6.7935,6.8181,6.8797,6.8889,6.8889,6.8889,6.8858,6.8858,6.8889,6.8889,6.8889,6.8889,6.8564,6.8298,6.803,6.7669,6.7365,6.6999,6.6999,6.6999,6.6999,6.6999,6.6999,6.6999,6.6999,6.6999,6.6999,6.6999,6.6999,6.6999,6.6999,6.6999,6.6999,6.6999,6.658,6.6041,4.2511,4.2881,4.3391,4.3559,4.3533,4.3554,4.3594,4.3235,4.3154,0.0,0.0,0.0,4.4342,4.4392,4.4392,4.4392,4.4242,4.4166,4.4166,4.4166,4.4166,4.4166,4.4568,4.4794,4.4794,4.4644,4.5342,4.6863,4.7077,4.8133,5.0039,5.1127,5.2059,5.2862,5.3675,5.4662,5.5736,5.6665,5.6374,5.5474,5.771,5.7448,5.5881,5.7681,5.7332,5.6113,5.7884,5.7794,5.6942,5.738,5.7129,5.6428,5.5691,5.528,5.516,5.526,5.523,5.5149,5.53,0.0,0.0,0.0,0.0,0.0,5.789,5.9788,6.1528,6.2262,6.5075,6.7385,6.7212,6.8126,6.8889,6.8889,6.8889,6.8828,6.8643,6.8212,6.7935,6.7935,6.7935,6.7997,6.8181,6.8612,6.8889,6.8889,6.7997,6.7873,6.8828,6.8889,6.8889,6.8889,6.8564,6.8327,6.8298,6.7759,6.7487,6.7365,6.7121,6.6999,6.6999,6.6999,6.6999,6.6999,6.6999,6.6999,6.6999,6.6999,6.6999,6.6999,6.6999,6.6999,6.6999,6.6999,6.6879,6.6729,4.2947,4.3363,4.379,4.379,4.3991,4.4141,4.4141,4.3865,4.379,0.0,0.0,0.0,4.4593,4.4618,4.4618,4.4618,4.4618,4.4618,4.4618,4.4618,4.4618,4.4618,4.4945,4.5121,4.5121,4.4895,4.545,4.6778,4.7198,4.8355,5.0216,5.1185,5.2104,5.2978,5.3646,5.4342,5.5126,5.6374,5.6781,5.6665,5.8319,5.8668,5.8348,5.9684,5.9451,5.8581,5.9974,5.9772,5.8898,5.951,5.8997,5.8184,5.8256,5.7402,5.6404,5.6726,5.6395,5.5933,5.5711,5.5948,5.6293,5.6293,0.0,0.0,5.8246,6.0279,6.2257,6.2896,6.556,6.745,6.6667,6.7246,6.7884,6.7884,6.7884,6.8126,6.8797,6.8335,6.7935,6.7935,6.7935,6.7935,6.7935,6.852,6.8889,6.8889,6.8181,6.8089,6.8858,6.8889,6.8889,6.8889,6.8564,6.8386,6.8386,6.7939,6.7729,6.7729,6.7365,6.7243,6.7182,6.706,6.6999,6.6999,6.6999,6.6999,6.6999,6.6999,6.6999,6.6999,6.6999,6.6999,6.6999,6.6999,6.6819,6.661,0.0,4.389,4.389,4.389,4.4292,4.4618,4.4618,4.4618,4.4644,0.0,4.4769,4.4819,4.4819,4.4819,4.4819,4.4819,4.4819,4.4819,4.4819,4.4819,4.4819,4.4819,4.4869,4.4895,4.4895,4.4418,4.4967,4.6626,4.6717,4.8213,5.0916,5.1558,5.2516,5.3646,5.4255,5.4604,5.4807,5.5852,5.739,5.8987,5.8,5.9306,6.1687,6.0845,6.07,6.1106,6.1919,6.1338,6.0293,6.0993,6.0676,6.0142,6.1052,5.9841,5.8152,5.8398,5.8013,5.735,5.6788,5.6831,5.6977,5.6928,5.7389,0.0,5.843,6.1015,6.3486,6.4095,6.6349,6.7846,6.6514,6.6273,6.6273,6.6216,6.6216,6.679,6.8431,6.8181,6.7693,6.7539,6.7662,6.7812,6.7812,6.8458,6.8889,6.8889,6.8889,6.8889,6.8889,6.8889,6.8889,6.8889,6.8595,6.8446,6.8446,6.8179,6.803,6.803,6.7669,6.7487,6.7426,6.7121,6.6999,6.6999,6.6999,6.6999,6.6999,6.6999,6.6999,6.6999,6.6999,6.6939,6.6879,6.6879,6.652,6.6101,4.4468,4.4468,4.4468,4.4468,4.4543,4.4618,4.4618,4.4618,4.4794,4.5246,4.5698,4.5974,4.5974,4.5974,4.5974,4.5974,0.0,0.0,0.0,0.0,4.5974,4.5974,4.6401,4.6592,4.6592,4.6491,4.7103,4.8375,4.8942,5.0021,5.1534,5.2644,5.3579,5.4313,5.4458,5.5068,5.6026,5.5736,5.6403,5.7797,5.9103,5.9713,6.0032,6.1832,6.1338,5.9945,6.2122,6.1745,6.0324,6.1174,6.1902,6.2151,6.0663,5.988,5.9379,5.8644,5.8491,5.8447,5.8123,5.8193,5.8293,5.7811,5.7983,0.0,5.9083,5.9725,6.081,6.2749,6.3571,6.4132,6.4682,6.4779,6.4723,6.4497,6.4497,6.5041,6.6759,6.7024,6.659,6.5228,6.6256,6.7104,6.7104,6.8181,6.8889,6.8889,6.8889,6.8889,6.8889,6.8889,6.8889,6.8889,6.883,6.883,6.883,6.8476,6.8238,6.803,6.7669,6.7365,6.7121,6.706,6.6999,6.6999,6.6999,6.6999,6.6999,6.6999,6.6999,6.6999,6.6999,6.667,6.6191,6.6191,6.6131,6.6011,4.4618,4.4844,4.5045,4.5045,4.5296,4.5472,4.5472,4.5472,4.5573,4.5849,4.6125,4.6301,4.6301,4.6301,4.6301,4.6301,0.0,0.0,0.0,0.0,4.6301,4.6301,4.6577,4.6728,4.6728,4.6728,4.7281,4.8512,4.8864,5.0121,5.2235,5.2809,5.3777,5.4981,5.53,5.5823,5.6374,5.6055,5.6636,5.7913,5.9219,5.9742,6.0003,6.2238,6.2499,6.1774,6.2761,6.2654,6.2112,6.244,6.2875,6.3186,6.2612,6.148,6.0373,5.9967,5.9502,5.9021,5.8653,5.8693,5.8693,5.8258,5.8532,0.0,0.0,6.0163,6.1278,6.2556,6.3379,6.3732,6.3458,6.3373,6.3318,6.3072,6.2986,6.3259,6.3958,6.4967,6.5647,6.5647,6.6375,6.6919,6.6919,6.812,6.8889,6.8889,6.8889,6.8889,6.8889,6.8889,6.8889,6.8889,6.8889,6.8889,6.8889,6.8772,6.8535,6.8179,6.791,6.7608,6.7243,6.706,6.6999,6.6999,6.6999,6.6819,6.649,6.649,6.6311,6.6041,6.637,6.6101,6.5533,6.5533,6.5533,6.5562,4.4945,4.5321,4.5648,4.5648,4.6024,4.6301,4.6301,0.0,4.6351,4.6451,4.6376,4.6426,4.6753,4.6502,4.6401,4.6602,4.6627,0.0,4.6476,4.6677,4.6677,4.6476,4.6552,4.6577,4.6476,4.6577,4.718,4.8433,4.8433,4.9925,5.2826,5.2826,5.3831,5.562,5.6171,5.6607,5.6955,5.6955,5.7623,5.8726,5.951,5.9916,6.0264,6.2325,6.3254,6.3457,6.3291,6.3754,6.4363,6.4011,6.3974,6.4163,6.4728,6.3204,6.1301,6.1462,6.0621,5.9614,5.9215,5.9112,5.9011,5.8706,5.9,5.9427,0.0,0.0,0.0,6.2265,6.321,6.3585,6.2265,6.1997,6.176,6.092,6.123,6.1365,6.0935,6.25,6.4173,6.553,6.6037,6.6247,6.6221,6.7569,6.8612,6.8858,6.8889,6.8889,6.8889,6.8889,6.8889,6.8889,6.8889,6.8889,6.8889,6.8889,6.8772,6.8386,6.8179,6.791,6.7608,6.7243,6.7121,6.7121,6.691,6.649,6.6011,6.5862,6.5413,6.4904,6.5712,6.5533,6.4844,6.4934,6.5024,6.5114,4.6125,4.6175,4.6225,4.6225,4.6276,4.6301,0.0,0.0,4.6476,4.6979,4.6627,4.6878,4.8335,4.7179,4.6677,4.7657,4.7732,4.7531,4.7079,4.7958,4.8058,4.7018,4.7481,4.7506,4.6993,4.7481,4.8324,4.9576,4.9576,5.0912,5.3416,5.3416,5.4429,5.6287,5.6374,5.7361,5.8958,5.8958,5.9364,6.009,6.128,6.0816,5.9684,6.2151,6.2441,6.1718,6.3407,6.4781,6.5682,6.5351,6.564,6.5952,6.5204,6.3706,6.2249,6.2272,6.1484,6.0567,6.0267,6.0215,6.0111,5.9501,5.9402,5.9462,5.9462,0.0,5.9955,6.0569,0.0,6.0858,6.0621,0.0,0.0,5.7041,5.836,5.9455,5.8486,5.9894,6.1056,6.1231,6.2951,6.407,6.385,6.5796,6.7627,6.8797,6.8889,6.8889,6.8889,6.8889,6.8889,6.8889,6.8889,6.8889,6.8889,6.8889,6.8772,6.8386,6.8358,6.8238,6.791,6.7608,6.7426,6.7396,6.6492,6.6071,6.5951,6.5383,6.4725,6.4246,6.5503,6.5233,6.4186,6.4814,6.5024,6.5054,4.6426,4.6301,4.6301,4.6301,4.6577,0.0,0.0,0.0,4.733,4.7556,4.738,4.7757,4.9113,4.8636,4.8661,4.9766,4.9866,4.9766,4.9565,4.9364,4.9038,4.8586,4.8134,4.7807,4.7581,4.7782,4.8502,4.9784,4.9055,5.0578,5.4034,5.3317,5.4428,5.6926,5.6926,5.7826,5.9306,5.9306,5.9858,6.0816,6.1367,6.1106,6.0584,6.2412,6.2761,6.2416,6.3214,6.4331,6.5233,6.3884,6.488,6.6414,6.483,6.3789,6.3285,6.3739,6.238,6.0978,6.159,6.1528,6.1116,6.0692,6.0479,6.0372,6.0372,5.9908,5.9636,6.0092,0.0,0.0,0.0,0.0,0.0,0.0,5.9384,5.9743,5.8934,5.9652,6.0674,6.1795,6.2927,6.4083,6.5335,6.5632,6.6304,6.7627,6.775,6.775,6.775,6.8458,6.8889,6.8889,6.8889,6.8889,6.8889,6.8889,6.8772,6.8386,6.8386,6.8179,6.7729,6.7548,6.7426,6.7152,6.6761,6.637,6.5981,6.5712,6.5203,6.4695,6.5652,6.5173,6.4066,6.4784,6.5263,6.5592,4.6903,4.6753,4.6753,4.6753,4.7079,4.7355,4.7355,4.7933,4.8435,4.8586,4.846,4.8862,5.0142,4.959,4.9715,5.1147,5.1272,5.1348,5.1498,5.0745,5.0293,5.0293,4.9063,4.8435,4.8586,4.8435,4.8798,4.9764,4.8798,5.0192,5.3661,5.313,5.4235,5.6765,5.7134,5.8058,5.9335,5.9684,6.0555,6.1745,6.2093,6.2238,6.2296,6.2877,6.3312,6.3603,6.3852,6.4502,6.5024,6.3531,6.4528,6.6128,6.5014,6.4273,6.4052,6.514,6.3779,6.2148,6.3133,6.2956,6.2388,6.1806,6.15,6.1193,6.0829,6.016,5.972,5.9933,6.0197,0.0,0.0,0.0,6.0496,5.9553,0.0,5.9945,5.8797,5.9342,6.0372,6.1795,6.2555,6.3764,6.5601,6.5257,6.5288,6.6273,6.6704,6.6919,6.6919,6.815,6.8889,6.8889,6.8889,6.8889,6.8889,6.8889,6.8772,6.8535,6.8446,6.8179,6.7759,6.7608,6.7365,6.7091,6.685,6.646,6.6011,6.5802,6.5473,6.5084,6.5742,6.5413,6.4605,6.5114,6.5592,6.6011,4.7857,4.7857,4.7857,4.7857,4.7883,4.7883,4.7883,4.8837,4.9741,5.0268,4.9866,5.0167,5.185,4.959,4.8862,5.1096,5.1272,5.1498,5.2051,5.2051,5.2026,5.2026,5.0419,4.9791,5.0318,4.9816,4.954,4.9604,4.954,5.0283,5.159,5.291,5.4204,5.5528,5.6765,5.8058,5.9393,6.0613,6.1861,6.3138,6.4357,6.488,6.4735,6.3545,6.3864,6.5036,6.5668,6.589,6.5988,6.5829,6.5383,6.5203,6.6427,6.545,6.4288,6.6287,6.5842,6.4764,6.4826,6.4574,6.3984,6.267,6.2201,6.1649,6.032,6.0016,6.0016,6.0016,6.0197,6.0377,6.0377,6.0638,5.9932,0.0,5.8899,0.0,0.0,5.8213,5.9452,5.9243,6.0874,6.2293,6.2895,6.4118,6.4918,6.4949,6.618,6.6919,6.6919,6.815,6.8889,6.8889,6.8889,6.8889,6.8889,6.8889,6.8889,6.8889,6.8595,6.8386,6.8327,6.7759,6.7487,6.7457,6.6432,6.6041,6.5951,6.5323,6.4994,6.5084,6.5742,6.5981,6.5951,6.5981,6.5981,6.6011,4.9163,4.9012,4.8786,4.8033,4.8234,4.8611,4.8962,4.9339,4.9941,5.087,5.082,5.1473,5.3507,5.2879,5.2628,5.3381,5.411,5.431,5.3758,5.3733,5.3733,5.3733,5.2503,5.1548,5.0996,5.0795,5.0343,4.959,5.0436,5.1518,5.2876,5.4144,5.547,5.6708,5.7134,5.8058,5.9393,6.0671,6.1948,6.3167,6.4009,6.4096,6.3777,6.4183,6.4619,6.506,6.5222,6.5601,6.5863,6.4894,6.5622,6.6822,6.6393,6.6104,6.6173,6.7754,6.6642,6.5103,6.5996,6.5847,6.5274,6.4813,6.3819,6.2835,6.2378,6.1088,6.0016,6.0016,6.0197,6.0377,6.0377,6.0638,6.0486,0.0,0.0,6.0279,0.0,5.9514,5.988,5.9955,6.0563,6.1416,6.2679,6.2425,6.2548,6.3441,6.3933,6.421,6.421,6.6334,6.7596,6.7596,6.8427,6.8889,6.8889,6.8889,6.8889,6.8889,6.8772,6.8623,6.8386,6.8179,6.7999,6.7789,6.7246,6.6974,6.6944,6.6552,6.6311,6.634,6.658,6.667,6.667,6.667,6.667,6.667,4.9816,4.959,4.9364,4.8636,4.8812,4.9314,5.0067,5.0193,5.0745,5.2251,5.2101,5.2553,5.4361,5.421,5.4135,5.4536,5.4863,5.5064,5.5139,5.4059,5.3934,5.5089,5.3356,5.2377,5.2452,5.1674,5.1122,5.077,5.124,5.2164,5.3431,5.4754,5.5818,5.6651,5.7366,5.8145,5.9074,6.0787,6.1977,6.2819,6.369,6.3922,6.3835,6.4415,6.4793,6.4996,6.4996,6.5285,6.5547,6.4572,6.5579,6.7033,6.6192,6.6516,6.7433,6.826,6.7485,6.6488,6.7381,6.7289,6.6858,6.6365,6.5428,6.4518,6.4028,6.2792,6.1683,6.1575,6.1791,6.1852,6.1225,6.1291,6.1348,0.0,0.0,0.0,0.0,6.0355,6.0302,6.0377,6.0805,6.1339,6.2003,6.1748,6.1686,6.2086,6.2548,6.2825,6.2825,6.5411,6.6919,6.6919,6.8212,6.8889,6.8889,6.8889,6.8889,6.8889,6.8772,6.8595,6.8386,6.8298,6.8119,6.7789,6.7608,6.7426,6.7304,6.7121,6.6999,6.6999,6.6999,6.6999,6.6999,6.6999,6.6999,6.6999,4.9816,4.959,4.959,4.959,4.964,5.0042,5.1122,5.1322,5.2101,5.421,5.3632,5.3406,5.4461,5.3683,5.3482,5.4436,5.3607,5.3909,5.5942,5.3206,5.2904,5.6068,5.3206,5.2477,5.4607,5.2503,5.1925,5.2929,5.2014,5.2171,5.3243,5.4721,5.544,5.5526,5.7513,5.8348,5.8523,6.1019,6.2122,6.2296,6.3516,6.4386,6.488,6.427,6.4444,6.4996,6.4996,6.4996,6.4996,6.4996,6.5441,6.6007,6.6037,6.6937,6.797,6.806,6.8478,6.8951,6.8951,6.892,6.8581,6.7319,6.6981,6.6581,6.5288,6.4949,6.4832,6.4524,6.4691,6.4432,6.284,6.2695,6.2394,0.0,0.0,0.0,6.0481,6.0638,6.069,6.0429,6.1561,6.1944,6.0917,6.1963,6.2179,6.0886,6.1994,6.2733,6.2825,6.5288,6.6765,6.6919,6.8058,6.8766,6.8889,6.8828,6.8828,6.8889,6.8595,6.8386,6.8386,6.8119,6.785,6.7548,6.7548,6.7365,6.706,6.6999,6.6999,6.6999,6.6999,6.6999,6.6999,6.6999,6.6999,6.6999,4.9816,4.959,4.959,4.959,5.0293,5.0946,5.1247,5.1975,5.2703,5.3281,5.3808,5.426,5.4607,5.5039,5.4988,5.4009,5.4436,5.4637,5.4361,5.4336,5.4888,5.6168,5.539,5.4813,5.4587,5.4009,5.3457,5.2929,5.2839,5.2891,5.3243,5.5249,5.6114,5.6201,5.8204,5.9045,5.919,6.1222,6.2645,6.3516,6.3399,6.3719,6.427,6.4096,6.4444,6.4996,6.4996,6.4996,6.4996,6.4996,6.5412,6.6192,6.7195,6.7996,6.882,6.9852,6.9909,6.9628,6.9628,6.9259,6.8797,6.8458,6.7627,6.6827,6.6488,6.5626,6.4888,6.4777,6.4832,6.4795,6.4316,6.3479,6.2702,6.2364,0.0,0.0,6.069,6.0742,6.0794,6.069,6.0997,6.1089,6.0824,6.1101,6.1163,6.0824,6.1132,6.1748,6.2764,6.3472,6.4795,6.6858,6.6273,6.6888,6.8858,6.7904,6.7904,6.8889,6.883,6.8772,6.8772,6.8713,6.8476,6.8179,6.7939,6.7669,6.7365,6.7121,6.6999,6.6999,6.6999,6.6999,6.6999,6.6999,6.6999,6.6999,4.9816,4.9791,4.9967,4.9967,5.1272,5.2251,5.2026,5.2528,5.3281,5.4235,5.4486,5.4737,5.5239,5.5842,5.5817,5.4888,5.4712,5.4687,5.4787,5.426,5.4637,5.6143,5.5742,5.5315,5.4938,5.4938,5.4637,5.4009,5.3932,5.4328,5.5191,5.6231,5.7087,5.7735,5.9101,5.9684,5.9829,6.1716,6.3109,6.3946,6.3661,6.3893,0.0,6.4091,6.4444,6.4996,6.4996,6.4996,6.4996,6.4996,6.5412,6.6037,6.6546,6.7717,6.8972,6.9489,6.9975,7.0336,7.0336,6.9843,6.932,6.932,6.8551,6.7781,6.7781,6.7196,6.6642,6.6642,6.6642,6.6457,6.5873,6.4641,6.3318,6.2117,6.1286,6.0794,6.0794,6.1317,6.1471,6.0886,6.1317,6.144,6.0855,6.0794,6.0794,6.0794,6.0794,6.1132,6.1902,6.3071,6.4149,6.5103,6.5565,6.6211,6.7135,6.6396,6.6704,6.8027,6.8027,6.8335,6.8889,6.8889,6.8713,6.8386,6.8238,6.7879,6.7487,6.7304,6.7121,6.6999,6.6999,6.6999,6.6999,6.6999,6.6999,6.6999,5.0017,5.0193,5.0544,5.0619,5.2277,5.3507,5.3281,5.3306,5.3984,5.5767,5.534,5.5189,5.6018,5.6294,5.6394,5.6319,5.4988,5.4762,5.6219,5.4009,5.3733,5.6219,5.534,5.5013,5.5491,5.5491,5.5491,5.5491,5.4937,5.5535,5.7156,5.7079,5.7708,5.8953,5.9943,6.0409,6.0671,6.2296,6.337,6.3975,6.3975,6.4357,6.4793,6.4328,6.4502,6.4996,6.4996,6.4996,6.4996,6.4996,6.5378,6.5849,6.5582,6.71,6.891,6.8751,6.9793,7.1044,7.1044,7.0551,7.0028,7.0028,6.9566,6.9135,6.9043,6.9012,6.8982,6.8889,6.8889,6.852,6.7381,6.5934,6.4057,6.1471,6.0917,6.0794,6.0794,6.1963,6.2302,6.0948,6.1994,0.0,6.0917,6.0794,6.0794,6.0794,6.0794,6.0886,6.104,6.3164,6.3964,6.3102,6.5226,6.5996,6.5165,6.498,6.5657,6.7165,6.6981,6.7596,6.8889,6.8889,6.8713,6.8386,6.8327,6.7999,6.7487,6.7487,6.7243,6.6999,6.6999,6.6999,6.6999,6.6999,6.6999,6.6999,5.1122,5.1071,5.1272,5.1724,5.2503,5.3482,5.4762,5.534,5.544,5.4938,5.5867,5.6319,5.5616,5.6771,5.7424,5.6922,5.662,5.657,5.6872,5.6018,5.5917,5.6846,5.6269,5.5968,5.6068,5.6068,5.6068,5.6068,5.4572,5.4068,5.4396,5.5767,5.6511,5.6851,5.9769,6.16,6.2558,6.2354,6.2935,6.3975,6.3975,6.4033,6.4241,6.4677,6.488,6.4996,6.4996,6.4996,6.4996,6.4996,6.506,6.5553,6.7627,6.8612,6.9414,7.1472,7.1937,7.1783,7.1783,7.1259,7.0736,7.0736,7.0644,7.0398,6.9843,6.972,6.9566,6.9012,6.8889,6.8828,6.8581,6.655,6.4364,6.2733,6.1532,6.0794,6.0794,6.1963,6.2302,6.0948,6.1994,6.2271,6.0917,6.0794,6.0794,6.0794,6.0794,6.1286,6.2394,6.1871,6.2456,0.0,6.3872,6.4518,0.0,6.5442,6.6119,6.852,6.7442,6.7596,6.8889,6.8889,6.8713,6.8386,6.8179,6.785,6.7487,6.7182,6.706,6.6999,6.6999,6.6999,6.6999,6.6999,6.6999,6.6999,5.1749,5.1699,5.18,5.2051,5.3256,5.4461,5.5265,5.6344,5.6897,5.6369,5.6997,5.7273,5.6746,5.7424,5.7775,5.7499,5.7198,5.7173,5.7474,5.6947,5.6897,5.7449,5.7223,5.6821,5.6219,5.6796,5.6671,5.5792,5.4963,5.4834,5.5245,5.6197,5.6986,5.7799,6.0459,6.2006,6.2587,6.2935,6.3457,6.4004,6.4386,6.4532,6.4561,6.488,6.5426,6.5943,6.524,6.5455,6.5914,6.5211,6.4996,6.5211,6.6525,6.7902,6.9253,7.0544,7.1688,7.2491,7.2491,7.1998,7.1444,7.1444,7.1167,7.0828,7.049,7.0428,7.0213,6.9566,6.9413,6.9105,6.8058,6.6796,6.5503,6.4118,6.2733,6.184,6.184,6.2394,6.2579,6.1933,6.3071,6.3349,6.1963,6.1532,6.1163,6.0824,6.0794,6.1071,6.1748,6.1809,6.2456,0.0,0.0,0.0,6.5842,0.0,6.5903,6.7843,6.7227,6.7596,6.8889,6.8889,6.883,6.8654,6.8358,6.7999,6.7729,6.7243,6.6999,6.6999,6.6999,6.6999,6.6999,6.6999,6.6999,6.6999,5.298,5.298,5.303,5.313,5.4486,5.5691,5.6043,5.7123,5.7901,5.7901,5.8001,5.8077,5.8077,5.8177,5.8202,5.8077,5.775,5.76,5.77,5.7524,5.7499,5.77,5.7826,5.7474,5.6595,5.7449,5.7248,5.5917,5.5792,5.5883,5.621,5.7009,5.82,5.9781,6.1241,6.2109,6.2558,6.3603,6.4062,6.427,6.4793,6.4996,6.4996,6.4996,6.567,6.6466,6.5524,6.586,6.6656,6.5714,6.5465,6.5548,6.6065,6.7749,6.9499,6.9775,7.1315,7.2983,7.2983,7.2583,7.2183,7.2183,7.1752,7.1321,7.1167,7.1136,7.0952,7.0244,6.9997,6.9413,6.7843,6.7196,6.6457,6.5103,6.3718,6.2702,6.2425,6.2641,6.2825,6.2825,6.3779,6.4026,6.2918,6.2086,6.1317,6.064,6.0578,6.0763,6.1194,6.1963,6.2517,6.2794,6.3872,6.4611,6.4888,0.0,6.5719,6.7319,6.7042,6.7596,6.8889,6.8889,6.8889,6.8889,6.8535,6.8238,6.797,6.7365,6.7121,6.7121,6.706,6.6999,6.6999,6.6999,6.6999,6.6999,5.5817,5.5817,5.5993,5.6495,5.6319,5.6646,5.8177,5.8127,5.7901,5.7901,5.8328,5.8654,5.8654,5.9056,5.9156,5.8679,5.9031,5.8654,5.7198,5.8027,5.8127,5.7148,5.7625,5.7851,5.775,5.7851,5.7826,5.7675,5.7148,5.6179,5.4919,5.741,5.9737,6.1791,6.1245,6.2032,6.3801,6.3917,6.4357,6.4909,6.4967,6.4996,6.4996,6.4996,6.5089,6.5245,6.5756,6.6007,6.6162,6.6629,6.68,6.723,6.9652,7.0637,7.1038,7.2303,7.2829,7.2983,7.2983,7.2922,7.2891,7.2891,7.2829,7.2614,7.2029,7.1875,7.166,7.0952,7.0305,6.9843,6.9659,6.815,6.6457,6.5103,6.3718,6.2394,6.1163,6.2056,6.2825,6.2825,6.2948,6.2948,6.2825,6.1656,6.0609,5.9932,5.987,6.0701,6.2517,6.1594,6.1563,6.2764,6.2948,6.3626,6.4888,6.4888,6.618,6.8674,6.7504,6.7596,6.8889,6.8889,6.8889,6.8889,6.8535,6.8238,6.797,6.7608,6.7487,6.7426,6.7121,6.6999,6.6999,6.6999,6.6999,6.6999,5.6696,5.6445,5.6394,5.6947,5.7424,5.8052,5.9031,5.9583,5.9859,5.9859,5.9759,5.9809,6.0161,6.0387,6.0412,6.0211,6.0387,6.0085,5.9081,5.9433,5.9332,5.8554,5.873,5.8704,5.8403,5.8403,5.8227,5.7901,5.6646,5.5735,5.5138,5.6745,5.8711,6.109,6.2033,6.3009,6.3818,6.516,6.5896,6.6128,6.6128,6.6128,6.6128,6.6128,6.662,6.7301,6.7211,6.7682,6.8393,6.8721,6.7993,6.729,6.8715,6.9786,7.0614,7.1533,7.2334,7.2983,7.2983,7.2983,7.2983,7.2983,7.2983,7.2922,7.2645,7.2583,7.2368,7.169,7.0982,7.0367,6.9967,6.9228,6.815,6.6396,6.5626,6.4795,6.3441,6.3718,6.4364,6.5195,6.4549,6.4395,6.5195,6.2918,6.1471,6.1594,6.0855,6.0578,6.0978,6.1656,6.2641,6.4026,6.4057,6.5103,6.7258,6.6488,6.7042,6.8889,6.8366,6.8366,6.8889,6.8889,6.8713,6.8358,6.8417,6.8119,6.7669,6.7548,6.7487,6.7487,6.7121,6.6999,6.6999,6.6999,6.6999,6.6999,5.8252,5.7951,5.7801,5.8177,5.8905,5.9458,5.9483,6.0462,6.1115,6.0939,6.0864,6.0914,6.1165,6.119,6.1115,6.0939,6.109,6.0814,5.991,6.0311,6.0261,5.9533,5.9659,5.9558,5.9207,5.9031,5.8755,5.8378,5.7173,5.6342,5.5905,5.6335,5.7946,6.0657,6.2453,6.348,6.401,6.6058,6.6883,6.6883,6.6883,6.7014,6.721,6.721,6.793,6.8867,6.8649,6.915,6.9986,7.0157,6.9305,6.8242,6.8725,6.9487,7.0342,7.083,7.1628,7.2368,7.2368,7.2368,7.2368,7.2368,7.2521,7.2675,7.2675,7.2829,7.286,7.2368,7.1721,7.1075,7.0582,7.0182,6.932,6.7504,6.7042,6.6457,6.5103,6.4888,6.5257,6.6211,6.5103,6.4826,6.618,6.3749,6.221,6.2517,6.1809,6.1194,6.0701,6.1656,6.2856,6.4241,6.3903,6.498,6.7689,6.6796,6.7196,6.8889,6.8889,6.8889,6.8889,6.8889,6.8595,6.8119,6.8358,6.8119,6.7669,6.7548,6.7487,6.7487,6.7121,6.6999,6.6999,6.6999,6.6999,6.6999,6.114,6.1115,6.1115,6.114,6.114,6.0788,5.9659,6.0462,6.0989,6.0412,6.1291,6.1793,6.124,6.119,6.0939,6.0387,6.0864,6.0487,5.8855,6.0261,6.0663,5.9533,6.001,6.0311,6.0311,5.9759,5.9483,5.9483,5.9458,5.8631,5.704,5.655,5.8112,6.1306,6.2042,6.3224,6.4724,6.626,6.6883,6.6883,6.6883,6.7312,6.7894,6.7894,6.8343,6.91,6.9725,6.9973,7.0097,7.0678,7.089,7.089,7.089,7.089,7.0921,7.0921,7.0921,7.0921,7.0921,7.0921,7.0921,7.0921,7.1475,7.1998,7.1998,7.2491,7.2983,7.2983,7.2429,7.1967,7.1967,7.0828,6.9474,6.812,6.735,6.6457,6.5103,6.4888,6.4918,6.4918,6.3687,6.3379,6.4795,6.3626,6.2517,6.1871,6.2425,6.2794,6.2764,6.1532,6.144,6.2794,6.1532,6.2179,6.4918,6.4918,6.6242,6.8889,6.8889,6.8889,6.8889,6.8889,6.8713,6.8386,6.8386,6.8238,6.797,6.7669,6.7487,6.7487,6.7121,6.6999,6.6999,6.6999,6.6999,6.6999,5.9081,6.0161,6.1065,6.0663,6.124,6.1743,6.1768,6.2069,6.2245,6.2044,6.2345,6.2496,6.232,6.2295,6.222,6.2044,6.1517,6.1115,6.0964,6.0738,6.0613,6.0638,6.0085,5.9759,5.9759,5.9232,5.8956,5.8956,5.8604,5.8127,5.7646,5.747,5.8322,6.0165,6.2584,6.3891,6.4532,6.7632,6.8921,6.8987,6.9417,6.9743,6.9938,6.9938,7.0067,7.0419,7.1026,7.1279,7.1344,7.1599,7.1629,7.1536,7.1075,7.089,7.1013,7.1475,7.129,7.089,7.089,7.089,7.089,7.089,7.1075,7.1229,7.1229,7.1413,7.1567,7.1567,7.1383,7.1105,7.0644,7.0182,6.932,6.7535,6.7812,6.7781,6.6457,6.6673,6.6981,6.6981,6.575,6.5472,6.6827,6.5319,6.4334,6.458,6.3903,6.3102,6.2179,6.3071,6.421,6.5565,6.5195,6.5811,6.7596,6.6735,6.7165,6.8889,6.8889,6.8889,6.8889,6.8889,6.8595,6.8119,6.8358,6.8119,6.7669,6.7548,6.7487,6.7487,6.7121,6.6999,6.6999,6.6999,6.6999,6.6999,5.9885,6.0864,6.1692,6.1316,6.1843,6.2295,6.222,6.2571,6.2672,6.227,6.2571,6.2822,6.2822,6.2822,6.2822,6.2822,6.2195,6.1943,6.2295,6.1642,6.1416,6.1793,6.0939,6.0437,6.0437,5.991,5.9659,5.9659,5.9081,5.8704,5.8504,5.8504,5.8855,5.9637,6.2783,6.422,6.4436,6.7964,6.9817,7.029,7.0753,7.1362,7.2029,7.2029,7.2224,7.2452,7.2657,7.2662,7.2634,7.2459,7.2368,7.2275,7.1813,7.1506,7.129,7.1229,7.089,7.0459,7.0213,7.0151,7.0151,7.0151,7.0336,7.0582,7.0828,7.089,7.089,7.089,7.089,7.0767,7.0336,7.0059,6.9474,6.8243,6.852,6.8612,6.7781,6.7812,6.7843,6.7566,6.6581,6.6334,6.7442,6.6396,6.5842,6.6242,6.5011,6.4087,6.3749,6.421,6.5011,6.6119,6.615,6.6796,6.815,6.7319,6.7566,6.8889,6.8889,6.8889,6.8889,6.8889,6.8535,6.803,6.8179,6.7879,6.7304,6.7304,6.7304,6.7304,6.706,6.6999,6.6999,6.6999,6.6999,6.6999,6.2621,6.2722,6.2797,6.2722,6.2772,6.2471,6.1441,6.2169,6.2446,6.1441,6.2195,6.2822,6.2822,6.2822,6.2822,6.2822,6.2747,6.2772,6.2873,6.2772,6.2747,6.2822,6.227,6.1943,6.1943,6.1391,6.114,6.119,6.0638,6.0111,5.9558,5.9558,5.9533,5.9637,6.2709,6.4002,6.422,6.7374,6.9486,7.0687,7.0947,7.2199,7.3924,7.405,7.447,7.4922,7.4276,7.4061,7.3968,7.3291,7.3045,7.3045,7.2983,7.2552,7.1783,7.0428,6.9997,6.9813,6.9135,6.8951,6.8951,6.8889,6.9351,6.9997,7.0613,7.0767,7.0767,7.0767,7.0767,7.0767,7.0767,7.0244,6.9813,6.9813,6.9289,6.8858,6.8828,6.8304,6.7658,6.6981,6.6396,6.6304,6.6919,6.7042,6.7042,6.6981,6.5811,6.5657,6.6919,6.5165,6.4426,6.5165,6.5165,6.578,6.7042,6.7042,6.7658,6.8889,6.8889,6.8889,6.8889,6.8889,6.8535,6.803,6.803,6.7608,6.6999,6.6999,6.6999,6.6999,6.6999,6.6999,6.6999,6.6999,6.6999,6.6999,6.0462,6.1667,6.2571,6.1718,6.227,6.2747,6.2471,6.2672,6.2747,6.2471,6.2672,6.2822,6.2822,6.2822,6.2822,6.2822,6.2044,6.2119,6.34,6.2295,6.1943,6.2797,6.1893,6.1391,6.1391,6.0814,6.0738,6.119,6.104,6.0688,6.0111,6.0111,5.991,5.956,6.1542,6.2338,6.2635,6.6286,6.7993,6.8575,7.1344,7.272,7.3256,7.432,7.4856,7.4984,7.483,7.4769,7.4645,7.3968,7.3753,7.366,7.3137,7.286,7.2583,7.1721,7.1105,7.0521,6.9843,6.9659,6.9536,6.9012,6.9012,6.9166,6.932,6.9351,6.9351,6.9351,6.9351,6.9351,6.9351,6.9228,6.9135,6.9135,6.8982,6.8705,6.8212,6.8027,6.7658,6.6981,6.7227,6.7504,6.7658,6.812,6.8212,6.772,6.7381,6.735,6.7658,6.7227,6.7258,6.7904,6.7935,6.8089,6.8427,6.8427,6.8581,6.8889,6.8889,6.8889,6.8889,6.8889,6.8535,6.803,6.803,6.7608,6.6999,6.6999,6.6999,6.6999,6.6999,6.6999,6.6999,6.6999,6.6999,6.6999,6.114,6.1994,6.2647,6.2044,6.2421,6.2822,6.2822,6.2822,6.2822,6.2822,6.2822,6.2822,6.2822,6.2822,6.2923,6.3199,6.2446,6.232,6.3249,6.2446,6.2195,6.2797,6.2245,6.1943,6.1943,6.1617,6.1492,6.1567,6.1567,6.1266,6.0713,6.0713,6.0563,6.034,6.2012,6.2535,6.246,6.6679,6.8688,6.9182,7.2547,7.4207,7.4837,7.5655,7.5907,7.5877,7.5569,7.5476,7.5353,7.4676,7.4245,7.3937,7.3568,7.3445,7.3322,7.2645,7.1937,7.1229,7.0551,7.0367,7.0182,6.9505,6.9105,6.8889,6.8889,6.8889,6.8889,6.8889,6.8889,6.8889,6.8889,6.8889,6.8889,6.8889,6.8643,6.8335,6.7966,6.7658,6.7442,6.7381,6.7689,6.8027,6.8335,6.8674,6.8735,6.8397,6.7812,6.772,6.8335,6.7781,6.7904,6.8858,6.8889,6.8889,6.8889,6.8889,6.8889,6.8889,6.8889,6.8889,6.8889,6.8889,6.8535,6.803,6.803,6.7608,6.6999,6.6999,6.6999,6.6999,6.6999,6.6999,6.6999,6.6999,6.6999,6.6999,6.2822,6.2822,6.2822,6.2822,6.2822,6.2822,6.2822,6.2822,6.2822,6.2822,6.2822,6.2822,6.2822,6.2822,6.3023,6.3525,6.3124,6.2873,6.2948,6.2948,6.2923,6.2822,6.2923,6.2923,6.2822,6.2822,6.2596,6.2119,6.2119,6.1843,6.1316,6.1316,6.1266,6.1245,6.279,6.3241,6.3139,6.7494,6.9702,7.0679,7.3791,7.5683,7.673,7.6919,7.7016,7.6954,7.6369,7.6154,7.6061,7.5384,7.4769,7.4276,7.4061,7.4061,7.403,7.3322,7.2737,7.2091,7.129,7.0982,7.0736,7.0059,6.9474,6.9012,6.892,6.8889,6.8889,6.8889,6.8889,6.8889,6.8889,6.8889,6.8858,6.8766,6.8274,6.7873,6.7781,6.7381,6.7289,6.7843,6.7997,6.8274,6.8828,6.8889,6.8889,6.8889,6.7843,6.7689,6.8828,6.7812,6.772,6.8858,6.8889,6.8889,6.8889,6.8889,6.8889,6.8889,6.8889,6.8889,6.8889,6.8889,6.8535,6.803,6.803,6.7608,6.6999,6.6999,6.6999,6.6999,6.6999,6.6999,6.6999,6.6999,6.6999,6.6999,6.2822,6.2822,6.2822,6.2822,6.2822,6.2822,6.2822,6.2822,6.2822,6.2822,6.2822,6.2822,6.2822,6.2822,6.2873,6.2948,6.2873,6.3048,6.3525,6.355,6.335,6.2847,6.3299,6.3324,6.2847,6.2822,6.2797,6.2697,6.2697,6.2421,6.1868,6.1868,6.1617,6.1165,6.1461,6.2327,6.3614,6.6312,6.8327,7.0012,7.3589,7.5115,7.5429,7.6603,7.7016,7.7016,7.6892,7.6862,7.6769,7.6092,7.5784,7.5507,7.4368,7.4399,7.4707,7.403,7.3753,7.3414,7.2152,7.1352,7.0736,7.0059,6.9813,6.9597,6.9012,6.8889,6.8889,6.8889,6.8889,6.8889,6.8889,6.8889,6.8705,6.815,6.7997,6.772,6.7165,6.7473,6.7812,6.7904,6.8397,6.8766,6.8889,6.8889,6.8889,6.8889,6.8705,6.8674,6.8889,6.8674,6.8674,6.8889,6.8889,6.8889,6.8889,6.8889,6.8889,6.8889,6.8889,6.8889,6.8889,6.8889,6.8535,6.803,6.803,6.7608,6.6999,6.6999,6.6999,6.6999,6.6999,6.6999,6.6999,6.6999,6.6999,6.6999,6.3701,6.3701,6.3701,6.3701,6.3701,6.3701,6.3701,6.3701,6.3701,6.3701,6.3701,6.3701,6.3701,6.345,6.3299,6.3299,6.2998,6.2948,6.3199,6.3525,6.3576,6.3299,6.355,6.3425,6.2847,6.2822,6.2822,6.2822,6.2822,6.2697,6.2446,6.2446,6.232,6.2044,6.2223,6.2468,6.3023,6.7063,6.8935,6.9708,7.4271,7.6064,7.6126,7.6761,7.7016,7.7016,7.7016,7.7016,7.6954,7.6646,7.6308,7.5907,7.5261,7.5292,7.5415,7.4738,7.4276,7.3783,7.2768,7.1998,7.1413,7.1105,7.0705,7.0244,6.9566,6.9443,6.932,6.8951,6.8889,6.8889,6.8889,6.8889,6.8797,6.8489,6.815,6.7812,6.7504,6.772,6.7935,6.7935,6.8489,6.8889,6.8889,6.8889,6.8889,6.8889,6.8889,6.8889,6.8889,6.8889,6.8889,6.8889,6.8889,6.8889,6.8889,6.8889,6.8889,6.8889,6.8713,6.8623,6.8623,6.8623,6.8298,6.7729,6.791,6.7608,6.6999,6.6999,6.6999,6.6999,6.6999,6.6999,6.6999,6.6999,6.6999,6.7029,6.4454,6.4454,6.4454,6.4454,6.4454,6.4454,6.4454,6.4454,6.4454,6.4454,6.4454,6.4454,6.4454,6.4103,6.3877,6.3877,6.335,6.3023,6.3023,6.345,6.3701,6.3701,6.3701,6.3475,6.3048,6.2898,6.2822,6.2822,6.2822,6.2822,6.2822,6.2822,6.2822,6.2797,6.3232,6.3268,6.3322,6.8364,7.0378,7.0521,7.5187,7.7016,7.7016,7.7016,7.7016,7.7016,7.7016,7.7016,7.7016,7.7016,7.6677,7.6215,7.6061,7.6123,7.6123,7.5446,7.4861,7.4276,7.3445,7.2829,7.2368,7.206,7.1567,7.0982,7.0274,7.012,6.9936,6.9259,6.9105,6.9074,6.892,6.8889,6.8828,6.8674,6.8243,6.7935,6.7935,6.7935,6.7966,6.812,6.8581,6.8889,6.8889,6.8889,6.8889,6.8889,6.8889,6.8889,6.8889,6.8889,6.8889,6.8889,6.8889,6.8889,6.8889,6.8889,6.8889,6.8889,6.8595,6.8386,6.8386,6.8358,6.7999,6.7548,6.7941,6.7759,6.7238,6.7388,6.7448,6.7448,6.7448,6.7448,6.7448,6.7448,6.7448,6.7537,6.4454,6.4454,6.4454,6.4454,6.4454,6.4454,6.4454,6.4454,6.4454,6.4454,6.4454,6.4454,6.4454,6.4429,6.4404,6.4404,6.3927,6.3626,6.3626,6.3676,6.3701,6.3701,6.3701,6.3676,6.3626,6.3099,6.2822,6.2822,6.2822,6.2822,6.2822,6.2822,6.2822,6.2822,6.364,6.487,6.639,6.9745,7.1955,7.3525,7.5996,7.7016,7.7016,7.7016,7.7016,7.7016,7.7016,7.7016,7.7016,7.7016,7.6985,7.6831,7.6215,7.6431,7.68,7.6123,7.5907,7.5569,7.4276,7.3876,7.3537,7.2275,7.1937,7.1721,7.0982,7.0828,7.0644,6.9967,6.9813,6.9628,6.9012,6.8889,6.8705,6.8089,6.7966,6.7935,6.7935,6.7935,6.815,6.8735,6.8858,6.8889,6.8889,6.8889,6.8889,6.8889,6.8889,6.8889,6.8889,6.8889,6.8889,6.8889,6.8889,6.8889,6.8889,6.8889,6.8889,6.8889,6.8595,6.8386,6.8386,6.8119,6.785,6.7517,6.8181,6.8268,6.7956,6.8585,6.8854,6.8854,6.8854,6.8854,6.8854,6.8854,6.8854,6.8854,6.5484,6.5484,6.5484,6.5484,6.5484,6.5484,6.5484,6.5484,6.5484,6.5484,6.5484,6.5484,6.5484,6.5183,6.4982,6.4982,6.4479,6.4178,6.4178,6.4178,6.4178,6.4178,6.4178,6.4178,6.4178,6.3651,6.3375,6.3375,6.2998,6.2822,6.2822,6.2822,6.2822,6.2822,6.3691,6.4469,6.5292,6.943,7.1582,7.2398,7.5661,7.7016,7.7016,7.7016,7.7016,7.7016,7.7016,7.7016,7.7016,7.7016,7.7016,7.6985,7.6708,7.68,7.6954,7.6708,7.6646,7.6431,7.5507,7.4645,7.3876,7.3353,7.2922,7.2429,7.1721,7.1567,7.1352,7.0675,7.0521,7.0305,6.9628,6.9505,6.9289,6.8643,6.852,6.852,6.852,6.852,6.8612,6.8858,6.8889,6.8889,6.8889,6.8889,6.8889,6.8889,6.8889,6.8889,6.8889,6.8889,6.8889,6.8889,6.8889,6.8889,6.8889,6.8889,6.8889,6.8889,6.8785,6.8728,6.8698,6.8819,6.8723,6.8443,6.884,6.8898,6.8645,6.8884,6.9004,6.9004,6.9004,6.9004,6.9004,6.9004,6.9004,6.9064,6.6112,6.6112,6.6112,6.6112,6.6112,6.6112,6.6112,6.6112,6.6112,6.6112,6.6112,6.6112,6.6112,6.5785,6.5534,6.5534,6.5032,6.4731,6.4731,6.4555,6.4555,6.4705,6.4731,6.4731,6.4731,6.4203,6.3852,6.3701,6.3299,6.2998,6.2822,6.2822,6.2822,6.2822,6.4013,6.4495,6.4789,6.9113,7.1177,7.187,7.4992,7.6589,7.7016,7.7016,7.7016,7.7016,7.7016,7.7016,7.7016,7.7016,7.7016,7.7016,7.7016,7.7016,7.7016,7.7016,7.7016,7.6923,7.6461,7.5507,7.4584,7.4368,7.3814,7.3168,7.2706,7.246,7.2091,7.1383,7.1229,7.1013,7.0336,7.0213,7.0059,6.9597,6.9351,6.9197,6.9197,6.9012,6.8889,6.8889,6.8889,6.8889,6.8889,6.8889,6.8889,6.8889,6.8889,6.8889,6.8889,6.8889,6.8889,6.8889,6.9074,6.9138,6.905,6.905,6.902,6.8901,6.9124,6.9214,6.9091,6.9297,6.9288,6.9004,6.9436,6.9463,6.9333,6.9512,6.9602,6.9602,6.9602,6.9602,6.9602,6.9602,6.9602,6.9662,6.6112,6.6112,6.6112,6.6112,6.6112,6.6112,6.6112,6.6112,6.6112,6.6112,6.6112,6.6112,6.6112,6.6112,6.6112,6.6112,6.5609,6.5308,6.5308,6.4781,6.4731,6.5283,6.5283,6.5283,6.5308,6.4756,6.4228,6.3701,6.3701,6.34,6.2847,6.2847,6.2822,6.2904,6.4575,6.5371,6.5608,6.8847,7.1044,7.2599,7.407,7.5631,7.7016,7.7016,7.7016,7.7016,7.7016,7.7016,7.7016,7.7016,7.7016,7.7016,7.7016,7.7016,7.7016,7.7016,7.7016,7.7016,7.7016,7.6523,7.5846,7.5169,7.4491,7.3999,7.3999,7.3476,7.2798,7.2121,7.1998,7.1752,7.1044,7.0921,7.0921,7.089,7.0336,6.9905,6.9905,6.932,6.8889,6.8889,6.8889,6.8889,6.8889,6.8889,6.8889,6.8889,6.8889,6.8889,6.8889,6.8889,6.8889,6.8889,6.9566,6.9726,6.9396,6.9396,6.9215,6.8911,6.9639,6.9788,6.9384,6.9476,6.9288,6.9064,6.9722,6.9991,7.0021,7.0649,7.0889,7.0889,7.0889,7.0889,7.0889,7.0889,7.0889,7.0889,6.6112,6.6112,6.6112,6.6112,6.6112,6.6112,6.6112,6.6112,6.6112,6.6112,6.6112,6.6112,6.6112,6.6112,6.6112,6.6112,6.5961,6.586,6.586,6.571,6.5685,6.586,6.5484,6.5484,6.586,6.5333,6.4957,6.4806,6.4429,6.3952,6.3425,6.3425,6.3224,6.2822,6.4013,6.4815,6.5608,6.8187,7.0549,7.2599,7.407,7.5631,7.7016,7.7016,7.7016,7.7016,7.7016,7.7016,7.7016,7.7016,7.7016,7.7016,7.7016,7.7016,7.7016,7.7016,7.7016,7.7016,7.7016,7.6862,7.6554,7.5877,7.5199,7.4707,7.4707,7.4184,7.363,7.3445,7.3014,7.246,7.1783,7.166,7.1475,7.0982,7.0736,7.0613,7.0613,7.0428,7.012,6.9659,6.9597,6.9413,6.8951,6.8889,6.8889,6.8889,6.8889,6.8889,6.8889,6.9351,6.9597,6.9597,7.0244,7.0432,7.0159,7.0159,6.9946,6.9608,7.0088,7.0202,7.0076,7.0367,7.0449,7.035,7.053,7.062,7.0649,7.0829,7.0889,7.0889,7.0889,7.0889,7.0889,7.0889,7.0889,7.0889,6.6112,6.6112,6.6112,6.6112,6.6112,6.6112,6.6112,6.6112,6.6112,6.6112,6.6112,6.6112,6.6112,6.6112,6.6112,6.6112,6.6112,6.6112,6.6112,6.6112,6.6112,6.6112,6.5785,6.5785,6.6112,6.5785,6.5509,6.5283,6.4957,6.453,6.4002,6.4002,6.3841,6.3696,6.4508,6.5261,6.6002,6.7783,7.0062,7.2599,7.3444,7.509,7.7016,7.7016,7.7016,7.7016,7.7016,7.7016,7.7016,7.7016,7.7016,7.7016,7.7016,7.7016,7.7016,7.7016,7.7016,7.7016,7.7016,7.7016,7.6923,7.6523,7.5907,7.5415,7.5415,7.4892,7.4399,7.4399,7.4061,7.3568,7.2891,7.2768,7.2552,7.1844,7.1506,7.1321,7.1321,7.1075,7.0767,7.0336,7.0305,7.012,6.972,6.969,6.9813,7.009,6.9843,6.9813,7.009,7.0213,7.0305,7.0305,7.0952,7.1199,7.0832,7.0984,7.0766,7.0119,7.0564,7.0705,7.0577,7.0903,7.1048,7.0889,7.0889,7.0889,7.0889,7.0889,7.0889,7.0889,7.0889,7.0889,7.0889,7.0889,7.0889,7.0889,6.6112,6.6112,6.6112,6.6112,6.6112,6.6112,6.6112,6.6112,6.6112,6.6112,6.6112,6.6112,6.6112,6.6112,6.6112,6.6112,6.6112,6.6112,6.6112,6.6112,6.6112,6.6112,6.6112,6.6112,6.6112,6.6112,6.586,6.5358,6.5443,6.5167,6.4614,6.4723,6.4811,6.4991,6.5828,6.6317,6.6656,6.7511,6.9653,7.2528,7.2528,7.4307,7.7016,7.7016,7.7016,7.7016,7.7016,7.7016,7.7016,7.7016,7.7016,7.7016,7.7016,7.7016,7.7016,7.7016,7.7016,7.7016,7.7016,7.7016,7.7016,7.7016,7.6554,7.6092,7.6092,7.5569,7.5076,7.5076,7.5046,7.4799,7.4184,7.4091,7.3876,7.326,7.2645,7.2244,7.2244,7.169,7.1259,7.1198,7.1167,7.1167,7.1105,7.1075,7.1352,7.2029,7.1475,7.1383,7.2029,7.1506,7.1167,7.1167,7.1875,7.209,7.1688,7.2046,7.1604,7.0591,7.11,7.1242,7.0919,7.1242,7.1148,7.0889,7.0889,7.0889,7.0889,7.0889,7.0889,7.0889,7.0889,7.0889,7.0889,7.0889,7.0889,7.0889,6.6112,6.6112,6.6112,6.6112,6.6112,6.6112,6.6112,6.6112,6.6112,6.6112,6.6112,6.6112,6.6112,6.6112,6.6112,6.6112,6.6112,6.6112,6.6112,6.6112,6.6112,6.6112,6.6112,6.6112,6.6112,6.6112,6.6061,6.5936,6.6278,6.617,6.5698,6.6059,6.6003,6.5606,6.577,6.6276,6.6873,6.7031,6.9185,7.2528,7.2528,7.4307,7.7016,7.7016,7.7016,7.7016,7.7016,7.7016,7.7016,7.7016,7.7016,7.7016,7.7016,7.7016,7.7016,7.7016,7.7016,7.7016,7.7016,7.7016,7.7016,7.7016,7.6892,7.68,7.68,7.6277,7.5784,7.5784,7.5384,7.4953,7.4799,7.4769,7.4738,7.4584,7.443,7.4338,7.4338,7.4214,7.3907,7.3383,7.3322,7.3106,7.2583,7.2521,7.2583,7.2768,7.2614,7.2583,7.2768,7.3106,7.3322,7.3322,7.3999,7.4147,7.3828,7.3659,7.2755,7.1224,7.1088,7.0984,7.0889,7.0984,7.0984,7.0889,7.0889,7.0889,7.0889,7.0889,7.0889,7.0889,7.0889,7.0889,7.0889,7.0889,7.0889,7.0889,6.6112,6.6112,6.6112,6.6112,6.6112,6.6112,6.6112,6.6112,6.6112,6.6112,6.6112,6.6112,6.6112,6.6112,6.6112,6.6112,6.6112,6.6112,6.6112,6.6112,6.6112,6.6112,6.6112,6.6112,6.6112,6.6112,6.6112,6.6112,6.6369,6.6303,6.6026,6.656,6.6675,6.6527,6.6692,6.7119,6.7721,6.867,7.0636,7.3111,7.3821,7.5434,7.7477,7.7139,7.7016,7.7016,7.7016,7.7016,7.7016,7.7016,7.7016,7.7016,7.7016,7.7016,7.7016,7.7016,7.7016,7.7016,7.7016,7.7016,7.7016,7.7016,7.7016,7.7016,7.7016,7.6739,7.6492,7.6492,7.6215,7.5877,7.5538,7.5476,7.5384,7.5046,7.5015,7.5015,7.5015,7.5015,7.4861,7.4522,7.4461,7.4338,7.3968,7.3937,7.4091,7.4399,7.4122,7.4091,7.4399,7.4461,7.4461,7.4461,7.483,7.4823,7.4531,7.3872,7.2936,7.1888,7.1563,7.1218,7.0889,7.0889,7.0889,7.0889,7.0889,7.0889,7.0889,7.0889,7.0889,7.0889,7.0889,7.0889,7.0889,7.0889,7.0889,7.0889,6.6112,6.6112,6.6112,6.6112,6.6112,6.6112,6.6112,6.6112,6.6112,6.6112,6.6112,6.6112,6.6112,6.6112,6.6112,6.6112,6.6112,6.6112,6.6112,6.6112,6.6112,6.6112,6.6112,6.6112,6.6112,6.6112,6.6112,6.6112,6.6197,6.6197,6.6197,6.6797,6.7161,6.7452,6.7867,6.8211,6.8546,7.0571,7.2349,7.3846,7.5395,7.6842,7.8154,7.76,7.7293,7.72,7.72,7.7108,7.7016,7.7016,7.7016,7.7016,7.7016,7.7016,7.7016,7.7016,7.7016,7.7016,7.7016,7.7016,7.7016,7.7016,7.7016,7.7016,7.7016,7.7016,7.7016,7.7016,7.7016,7.6831,7.6277,7.6184,7.6,7.5446,7.5353,7.5353,7.5353,7.5353,7.5353,7.5353,7.5353,7.5353,7.5353,7.5353,7.5569,7.6154,7.5597,7.5535,7.6154,7.5597,7.5289,7.5353,7.5289,7.5034,7.4554,7.3681,7.2932,7.227,7.2008,7.1547,7.0889,7.0889,7.0889,7.0889,7.0889,7.0889,7.0889,7.0889,7.0889,7.0889,7.0889,7.0889,7.0889,7.0889,7.0889,7.0889,6.6112,6.6112,6.6112,6.6112,6.6112,6.6112,6.6112,6.6112,6.6112,6.6112,6.6112,6.6112,6.6112,6.6112,6.6112,6.6112,6.6112,6.6112,6.6112,6.6112,6.6112,6.6112,6.6112,6.6112,6.6112,6.6112,6.6112,6.6112,6.654,6.6711,6.6711,6.7587,6.7983,6.81,6.8492,6.8651,6.8727,7.0782,7.244,7.3875,7.5869,7.7538,7.8955,7.8862,7.8432,7.7877,7.7877,7.7508,7.7016,7.7016,7.7016,7.7016,7.7016,7.7016,7.7016,7.7016,7.7016,7.7016,7.7016,7.7016,7.7016,7.7016,7.7016,7.7016,7.7016,7.7016,7.7016,7.7016,7.7016,7.6985,7.6892,7.6892,7.6862,7.6769,7.6739,7.6739,7.6739,7.6739,7.6739,7.6739,7.6739,7.6739,7.6739,7.6739,7.68,7.6892,7.6538,7.6441,7.6796,7.6507,7.641,7.6739,7.6476,7.5871,7.4927,7.4444,7.3479,7.1942,7.1942,7.1547,7.0889,7.0889,7.0889,7.0889,7.0889,7.0889,7.0889,7.0889,7.0889,7.0889,7.0889,7.0889,7.0889,7.0889,7.0889,7.0889,6.6112,6.6112,6.6112,6.6112,6.6112,6.6112,6.6112,6.6112,6.6112,6.6112,6.6112,6.6112,6.6112,6.6112,6.6112,6.6112,6.6112,6.6112,6.6112,6.6112,6.6112,6.6112,6.6112,6.6112,6.6112,6.6112,6.6112,6.6112,6.6283,6.6369,6.6455,6.7561,6.8151,6.8151,6.8904,6.9188,6.9254,7.1091,7.2812,7.4586,7.6251,7.7995,7.9632,7.9232,7.8893,7.8616,7.8616,7.8185,7.76,7.76,7.7323,7.7016,7.7016,7.7016,7.7016,7.7016,7.7016,7.7016,7.7016,7.7016,7.7016,7.7016,7.7016,7.7016,7.7016,7.7016,7.7016,7.7016,7.7016,7.7016,7.7016,7.7016,7.7016,7.7016,7.7016,7.7016,7.7016,7.7016,7.7016,7.7016,7.7016,7.7016,7.7016,7.7016,7.695,7.6752,7.662,7.6488,7.6391,7.6288,7.6288,7.6391,7.6288,7.5899,7.5194,7.4275,7.3347,7.2445,7.1697,7.1188,7.0889,7.0889,7.0889,7.0889,7.0889,7.0889,7.0889,7.0889,7.0889,7.0889,7.0889,7.0889,7.0889,7.0889,7.0889,7.0889]}]]